GFSNGP_sfc_thetae_006.txt.gz
Theta_e
296 297 296 295 294 295 294 294 289 292 294 298 301 301 301 303 303 303 303 303 303 303 303 303 303 304 301 300 299 298 296 295 296 297 296 295 294 293 293 292 291 290 289 288
290 295 295 292 295 295 295 295 295 296 295 302 302 302 301 302 302 302 301 302 302 302 301 302 303 302 298 298 297 297 296 297 297 296 295 293 293 292 291 290 289 288 287 287
286 292 290 285 291 294 296 297 296 291 296 301 299 300 300 301 302 300 300 301 301 300 301 302 302 299 296 297 299 297 297 295 294 295 293 292 291 290 289 287 287 286 286 286
285 286 280 293 300 298 296 298 299 298 298 300 300 302 302 303 301 300 300 300 300 301 301 302 299 297 298 298 298 295 294 294 295 293 291 290 290 288 286 285 285 284 284 284
284 286 290 292 296 296 293 293 299 298 300 301 302 301 299 303 302 300 300 300 300 301 301 298 297 297 296 296 295 294 293 292 291 290 289 289 287 285 285 284 284 284 283 283
289 283 280 292 297 301 300 288 300 300 299 299 298 290 294 301 302 301 300 300 300 300 298 297 296 297 295 295 294 292 292 291 290 290 288 287 285 284 284 284 282 283 282 283
287 285 288 297 300 302 287 289 300 301 299 299 295 297 300 301 302 302 301 299 300 297 295 296 297 296 294 292 291 292 290 290 289 289 287 286 285 284 283 282 282 281 280 281
285 284 283 302 301 291 297 302 301 301 300 299 300 300 301 301 300 300 298 298 297 295 295 296 296 295 292 290 289 289 289 289 288 287 287 286 284 282 282 282 281 278 279 279
291 291 300 303 301 303 303 301 301 301 301 300 299 299 300 300 299 299 296 295 295 295 294 295 295 292 289 288 289 288 287 287 286 286 285 284 282 281 281 281 280 279 280 278
292 296 298 301 303 304 304 301 302 302 301 301 298 297 297 299 299 296 294 293 294 294 292 292 292 290 289 289 289 287 286 285 285 283 283 282 282 282 280 279 279 279 278 277
292 297 299 300 303 303 303 303 301 302 300 297 296 295 296 297 296 294 291 293 293 292 292 291 291 289 289 288 288 285 284 284 284 283 281 281 281 281 280 280 280 278 278 279
289 298 298 299 303 304 301 300 300 298 296 296 296 296 296 294 293 291 291 293 293 292 290 290 289 289 289 288 286 283 282 283 282 281 281 281 280 280 283 282 282 283 282 281
298 302 302 303 302 302 300 299 298 296 296 295 296 294 293 291 291 291 292 293 292 289 289 289 288 288 287 284 283 280 280 281 280 280 280 280 279 278 276 280 283 283 282 281
302 302 297 299 298 300 299 297 297 296 296 294 294 293 292 291 292 292 291 290 289 289 289 287 286 285 286 285 283 280 282 280 280 279 279 279 278 278 278 277 276 277 281 280
300 301 299 298 297 296 296 296 294 293 292 291 292 291 291 290 290 289 289 287 287 287 287 285 282 283 286 285 283 282 282 281 279 278 278 278 278 278 278 276 277 277 278 277
298 296 295 294 294 294 294 294 293 291 289 289 288 288 289 290 289 288 287 284 283 283 283 280 279 284 284 284 283 283 283 279 277 278 278 278 278 277 277 276 277 277 276 275
293 291 292 292 292 293 293 294 293 289 289 288 287 284 284 284 284 284 285 282 282 281 281 280 283 285 283 283 283 282 282 281 277 280 278 277 277 276 276 276 276 276 276 276
294 294 293 293 292 292 291 292 290 288 288 286 283 280 280 280 281 282 282 281 281 281 282 282 281 283 281 283 280 280 281 280 280 279 278 278 277 277 276 275 276 275 275 275
294 292 292 292 293 291 291 291 288 288 284 282 281 279 281 281 282 281 281 279 280 281 283 282 283 280 282 281 278 280 282 280 279 278 278 275 277 276 275 276 275 275 275 274
291 291 292 292 292 287 287 287 287 285 285 283 281 281 283 284 281 279 280 280 282 283 283 283 283 282 282 282 277 279 281 279 278 277 277 277 277 274 274 274 274 274 274 274
289 290 289 288 287 286 285 284 283 283 284 282 281 281 280 281 281 283 282 281 284 284 283 283 283 283 284 283 280 282 280 279 278 278 277 275 276 274 275 274 274 274 273 273
289 288 287 287 286 285 286 285 285 284 283 283 282 281 282 283 284 283 282 283 283 284 283 282 282 284 283 281 281 282 280 279 278 278 277 275 274 273 273 274 274 273 273 272
289 289 289 287 286 286 286 285 285 284 284 284 283 284 283 283 283 282 281 284 283 284 283 283 284 284 281 281 282 282 281 279 278 278 277 276 273 271 273 272 273 272 271 272
290 290 289 289 287 285 284 285 284 284 284 284 284 282 282 284 284 286 286 284 284 284 284 284 283 282 280 281 282 282 281 280 279 279 277 268 273 272 273 273 272 272 271 270
288 288 288 287 286 285 285 285 284 284 284 284 284 284 284 285 283 284 284 284 284 284 284 284 281 280 280 281 281 281 281 280 279 278 278 276 273 271 274 273 271 270 270 270
289 288 287 287 286 287 286 286 285 286 286 286 285 285 284 284 285 285 285 285 284 284 284 284 284 282 281 281 281 281 280 280 278 276 276 275 273 271 272 272 271 271 270 269
288 286 285 285 286 286 287 287 287 287 285 285 284 284 284 284 285 284 284 284 283 283 284 284 284 283 282 282 282 281 280 279 277 277 277 276 274 273 272 271 271 271 270 269

GFSNGP_sfc_thetae_009.txt.gz
Theta_e
293 294 295 293 292 292 290 290 285 289 289 294 295 296 297 299 300 300 300 300 300 300 299 299 300 300 298 294 295 294 293 291 292 292 292 293 292 291 291 290 290 289 288 287
288 293 294 290 291 292 291 291 291 291 291 296 297 299 298 298 299 298 299 299 300 300 300 300 300 298 295 295 296 297 295 293 294 294 293 293 291 291 290 288 288 286 285 284
286 289 288 280 287 290 292 293 292 285 291 297 296 297 298 297 298 298 299 299 299 299 299 299 298 295 294 296 297 296 295 294 294 294 293 293 291 289 287 285 284 283 283 283
285 283 279 289 296 295 292 293 294 295 295 297 298 299 300 301 297 298 298 299 298 298 298 295 294 294 295 295 297 295 294 294 294 294 292 288 288 286 284 282 282 281 281 281
282 281 286 289 293 291 289 289 297 295 297 298 299 298 297 301 300 299 299 298 298 298 295 293 293 293 293 293 294 295 293 293 291 288 287 287 285 282 282 281 280 280 281 280
282 277 276 285 294 299 298 285 297 299 297 297 297 288 292 299 301 300 298 298 297 294 293 292 292 295 293 294 293 292 288 287 288 287 286 284 282 281 281 280 280 280 281 280
277 280 283 292 296 300 282 287 298 299 298 297 295 296 299 300 298 298 298 297 294 292 293 294 294 295 292 289 286 287 288 288 287 286 284 283 281 280 279 279 279 275 274 278
279 282 277 297 295 285 293 297 298 298 298 297 298 298 297 296 297 298 295 292 292 292 293 293 295 293 291 285 287 288 287 286 285 284 284 283 279 279 279 278 275 270 271 274
285 283 294 297 295 298 299 298 298 298 298 297 296 296 293 292 295 294 291 290 291 290 293 293 293 288 286 286 288 286 285 284 283 283 283 280 279 278 277 277 273 271 274 275
287 291 295 297 299 300 300 299 300 300 299 297 296 293 291 293 292 290 289 290 290 292 291 290 291 287 286 287 287 285 283 282 282 280 280 279 279 279 275 273 272 276 275 275
290 293 295 296 297 299 299 301 299 297 296 294 294 292 292 291 291 289 290 290 291 290 291 290 287 286 286 286 285 283 282 281 281 280 278 278 279 277 277 276 274 277 278 278
288 295 295 296 297 299 298 296 296 295 292 294 293 291 291 290 290 290 288 291 291 291 288 287 287 286 285 285 283 281 280 280 277 276 276 276 275 276 280 281 282 282 282 281
295 298 298 297 299 300 298 296 294 293 292 291 291 290 290 288 291 291 291 289 288 288 288 286 285 285 285 280 280 278 276 279 277 277 275 274 275 275 272 275 280 281 281 280
300 299 296 296 292 295 294 294 295 293 292 291 290 289 290 291 291 289 286 286 287 287 286 285 283 282 282 282 279 274 274 276 272 272 271 272 272 274 270 271 269 271 279 278
298 296 295 294 293 293 294 293 291 290 289 288 289 289 288 287 287 287 286 284 283 284 283 282 279 281 282 282 281 279 279 276 272 270 268 270 272 269 269 268 269 272 276 276
294 293 291 291 291 292 291 290 290 289 287 287 286 285 285 284 283 284 283 280 280 279 280 276 274 280 281 281 280 278 278 276 274 273 271 272 270 269 269 268 268 273 274 273
288 287 287 287 288 289 289 289 289 287 286 284 283 279 280 277 277 278 281 278 275 275 275 274 277 282 281 280 279 275 275 278 278 278 276 273 268 267 270 266 266 272 273 274
292 290 289 288 287 287 286 286 286 284 284 284 277 275 272 272 275 276 276 275 274 276 275 276 275 279 276 280 280 275 275 278 277 271 273 268 267 270 267 267 265 271 273 273
290 288 288 288 288 286 285 284 282 283 284 283 277 277 275 276 276 276 274 271 270 274 281 281 282 278 280 280 277 272 270 273 272 271 270 269 268 267 267 265 264 268 272 271
287 288 288 287 287 284 285 282 279 285 284 279 280 275 279 278 275 273 277 275 280 282 281 280 280 278 278 280 276 274 271 270 271 271 269 268 266 267 267 265 268 267 269 271
284 285 283 282 282 281 278 281 285 280 280 282 277 278 278 275 275 282 275 279 281 281 281 281 281 281 282 281 278 273 272 269 270 270 268 268 264 265 265 263 267 266 267 269
284 281 281 281 281 282 280 280 282 280 280 279 280 276 277 277 274 274 271 280 282 281 281 280 280 281 281 277 276 276 278 274 270 270 271 266 263 263 262 265 267 266 266 266
285 284 284 282 280 282 283 284 284 282 281 282 279 278 279 277 277 273 277 280 281 281 281 281 282 281 280 278 279 279 278 276 270 270 270 267 265 262 263 266 267 265 264 266
284 285 285 283 278 284 284 286 284 282 282 280 281 284 276 274 275 279 281 281 281 281 281 282 281 279 279 278 280 279 278 276 272 271 272 269 266 263 264 266 266 266 264 267
283 283 281 277 282 285 285 285 281 281 280 280 281 282 282 282 282 278 279 280 282 281 281 282 281 279 278 278 279 279 275 273 272 272 273 270 268 263 265 266 266 266 266 266
284 285 282 283 285 286 285 282 281 281 280 280 283 283 283 282 275 273 271 276 280 280 281 282 281 281 279 279 279 280 273 272 271 270 272 271 269 264 263 264 265 267 266 265
284 279 283 284 284 285 283 283 283 281 281 281 281 283 281 282 281 281 281 280 280 280 280 281 282 282 281 280 279 276 277 271 271 271 272 272 271 268 265 263 265 266 265 264

GFSNGP_sfc_thetae_012.txt.gz
Theta_e
291 292 292 292 292 292 289 288 283 287 287 291 293 294 296 297 298 298 298 298 298 298 298 299 298 298 296 294 295 295 294 294 291 292 291 291 290 289 290 291 290 288 287 286
287 291 292 289 292 291 290 290 289 289 288 295 296 297 297 298 298 298 297 298 299 299 299 299 298 297 294 296 296 296 293 294 294 294 294 293 293 292 291 290 288 286 284 283
284 287 286 283 286 288 289 291 289 284 289 295 295 296 296 297 298 297 298 298 298 298 298 297 295 294 293 294 295 295 295 295 294 294 293 292 292 291 288 285 283 282 281 281
283 284 278 289 293 293 290 291 292 293 294 295 296 298 299 299 297 298 298 298 298 298 297 295 293 292 293 294 293 293 293 293 293 292 292 290 287 285 282 282 281 280 280 281
278 281 285 288 291 289 287 288 294 293 295 296 298 297 295 299 299 299 299 299 299 297 294 292 291 292 294 291 292 294 293 290 288 287 286 284 282 281 281 280 279 279 280 279
282 280 277 284 291 297 295 282 295 295 294 294 296 289 293 298 297 297 299 300 297 294 292 291 291 292 291 289 287 286 286 287 287 286 284 282 281 280 280 278 279 279 280 279
273 278 279 289 294 296 277 283 293 296 296 294 293 295 297 297 295 297 296 294 293 292 291 291 292 294 291 284 285 287 287 287 285 285 283 282 280 279 278 278 278 273 273 276
279 279 278 294 294 286 290 292 295 295 295 295 295 295 295 295 293 294 291 291 291 291 289 292 294 293 286 283 286 287 286 285 284 283 283 281 279 278 278 277 274 269 269 272
284 282 291 295 295 295 297 295 294 296 298 295 294 294 293 291 292 292 290 288 289 288 292 293 293 289 285 285 287 285 284 283 282 282 281 280 278 277 276 275 273 271 272 273
287 291 293 295 298 298 297 296 298 296 294 295 293 292 291 290 289 288 288 288 289 292 291 289 290 285 285 286 286 283 282 281 281 280 280 279 278 278 274 273 272 276 274 274
290 293 295 296 296 298 299 297 296 296 296 293 293 291 290 289 288 287 288 290 291 288 288 287 286 284 284 284 284 282 281 281 280 279 277 277 278 276 276 276 273 273 273 278
288 295 295 296 298 299 295 295 295 293 292 293 291 289 289 287 288 289 290 289 288 287 287 287 287 285 284 284 282 280 280 279 277 275 275 275 274 276 280 280 280 281 281 279
296 299 298 298 296 296 293 293 294 293 291 290 289 289 288 287 288 289 289 286 287 286 286 285 284 283 283 279 279 277 276 278 276 276 275 274 273 274 270 273 279 279 280 279
299 299 294 294 292 294 293 293 293 293 292 290 288 287 287 287 288 287 286 285 284 284 285 283 282 281 282 281 278 273 271 273 275 274 273 272 267 269 268 267 265 268 275 277
296 296 295 292 292 292 293 292 290 289 290 288 288 286 286 284 284 284 284 283 282 282 282 281 279 280 281 281 280 278 278 274 270 271 271 270 268 268 266 265 266 267 268 274
292 291 291 290 290 289 289 289 288 288 288 286 285 284 284 284 283 282 283 280 279 279 280 274 274 279 281 280 279 276 277 276 274 273 271 272 271 267 268 265 265 267 267 272
287 285 286 285 286 285 286 287 286 285 286 284 283 281 281 277 279 280 280 277 275 274 275 274 275 280 280 280 279 276 273 278 277 272 270 271 267 266 266 263 263 264 269 270
290 289 288 286 285 285 284 285 284 283 283 283 278 278 279 278 277 278 277 275 274 272 280 280 278 280 277 281 281 278 271 274 275 271 271 267 266 268 263 263 263 263 269 270
289 288 287 287 287 284 284 284 283 282 280 281 283 281 280 276 278 278 273 271 278 275 280 276 280 280 279 280 280 273 270 270 272 272 268 266 263 263 263 261 261 263 266 268
288 289 288 286 285 282 282 282 280 279 281 283 283 278 278 279 279 274 279 275 278 281 277 280 280 279 276 279 279 275 270 270 271 270 266 265 263 263 262 263 267 264 264 266
283 284 282 281 281 280 277 279 275 283 284 277 280 281 279 278 275 280 272 278 277 280 281 280 280 279 281 279 274 272 270 274 268 268 265 264 262 260 258 261 266 264 263 264
283 281 280 279 279 281 282 278 281 283 283 282 282 280 278 277 274 273 274 279 280 281 280 279 279 280 280 279 278 278 278 277 271 265 267 263 263 261 258 261 264 263 263 263
284 283 283 280 281 282 280 283 286 285 284 283 282 280 278 279 277 273 274 278 280 280 279 280 280 280 279 279 279 279 279 278 270 269 268 266 263 261 259 263 264 264 263 264
283 283 283 283 279 281 279 285 284 285 285 283 281 280 281 275 278 278 280 280 281 281 280 281 280 280 279 278 278 279 279 274 269 269 270 269 266 262 260 262 264 263 263 263
283 282 282 279 279 282 284 284 284 283 281 281 281 281 281 280 277 274 270 274 280 280 280 280 281 281 279 278 278 278 279 271 271 268 268 267 268 265 261 262 263 264 263 262
283 283 284 283 283 286 284 285 284 281 281 280 279 282 283 281 281 278 277 278 277 279 279 280 280 281 280 279 279 279 279 273 270 268 268 267 268 266 265 260 260 263 264 262
282 278 282 284 282 284 284 284 282 281 281 282 282 283 282 281 280 280 280 279 279 279 279 279 279 279 279 277 280 279 274 273 271 271 269 267 267 267 267 264 263 264 264 263

GFSNGP_sfc_thetae_015.txt.gz
Theta_e
289 290 290 290 290 291 288 287 284 286 287 290 292 293 295 296 297 298 299 299 298 298 297 297 298 297 295 293 294 294 293 292 291 292 291 292 292 292 292 292 292 288 286 284
284 290 290 288 290 290 289 289 288 287 286 292 295 295 295 296 297 297 297 297 298 298 298 298 297 296 293 293 293 294 293 293 294 295 294 293 293 290 291 291 288 285 284 283
279 286 284 279 285 287 288 289 288 283 287 293 293 294 296 296 297 296 296 298 297 297 297 298 297 294 292 292 293 294 292 292 295 294 292 291 291 291 288 284 283 282 281 281
281 284 276 287 291 291 289 290 290 290 292 294 294 295 296 297 295 295 295 295 295 296 298 296 293 292 292 292 293 292 292 291 291 291 291 288 285 283 282 282 281 280 280 280
282 280 283 288 290 287 286 287 293 292 293 293 295 294 292 296 296 295 294 295 297 297 293 291 292 293 292 290 290 292 290 287 286 286 285 283 281 280 279 279 279 279 280 280
281 279 276 284 289 294 293 283 293 294 292 292 291 288 292 294 294 295 295 295 293 292 291 291 291 292 290 288 286 286 286 286 286 284 283 281 280 279 279 279 279 280 279 279
279 280 280 287 291 293 279 282 294 295 295 291 290 294 294 295 294 293 293 291 291 290 289 290 290 293 292 286 285 286 285 285 285 284 282 280 280 279 278 278 278 273 272 275
279 278 276 291 292 286 290 291 293 292 292 292 294 294 294 294 292 292 290 289 289 288 288 292 293 291 289 284 285 286 284 283 283 282 281 280 279 278 278 276 274 269 268 271
283 283 291 293 294 295 296 293 292 291 295 296 293 292 293 291 290 289 288 287 288 289 291 292 291 288 284 284 286 284 283 281 281 281 281 280 278 277 276 275 273 271 272 273
288 290 293 295 298 299 296 294 295 296 295 293 291 292 291 290 287 287 286 286 289 289 287 286 286 285 285 286 285 283 282 281 281 279 279 278 278 278 275 273 272 275 274 273
290 294 295 296 297 298 299 297 294 294 293 292 292 292 289 287 286 286 286 290 288 287 285 286 288 286 284 284 283 282 281 280 279 278 277 277 278 276 277 276 273 271 271 275
288 296 295 296 298 299 293 292 292 292 291 292 292 289 287 286 286 286 287 287 286 286 285 284 283 283 284 283 282 280 280 279 276 275 275 274 273 275 279 279 280 280 280 278
296 299 299 298 295 295 292 293 293 292 291 290 290 288 287 286 286 288 288 285 284 284 283 283 282 281 281 278 277 275 274 277 276 276 275 273 272 272 268 272 278 278 279 279
300 299 294 292 289 293 292 293 294 292 291 290 289 288 287 285 286 285 284 285 283 282 282 282 280 280 281 280 278 271 270 271 270 270 270 272 270 270 265 266 264 267 273 276
294 295 293 293 292 290 289 288 287 288 288 288 288 287 285 284 283 283 283 282 282 281 280 280 278 279 280 280 279 277 277 272 268 268 268 269 270 267 266 266 264 266 267 270
288 287 287 286 286 287 287 286 285 285 285 285 285 285 284 284 284 284 282 279 278 277 278 272 271 277 280 280 279 276 277 275 275 272 268 269 269 265 267 264 266 265 266 267
286 285 285 284 285 285 285 285 284 283 284 283 283 280 280 278 280 280 279 276 270 269 275 279 277 280 280 281 280 279 275 274 277 274 271 269 265 266 264 264 262 263 264 266
291 290 288 285 284 284 284 284 284 284 283 283 282 282 279 279 280 278 277 274 270 270 278 279 278 278 275 281 281 279 272 271 273 270 268 265 265 265 263 264 262 262 261 267
288 287 287 287 287 286 285 284 283 283 279 277 281 283 284 283 278 277 274 271 273 274 278 275 278 277 279 279 279 279 272 270 271 270 269 266 263 264 262 260 262 261 261 265
285 286 287 286 285 281 282 282 280 280 279 282 283 283 283 281 279 279 273 275 276 277 275 279 279 279 278 279 278 278 270 269 270 270 266 264 259 259 258 260 264 263 260 262
282 282 281 280 280 280 277 279 277 277 282 284 284 283 282 280 279 276 275 277 277 274 278 279 279 279 280 279 278 277 274 275 275 267 267 264 259 259 258 256 259 260 260 262
282 280 279 279 278 279 280 279 277 277 283 285 285 283 281 280 277 277 279 279 278 281 279 278 279 279 279 278 278 278 277 277 275 267 266 265 260 258 257 256 258 260 260 261
282 282 282 280 279 281 281 279 280 280 285 285 285 283 280 280 279 277 274 276 278 280 279 279 280 281 279 278 278 278 278 278 273 269 269 268 267 259 257 258 257 260 259 262
283 282 282 282 280 277 278 282 282 281 280 284 285 282 280 278 278 277 280 280 280 280 280 280 280 280 277 277 277 277 278 277 269 269 268 268 267 264 257 256 259 258 259 261
280 281 281 279 279 281 282 283 281 284 284 280 281 281 281 280 278 275 272 271 274 280 279 279 279 280 280 278 276 277 277 277 272 269 265 266 267 267 263 257 258 257 258 261
282 282 283 283 283 284 283 284 283 284 281 279 279 279 281 280 280 279 279 275 277 278 278 279 279 278 278 272 270 274 276 273 271 270 268 268 268 267 265 259 257 260 260 262
280 277 283 283 283 284 285 284 284 283 277 280 279 280 282 281 281 279 279 279 278 278 277 278 278 278 276 268 268 271 273 273 272 270 270 269 269 269 268 265 261 261 262 262

GFSNGP_sfc_thetae_018.txt.gz
Theta_e
287 288 288 289 288 289 286 286 284 286 285 290 290 291 294 295 296 297 297 297 296 297 298 298 299 299 297 295 293 293 293 292 290 290 293 293 293 292 292 292 291 288 286 284
283 287 287 285 288 289 288 288 288 288 287 291 293 294 294 295 296 295 294 295 296 295 294 295 297 297 294 293 293 294 293 292 292 295 294 291 291 291 290 290 290 285 283 282
277 283 283 278 283 286 287 288 287 283 287 291 291 292 292 293 293 292 294 294 294 293 295 296 295 293 292 291 292 293 291 293 293 293 292 292 292 290 288 283 282 281 281 281
277 279 274 286 290 290 288 289 289 288 290 292 293 293 294 292 291 292 293 292 292 294 293 292 292 291 290 291 290 289 291 291 290 290 289 287 284 282 281 280 280 279 280 280
282 280 283 288 289 286 286 285 290 289 291 292 292 290 289 294 292 293 291 291 292 291 290 289 289 290 289 287 287 287 287 286 285 284 283 282 281 280 280 279 279 279 280 280
281 279 276 284 287 293 291 282 290 294 293 292 292 287 291 294 294 292 293 293 291 290 289 289 289 289 291 290 285 285 284 284 283 283 282 280 279 279 279 278 279 280 279 278
282 281 283 288 290 292 279 284 291 294 294 294 291 293 293 294 294 293 292 290 290 288 287 288 289 292 291 289 284 285 285 285 283 282 280 279 278 278 278 277 278 274 272 274
278 278 275 290 290 285 290 292 293 293 292 294 293 292 292 292 293 291 288 287 287 286 287 289 289 289 286 284 284 285 284 283 282 281 281 279 278 277 277 276 274 269 267 271
285 282 290 293 294 294 296 295 293 292 294 293 290 290 291 290 291 289 288 287 286 286 287 287 284 284 283 284 286 283 282 281 282 281 280 279 277 276 276 275 272 270 271 273
287 290 292 295 297 296 294 294 296 296 292 292 290 290 289 290 289 287 286 285 287 286 285 284 285 286 284 283 283 281 280 280 280 278 278 278 277 277 274 273 272 275 273 273
290 294 295 295 296 297 297 294 293 293 293 291 290 289 290 289 286 285 285 286 287 285 285 284 285 284 282 282 281 281 280 280 279 278 277 277 277 275 276 276 273 273 271 272
288 295 295 296 295 295 291 289 289 291 291 292 291 289 289 287 286 285 285 286 285 285 284 283 282 282 282 282 281 280 280 279 276 275 274 274 273 274 278 278 279 279 279 277
295 299 295 293 291 291 288 289 291 292 291 289 289 289 287 286 285 287 287 286 284 284 283 281 281 280 280 277 276 274 273 275 273 274 273 272 272 273 270 272 277 277 278 278
299 296 291 292 290 291 290 290 289 287 287 288 288 287 287 286 286 284 284 285 283 282 281 281 280 280 280 280 277 270 269 270 269 269 268 270 266 270 267 266 265 266 272 275
288 290 291 291 289 286 287 286 284 284 285 284 286 285 285 284 284 285 285 284 283 281 281 280 277 278 279 280 278 276 276 271 267 266 265 266 266 267 266 264 263 265 266 270
287 287 287 286 286 286 286 285 283 282 283 283 283 283 283 283 283 284 284 282 278 278 279 272 277 276 279 281 279 276 278 274 271 270 267 268 266 265 266 265 265 264 265 266
285 284 285 285 285 285 284 283 282 282 283 283 282 279 281 281 280 281 280 279 272 274 273 279 279 281 279 279 278 277 274 274 271 270 270 267 267 264 265 265 265 263 264 260
289 288 288 287 284 283 284 283 283 282 282 282 277 280 282 283 282 283 284 273 271 271 277 279 279 278 275 279 278 279 277 274 272 270 269 265 266 263 262 262 263 261 262 262
286 285 284 284 284 283 284 284 282 282 280 278 273 280 284 284 283 283 276 275 276 274 278 276 278 278 276 278 278 278 278 272 270 270 268 264 262 261 259 257 261 259 259 262
283 283 284 282 282 280 281 281 279 280 280 277 278 281 283 284 282 278 278 278 279 279 277 276 279 278 276 279 279 277 273 267 267 267 262 263 259 258 257 259 260 260 256 259
281 282 280 279 280 280 278 278 276 277 280 277 278 282 284 284 279 279 277 277 279 277 277 278 278 278 279 279 278 278 276 276 274 268 262 262 261 260 257 254 254 256 256 258
282 280 278 277 277 279 280 278 277 277 277 277 280 284 285 283 279 278 280 279 280 278 279 278 278 277 279 279 278 277 277 277 276 269 265 263 263 263 260 255 255 256 256 257
282 281 281 278 278 281 281 280 278 277 278 279 282 284 283 282 279 276 275 278 278 277 276 278 278 279 280 278 277 277 277 277 275 269 267 266 266 265 263 259 255 255 256 259
282 281 282 281 278 276 278 282 280 281 283 283 284 284 281 275 272 274 276 276 279 276 273 278 279 279 278 276 277 277 276 276 273 268 269 268 264 264 264 260 256 255 255 256
279 280 279 276 278 281 281 282 282 284 284 284 280 277 277 276 275 273 272 276 277 273 275 278 279 279 278 278 275 275 277 275 274 271 270 269 269 265 265 265 263 257 257 258
281 281 281 281 282 282 281 282 283 284 284 280 273 273 277 273 274 276 278 279 273 273 277 276 276 277 276 274 269 268 272 273 272 271 270 270 270 267 266 265 263 263 261 262
278 275 278 281 283 280 279 284 284 284 284 280 277 274 280 278 279 279 279 278 278 277 273 271 275 274 276 276 274 266 268 273 272 271 270 271 269 270 268 268 266 264 262 262

GFSNGP_sfc_thetae_021.txt.gz
Theta_e
290 291 290 290 290 291 289 290 286 289 290 293 296 296 298 299 299 300 300 300 299 298 297 298 299 298 298 297 298 298 297 297 296 295 296 295 295 295 295 295 294 294 290 287
286 289 289 287 290 290 290 291 290 291 290 297 297 299 297 298 298 298 297 297 296 296 297 296 294 294 294 295 296 297 296 296 295 295 295 295 294 295 295 295 293 289 287 286
283 285 285 283 286 288 290 291 292 287 292 295 296 295 296 297 297 295 295 295 294 295 294 292 293 293 293 295 295 294 294 295 294 293 293 293 291 289 287 287 287 286 285 285
284 283 279 289 293 293 291 292 293 292 293 295 297 298 298 298 295 294 294 294 295 293 292 293 293 293 294 295 294 293 292 292 291 289 288 288 287 287 286 286 285 284 284 284
282 281 286 290 292 291 289 290 293 292 295 297 297 297 298 296 296 295 294 295 294 293 293 292 292 294 293 294 293 290 289 288 288 287 287 286 285 285 285 285 284 284 284 283
284 280 279 288 291 297 295 285 294 296 295 295 296 289 293 293 293 293 296 295 293 293 292 292 293 294 294 293 291 288 288 288 288 286 286 285 284 284 284 284 283 283 282 282
284 281 286 292 293 295 284 288 296 297 296 296 293 293 292 294 294 295 296 293 292 292 291 292 292 292 290 290 290 288 290 288 286 286 285 284 284 284 283 283 282 281 280 281
281 281 279 292 294 289 294 296 297 297 297 295 292 291 291 292 293 294 294 291 291 290 291 292 289 288 288 288 289 289 287 286 286 285 284 283 283 283 282 282 281 280 279 280
287 287 294 294 295 298 298 295 295 295 292 289 288 290 291 291 292 293 294 292 291 290 291 291 290 289 288 289 289 287 286 285 284 284 283 283 282 281 281 281 280 279 279 278
289 294 295 297 300 299 298 294 293 293 291 292 288 290 291 292 292 293 293 290 290 291 290 289 291 290 289 287 286 285 285 284 284 283 283 283 283 282 281 281 279 278 278 278
291 295 297 297 298 295 292 291 290 290 291 290 291 291 291 292 291 291 290 290 290 290 290 289 290 289 287 287 286 285 284 283 283 283 282 282 281 281 281 281 279 279 278 278
289 297 297 294 293 292 289 289 290 290 291 293 291 290 291 289 290 289 289 290 290 290 290 289 288 286 286 286 285 284 283 282 282 282 282 281 280 280 280 279 279 279 278 278
297 299 295 292 291 291 289 290 290 290 289 287 288 289 289 288 288 288 289 289 289 289 289 287 285 285 285 284 282 282 281 281 281 279 281 280 279 279 277 279 277 277 277 277
294 294 291 292 289 291 289 289 289 288 288 287 288 288 288 287 287 287 287 288 288 288 287 285 284 283 284 284 282 279 280 276 280 281 281 280 279 278 277 276 275 276 276 275
288 290 289 289 289 289 290 289 287 287 287 286 287 286 287 286 287 286 286 286 286 286 286 284 282 282 283 283 282 281 281 282 281 280 280 278 279 278 277 276 276 275 275 275
288 288 288 287 287 288 288 287 286 286 286 286 286 285 286 285 284 284 285 285 282 283 285 280 280 282 282 283 282 282 281 281 279 281 280 279 279 277 276 276 275 274 274 272
286 284 286 285 286 286 286 286 286 286 286 285 285 283 282 283 283 284 286 285 284 282 280 280 282 282 281 282 282 282 282 281 278 280 280 279 278 277 276 275 274 274 273 272
290 289 288 287 285 285 285 286 285 285 284 285 282 280 277 279 281 284 285 284 280 278 279 281 281 281 280 282 281 281 281 280 279 279 279 279 278 277 276 274 274 273 273 273
287 285 285 285 285 285 284 284 284 284 282 281 280 280 280 280 282 285 285 281 279 279 281 281 281 281 281 281 281 282 280 280 279 279 279 276 277 277 275 275 274 274 273 272
285 285 285 285 284 282 282 282 281 282 282 281 280 279 279 281 282 284 284 281 281 283 282 281 281 281 281 281 281 281 280 279 278 279 278 278 277 276 275 271 272 273 273 273
283 284 282 281 281 281 279 280 279 280 282 280 278 279 280 281 284 284 282 280 283 281 281 280 282 282 282 282 281 281 280 280 280 280 279 278 276 276 275 274 274 273 273 273
284 282 280 280 279 280 282 281 281 279 279 279 281 282 282 284 284 283 280 282 283 279 282 283 282 281 282 282 282 281 281 281 281 281 279 279 277 276 276 275 273 274 273 273
284 283 282 280 279 282 282 281 280 279 279 282 283 283 283 284 283 281 281 282 283 282 282 283 281 282 282 283 282 282 281 281 281 281 280 279 278 277 276 275 274 273 273 273
284 283 283 283 280 279 279 283 283 283 282 284 285 285 283 282 282 282 282 277 276 279 281 282 282 282 282 283 282 281 281 281 280 280 280 276 278 277 275 275 273 274 272 269
282 282 281 279 281 283 283 283 283 283 284 285 286 283 280 282 283 283 282 282 280 281 282 279 282 281 282 282 281 280 279 280 280 279 279 279 279 277 277 275 273 273 272 272
283 283 283 282 283 283 283 283 282 283 285 284 285 283 283 283 282 280 280 281 282 280 282 283 282 282 282 281 280 278 278 278 278 278 277 278 278 278 277 275 274 273 272 272
282 277 281 282 283 284 284 283 282 283 285 285 284 284 282 284 283 282 281 282 282 282 282 281 281 280 281 281 280 278 277 277 275 275 276 277 278 277 277 276 276 275 273 271

GFSNGP_sfc_thetae_024.txt.gz
Theta_e
295 295 295 294 293 294 293 294 289 292 293 297 299 300 302 302 303 303 303 303 303 301 300 301 298 297 298 298 299 300 299 298 297 300 297 296 295 295 297 297 296 296 294 293
291 294 294 292 294 294 294 295 295 295 294 301 301 302 301 301 302 301 302 301 299 297 299 297 296 296 296 297 298 299 298 297 296 297 296 296 297 295 294 293 292 292 291 291
288 291 290 288 292 293 294 296 295 291 296 300 299 300 301 301 302 301 300 298 296 298 297 296 296 296 296 297 298 298 296 295 295 294 294 293 293 292 292 291 291 290 290 290
287 288 283 293 298 298 295 296 298 297 298 299 300 301 302 304 301 299 294 293 296 298 297 296 296 296 297 297 296 296 294 294 293 293 292 292 291 291 291 290 290 289 289 288
285 286 290 293 295 294 292 293 299 297 298 300 301 302 301 301 297 294 293 296 299 298 297 296 296 296 295 295 295 295 293 292 292 292 291 290 290 289 289 289 288 288 287 287
286 283 282 292 297 299 298 289 299 300 299 298 297 289 296 294 292 293 295 298 298 297 297 296 296 295 294 293 292 292 292 292 292 291 290 289 289 288 288 288 287 287 285 286
287 285 289 297 297 298 287 290 299 300 299 296 293 293 292 292 293 296 297 297 299 298 296 296 296 294 292 292 291 292 293 292 292 291 290 289 288 288 287 287 286 285 284 283
286 283 282 298 297 291 297 301 301 302 300 295 291 290 291 292 293 294 294 295 296 296 296 296 296 294 292 291 293 293 293 291 291 290 288 287 288 287 287 286 284 284 282 283
292 292 300 302 299 302 304 302 299 293 290 291 289 290 292 293 294 294 295 295 296 295 295 295 296 295 292 292 293 292 291 290 289 288 288 288 287 286 285 284 282 281 281 280
294 297 299 302 304 301 300 295 294 293 293 293 291 292 292 293 293 294 294 293 293 293 293 293 295 295 294 294 292 291 289 289 288 287 286 288 287 286 284 282 281 280 280 279
296 298 300 301 301 296 292 292 292 292 292 292 292 292 291 290 290 291 291 292 292 292 292 293 294 294 294 292 291 289 288 287 287 286 286 286 285 284 283 283 281 280 280 279
292 299 297 295 292 293 290 289 291 291 292 293 291 289 290 289 290 291 291 292 292 292 292 292 292 293 292 291 289 288 286 286 286 286 286 285 284 283 282 280 279 279 278 278
297 300 296 292 292 291 290 291 292 292 292 290 291 291 290 289 290 289 291 291 291 291 291 291 291 291 290 289 287 286 285 285 285 284 284 283 282 281 280 282 279 278 277 277
299 296 290 292 288 292 292 293 293 292 292 291 291 291 291 290 290 290 289 291 291 290 290 288 288 288 289 288 286 284 284 282 284 284 283 282 282 281 281 279 278 280 279 276
291 296 294 293 292 293 292 291 289 289 289 289 290 290 290 289 289 289 290 290 289 290 289 289 287 286 287 286 284 284 284 283 283 283 283 282 282 281 280 279 279 279 279 278
291 292 290 289 288 289 289 289 288 288 288 288 289 288 289 289 289 289 290 290 288 288 288 285 283 285 285 285 284 284 283 282 282 282 282 282 281 280 279 279 279 278 278 277
289 285 286 287 287 287 288 289 288 288 288 288 288 288 287 285 285 286 288 289 288 286 286 284 284 285 283 284 284 284 283 282 282 282 282 281 280 280 279 279 278 278 278 276
290 289 289 288 288 288 288 288 288 288 287 288 286 284 284 284 283 284 285 286 286 285 285 284 284 284 283 284 284 283 282 281 281 281 282 281 281 280 279 278 278 278 278 277
289 288 289 288 289 289 288 288 288 287 285 285 284 284 284 283 284 285 286 285 285 284 285 284 282 283 283 283 283 284 282 282 281 281 281 280 281 280 279 279 278 278 277 277
288 289 289 289 289 287 286 287 286 286 286 286 284 283 284 284 285 284 285 285 285 285 285 284 283 283 283 283 282 282 282 282 281 281 282 281 281 280 280 278 278 278 278 277
287 288 287 286 286 286 285 285 284 284 285 285 283 283 284 284 285 285 285 284 285 284 284 283 284 285 284 284 282 283 283 283 282 282 282 282 281 280 280 279 279 278 278 277
287 287 286 285 285 286 287 287 286 285 284 284 284 284 285 285 285 285 285 283 286 283 285 285 285 283 283 282 284 284 283 282 283 283 282 282 281 280 280 280 279 279 278 277
287 287 287 286 285 286 287 286 285 285 284 284 284 284 285 286 285 283 283 286 287 284 285 286 284 283 283 285 285 284 283 283 283 282 283 283 282 281 280 280 280 279 278 277
288 288 287 288 287 285 285 287 287 286 285 285 286 286 286 285 285 287 287 284 282 284 285 286 284 283 283 285 284 283 283 282 282 282 282 281 282 282 281 280 279 279 278 276
287 287 287 285 285 288 288 288 287 286 284 285 286 287 287 287 284 287 285 286 282 283 285 284 282 283 284 284 284 282 282 281 281 281 281 281 282 282 282 281 280 279 278 278
288 288 288 287 287 288 288 287 285 284 283 284 287 286 287 286 286 286 286 285 285 284 285 286 285 285 284 284 283 282 281 281 280 280 280 280 281 281 281 281 280 279 279 278
288 286 287 288 289 288 287 286 284 284 286 285 285 286 287 286 286 286 285 285 285 285 285 285 284 283 284 283 283 282 281 281 280 279 279 279 279 279 280 280 281 280 279 278

GFSNGP_sfc_thetae_027.txt.gz
Theta_e
297 297 297 296 295 296 294 295 291 294 295 298 301 302 303 304 305 305 305 304 304 304 304 302 301 299 299 298 299 300 299 299 298 298 298 299 298 297 297 297 295 294 293 293
293 296 296 293 295 296 296 296 296 295 294 301 303 304 303 304 303 303 302 304 303 301 299 299 298 298 298 298 298 300 299 298 297 296 295 295 296 295 294 293 293 293 292 291
290 294 293 290 294 295 296 297 296 292 297 302 301 301 302 301 301 302 301 301 297 296 298 299 299 298 296 297 298 298 297 297 295 295 294 294 294 293 293 292 292 291 291 290
289 289 284 295 300 299 297 298 299 299 300 301 301 303 304 303 299 299 298 295 294 297 299 299 298 298 298 297 297 297 296 296 295 294 293 293 292 291 291 291 290 290 289 289
287 288 291 294 297 296 295 294 300 299 301 301 301 302 301 301 300 296 294 294 297 300 299 299 299 299 297 296 295 295 294 294 293 293 292 291 291 290 290 290 289 289 288 288
288 284 283 294 299 301 300 290 301 302 300 300 301 294 294 293 294 295 297 299 298 298 299 299 299 299 297 295 294 293 293 293 293 292 291 291 290 289 290 289 288 288 287 286
288 286 291 298 300 301 288 292 302 302 299 296 294 293 295 294 293 298 298 297 298 298 298 298 299 298 296 295 294 294 294 294 293 292 291 291 290 290 289 288 288 287 285 286
289 285 283 300 299 293 299 304 301 300 297 294 295 293 292 295 296 296 296 296 297 296 296 296 297 296 294 294 295 295 295 293 292 291 291 289 289 289 288 287 286 286 285 285
294 294 302 303 301 304 305 301 299 294 294 294 294 295 294 294 295 294 294 294 295 294 293 294 295 295 293 295 296 295 293 292 291 291 290 289 288 288 286 286 285 283 282 282
296 299 299 301 304 303 301 298 296 296 296 295 293 294 294 293 292 292 292 292 293 292 292 292 293 293 293 294 295 294 291 291 290 289 288 288 288 287 285 285 282 281 281 280
297 300 301 300 298 297 295 294 293 294 294 294 294 293 292 291 291 291 291 291 292 291 292 292 292 292 293 293 294 291 290 289 289 288 288 287 287 286 285 285 283 281 280 279
293 299 298 295 295 294 292 293 293 293 294 294 294 292 292 291 292 292 291 291 291 291 291 291 292 291 292 293 292 290 287 287 287 287 286 286 285 285 285 282 280 280 279 278
300 298 295 294 293 293 293 294 294 294 293 291 292 292 291 291 291 290 291 291 291 291 291 291 291 290 292 291 289 287 286 286 286 285 285 284 284 283 281 283 282 281 279 278
299 297 290 291 293 295 295 295 294 293 293 292 292 291 291 290 291 291 290 291 292 291 291 290 290 290 291 290 288 287 286 284 285 285 284 283 283 282 281 281 280 281 280 278
296 298 298 297 295 295 294 293 291 290 291 290 291 290 290 290 289 290 291 291 291 291 291 291 289 288 289 288 286 286 285 284 284 284 284 283 283 283 282 281 280 280 281 280
295 295 293 291 290 291 291 291 289 289 289 289 290 289 290 290 289 289 290 290 287 287 288 287 286 287 287 286 285 285 285 283 283 283 283 283 283 282 281 281 280 280 280 280
293 289 289 288 289 289 289 290 290 289 289 289 289 289 287 287 286 287 287 287 287 286 287 286 285 287 286 286 285 286 284 284 283 283 282 283 282 281 281 281 279 280 280 279
292 291 291 290 289 289 290 290 290 289 288 289 287 286 285 285 285 285 286 286 286 286 287 287 285 285 285 285 285 285 283 282 282 282 282 282 282 281 281 280 280 279 280 280
291 290 290 290 291 290 290 289 289 289 287 287 286 285 285 285 286 287 287 285 285 285 286 285 283 283 284 284 283 284 284 283 282 282 283 282 282 282 282 282 281 280 280 279
289 290 290 290 290 289 288 289 288 288 289 288 286 285 285 285 286 285 286 285 286 287 286 285 284 284 284 284 282 283 283 283 282 283 283 283 283 283 282 281 281 280 280 279
289 289 289 289 289 289 287 287 286 286 288 286 285 284 284 284 286 286 285 285 286 285 285 284 285 286 285 284 283 285 284 283 283 283 283 283 283 283 282 282 282 281 280 279
289 289 288 288 288 288 289 289 289 287 286 285 285 284 284 285 287 287 287 285 287 284 286 286 285 285 284 283 284 285 284 284 283 284 283 283 283 282 282 282 282 281 281 280
289 288 289 289 287 289 290 288 286 286 285 286 285 284 284 286 287 284 283 287 287 286 286 287 286 283 283 285 285 285 284 284 283 283 283 284 284 283 283 282 282 281 281 280
289 289 289 290 289 288 286 289 290 290 287 287 286 286 286 285 287 289 288 286 284 284 285 286 285 283 283 285 285 284 284 284 283 283 282 282 283 284 283 283 282 281 281 280
289 289 289 288 288 289 289 290 290 289 288 286 285 287 288 288 286 287 287 287 285 285 286 285 284 283 284 284 284 284 284 284 283 282 281 281 281 282 283 283 283 282 281 280
289 289 290 290 290 290 290 290 287 287 286 285 288 288 287 288 288 288 287 286 286 286 286 286 285 285 284 285 285 284 284 283 282 281 280 280 280 280 281 281 282 283 281 281
290 288 290 290 291 290 290 287 286 285 286 286 286 287 287 287 286 286 286 286 285 285 285 285 285 285 285 285 284 284 284 283 282 281 280 280 280 279 280 280 281 282 283 281

GFSNGP_sfc_thetae_030.txt.gz
Theta_e
297 297 296 294 294 294 293 294 289 293 293 297 300 301 302 303 304 303 303 304 303 302 302 301 301 300 300 299 298 299 298 298 297 297 296 296 296 296 295 294 294 293 292 291
293 296 295 292 293 295 295 295 295 295 294 301 303 303 302 302 302 302 302 302 302 300 299 299 299 299 299 298 297 298 297 297 297 296 296 296 295 294 294 293 292 291 289 289
290 294 292 289 294 295 295 297 296 292 297 301 299 300 301 301 301 300 299 299 298 298 298 299 300 299 297 297 297 297 296 296 297 296 295 294 294 293 291 291 290 288 288 288
288 289 283 294 299 298 296 297 298 298 299 300 300 301 301 300 299 298 297 297 297 297 298 300 299 298 298 299 297 296 295 294 295 294 293 293 293 291 290 288 287 286 286 287
287 287 291 294 297 296 294 293 299 299 300 300 301 301 298 299 298 297 297 297 298 299 299 297 298 299 298 297 296 295 294 294 293 293 292 292 290 290 288 287 286 286 286 285
289 283 282 294 299 302 300 289 301 300 299 297 298 291 294 297 298 296 297 298 297 297 297 297 297 297 295 295 295 295 295 294 294 293 292 291 290 288 287 287 286 286 284 284
288 285 289 298 300 301 287 291 301 299 297 295 293 294 297 297 296 297 297 296 296 295 294 294 294 294 293 292 292 294 296 295 294 294 292 291 289 288 287 285 284 283 283 283
288 285 283 301 300 292 299 303 301 299 297 295 296 295 296 296 295 295 293 294 294 292 292 293 293 293 291 291 292 295 295 294 293 292 291 290 288 287 286 284 283 280 279 280
293 292 302 304 302 304 303 299 298 297 297 295 294 293 294 293 293 293 292 292 292 291 291 292 293 293 290 291 293 293 293 293 292 291 290 289 286 285 283 283 281 279 280 279
298 299 300 302 302 301 300 297 297 296 296 295 293 294 293 292 292 291 292 291 292 291 290 290 292 292 291 292 292 292 291 291 290 288 288 287 287 285 282 281 280 281 280 277
297 300 302 300 299 298 296 296 295 295 294 294 293 292 291 291 290 291 291 291 291 290 290 290 291 291 292 292 292 290 289 288 287 287 286 285 284 283 282 282 280 278 277 276
294 301 300 298 296 296 295 294 294 293 293 293 292 291 291 290 290 290 290 290 290 291 291 291 291 291 291 292 291 288 286 286 286 285 284 283 282 283 284 283 282 282 281 277
301 301 300 297 296 297 295 294 295 294 293 291 292 291 290 289 290 289 290 290 290 290 290 291 291 290 291 289 288 286 284 284 284 284 283 283 282 282 281 283 284 283 282 281
300 298 293 294 295 296 296 295 294 293 292 292 291 291 290 289 290 289 289 290 290 290 289 289 290 290 290 289 287 286 284 283 283 284 283 282 282 281 281 280 279 280 282 281
299 299 299 298 297 295 294 292 290 290 290 290 290 289 289 288 288 288 289 289 288 287 287 287 286 287 288 286 285 284 284 284 284 283 283 283 282 282 282 281 280 280 280 278
297 296 295 293 291 291 291 290 289 289 289 289 289 288 289 288 288 288 288 287 285 284 285 285 285 286 286 285 284 284 285 282 282 282 282 282 282 281 281 280 280 279 279 278
293 290 290 289 289 289 289 290 290 289 289 288 288 287 286 286 285 286 286 286 285 285 285 286 286 286 285 285 284 283 284 283 281 281 282 282 282 281 281 280 279 279 279 275
294 293 292 290 289 289 290 291 290 289 288 288 285 282 282 281 283 284 284 285 285 284 285 286 283 284 284 285 284 283 282 282 282 282 282 281 281 281 280 280 280 279 279 277
292 290 290 290 290 290 290 289 288 288 284 284 283 284 284 283 284 284 285 284 284 284 284 284 283 282 284 284 282 282 283 282 282 282 282 282 282 281 281 281 281 279 278 278
290 290 290 289 289 288 287 288 286 287 287 286 282 284 283 284 284 284 284 284 285 285 285 284 283 283 283 283 282 282 282 282 281 282 282 282 282 282 282 281 280 280 280 279
290 290 288 287 287 286 285 285 283 285 286 283 283 284 284 284 284 285 284 284 285 284 284 284 282 284 284 283 283 283 283 283 283 282 282 282 282 281 282 282 281 281 280 280
290 287 285 285 286 287 287 287 288 285 285 284 283 285 284 283 283 284 286 284 286 285 285 285 285 285 284 280 282 283 283 283 282 283 282 282 282 282 281 282 281 281 281 278
289 288 287 285 285 288 289 287 286 286 285 285 285 285 284 284 284 284 284 286 286 286 285 285 285 284 283 282 282 282 282 281 282 282 282 282 282 281 281 281 281 279 276 279
289 288 288 288 287 286 286 288 288 288 286 285 285 286 284 284 285 287 288 287 286 285 285 285 284 282 279 283 282 282 282 283 283 282 282 282 281 281 281 282 282 282 277 279
287 288 288 286 286 287 289 289 288 288 286 286 286 285 286 287 286 286 286 287 286 285 285 285 283 283 283 283 283 282 283 283 283 282 281 280 280 280 280 280 281 281 281 278
288 288 289 289 289 290 289 289 288 287 286 285 286 286 286 287 287 287 286 286 286 286 285 285 285 285 284 283 283 283 283 283 282 282 281 280 280 279 279 280 280 280 281 280
289 287 289 289 290 290 290 288 285 284 285 284 283 285 285 286 286 285 285 286 285 285 285 285 285 285 285 284 283 283 283 283 282 281 280 279 279 279 279 279 279 279 279 281

GFSNGP_sfc_thetae_033.txt.gz
Theta_e
294 294 293 291 291 290 288 289 283 287 290 294 297 296 298 300 300 300 300 299 298 296 295 295 296 296 296 294 294 294 293 293 293 293 293 292 292 292 292 291 290 290 289 288
286 294 293 289 291 292 292 292 291 291 290 297 298 299 298 298 298 297 297 296 296 296 295 295 296 297 295 294 294 294 293 292 293 293 292 292 291 290 290 289 290 288 287 286
281 289 286 281 289 291 292 293 292 286 292 296 296 295 295 295 296 295 294 295 294 294 294 296 296 298 294 293 294 294 293 294 294 293 293 291 291 291 289 287 285 286 285 284
277 282 272 291 296 296 294 294 295 296 296 296 296 295 295 295 293 294 294 294 294 294 295 296 296 295 293 294 294 294 294 293 293 292 292 292 292 290 287 285 284 284 283 283
280 279 285 290 295 293 291 290 297 295 296 296 296 295 292 296 295 293 293 293 294 296 296 293 290 290 290 290 290 291 292 292 292 293 292 292 290 287 285 285 283 283 283 282
275 272 272 287 296 298 296 282 297 296 294 293 293 284 288 294 294 294 294 295 295 290 289 289 288 289 289 288 288 289 291 292 293 293 292 289 290 287 285 284 284 283 282 282
275 273 282 294 298 299 281 284 296 296 294 291 288 289 292 294 293 295 294 290 289 288 287 287 288 289 288 287 287 290 291 292 292 291 291 291 287 285 285 282 281 280 279 280
283 278 276 298 298 287 292 296 296 294 294 292 291 292 293 293 292 290 288 288 288 286 286 287 287 289 286 286 289 290 290 291 291 290 291 289 284 284 282 281 279 273 270 273
286 284 294 298 297 298 298 295 295 295 295 293 292 290 292 290 288 288 288 287 288 286 287 288 288 288 287 287 288 289 289 288 288 289 288 286 283 281 280 279 276 274 274 272
290 295 296 297 297 298 297 294 295 295 295 295 291 291 288 287 286 286 286 286 287 287 287 287 289 289 287 289 290 288 287 287 287 285 285 283 283 282 277 275 274 277 274 270
290 294 296 296 296 295 295 295 294 296 294 291 289 288 287 286 286 285 286 287 287 287 287 288 289 289 289 289 289 286 285 286 285 283 283 281 281 279 279 278 277 273 273 271
285 296 295 293 294 295 292 292 294 292 291 290 288 287 286 285 285 286 286 287 287 287 287 287 288 288 289 289 287 285 283 284 283 281 280 278 277 278 283 282 282 283 283 275
297 296 295 294 294 295 296 295 293 291 290 287 288 287 286 285 286 286 287 287 287 287 286 286 286 286 288 286 286 284 282 282 279 280 278 277 277 277 275 279 284 284 284 283
296 294 290 291 292 297 296 295 292 290 289 288 287 287 287 286 286 286 285 287 287 286 285 285 285 284 287 287 284 282 282 283 282 282 281 280 279 280 279 276 273 273 280 280
295 297 295 296 296 295 295 290 288 287 287 286 287 286 286 285 284 285 286 286 285 284 284 284 284 284 287 285 284 283 283 282 281 280 280 280 280 279 277 278 276 276 274 274
297 298 296 295 290 289 288 288 286 286 286 286 285 284 285 285 284 285 285 284 282 282 283 283 284 285 285 284 283 283 280 279 280 280 279 279 279 275 277 277 276 273 273 270
292 290 289 288 287 287 287 287 287 285 285 284 284 283 283 282 281 282 282 282 279 281 283 282 284 286 284 284 283 282 278 280 279 279 279 279 275 277 276 275 276 273 269 270
293 290 289 288 287 286 286 286 284 284 283 284 280 274 272 272 278 280 282 283 284 284 283 283 279 282 283 283 281 280 277 276 280 279 280 279 278 278 274 270 270 273 274 270
290 288 288 288 288 285 284 283 284 283 279 278 275 276 274 275 282 283 283 283 280 282 284 282 284 280 281 280 279 279 272 276 279 279 279 277 279 278 277 270 273 273 270 269
288 289 288 287 286 283 283 283 279 282 283 279 274 273 276 282 284 283 283 282 283 283 282 282 283 279 279 280 278 277 276 275 278 279 273 277 277 274 273 273 272 271 269 270
285 285 283 283 282 280 279 280 277 280 283 277 276 278 277 283 283 284 282 281 284 280 281 282 282 280 281 278 277 276 275 272 274 280 279 278 279 279 278 274 275 273 276 270
284 282 279 278 280 282 282 283 283 280 279 278 276 276 279 284 283 283 279 280 284 284 283 283 283 283 283 282 281 274 273 270 273 277 278 278 278 271 269 272 277 277 272 270
284 284 284 280 279 283 284 281 280 280 278 277 282 284 284 284 283 280 280 283 285 285 283 284 284 284 283 283 279 274 273 271 273 275 278 279 279 278 270 270 276 278 271 271
285 285 285 285 281 280 281 285 284 284 280 281 284 285 284 284 282 281 284 286 285 285 285 285 284 283 282 278 278 279 276 274 274 276 277 279 279 276 272 270 274 276 278 276
284 284 284 280 282 283 284 285 283 282 283 283 283 284 282 283 284 285 285 286 285 284 285 285 284 282 282 281 281 280 279 277 278 281 280 278 278 278 278 276 274 272 271 273
284 283 283 285 284 284 284 282 279 282 282 282 282 282 283 282 284 283 285 285 285 285 285 285 285 285 284 284 284 283 281 280 280 280 278 278 276 275 275 275 276 276 277 274
284 281 283 283 283 283 282 282 282 281 282 282 282 283 283 283 284 284 283 283 284 285 285 285 285 285 285 285 284 283 282 282 281 280 279 277 275 274 273 275 275 276 276 275

GFSNGP_sfc_thetae_036.txt.gz
Theta_e
291 291 291 289 288 288 286 286 282 285 287 291 294 294 295 297 298 297 296 295 295 294 293 294 294 295 296 294 294 293 292 291 291 291 291 292 291 291 293 292 291 290 287 286
284 291 290 286 288 290 290 289 289 289 289 295 296 296 296 296 296 294 294 294 294 294 294 294 295 295 295 295 293 293 292 292 293 292 292 291 292 291 292 291 291 287 285 285
279 286 284 280 287 289 290 291 290 285 290 294 293 294 293 293 293 293 292 293 293 293 293 293 293 294 291 291 292 292 292 293 292 292 291 290 290 290 291 289 287 285 285 284
276 278 271 287 294 294 292 293 294 293 294 294 293 293 293 293 291 292 292 292 292 292 293 293 292 290 289 289 289 288 291 291 291 291 290 290 290 289 287 287 285 284 282 282
273 277 282 288 293 292 289 289 295 294 294 294 294 292 290 294 294 292 291 292 292 293 293 289 287 287 287 287 286 289 289 290 291 291 290 290 290 289 289 287 283 282 283 281
280 271 270 284 294 297 294 283 296 295 293 292 291 282 286 292 293 292 292 293 291 289 286 285 286 286 286 285 286 287 289 289 290 291 290 289 288 287 287 283 283 282 282 281
273 270 280 289 295 296 281 284 295 295 293 291 288 288 291 291 291 292 291 286 287 285 285 285 286 286 285 285 286 288 289 289 291 290 289 291 288 285 282 282 281 280 278 279
277 271 276 295 295 287 290 294 294 293 293 291 291 291 292 292 288 286 285 286 286 285 285 286 286 286 285 284 286 288 288 288 288 287 288 288 283 282 282 281 279 272 268 272
285 284 291 296 294 296 297 293 293 293 293 293 291 290 290 286 285 285 285 284 286 284 285 286 287 287 285 287 287 288 287 287 286 286 286 285 282 280 280 279 275 273 272 271
288 293 295 295 296 296 296 294 295 296 295 294 290 288 285 285 284 284 284 285 285 285 285 285 287 287 287 288 288 287 286 285 284 286 283 283 282 282 278 274 273 277 273 270
288 293 294 295 294 294 294 295 295 295 294 291 288 285 285 284 284 284 284 285 285 285 285 285 286 286 287 288 289 287 286 284 283 284 283 282 281 278 279 278 276 272 272 271
286 294 293 292 293 294 294 293 294 293 291 287 286 285 284 284 284 284 284 285 284 285 285 285 285 285 286 288 288 286 284 282 283 281 279 279 278 279 282 282 282 284 283 274
295 296 294 293 294 296 294 294 295 290 288 286 285 285 285 284 284 285 285 284 284 284 285 284 284 284 285 285 285 284 283 283 282 281 280 280 280 280 272 277 282 282 283 283
295 294 290 291 292 297 296 293 290 288 287 286 286 286 285 285 284 284 283 284 285 284 283 283 284 284 285 285 285 283 283 283 282 281 279 278 278 279 278 272 269 271 278 280
294 295 294 295 296 295 293 289 287 286 286 286 286 284 285 284 283 283 284 284 283 283 283 283 283 283 286 286 284 283 283 281 280 278 279 278 279 278 273 277 276 275 271 272
296 296 296 295 292 289 287 287 286 285 285 284 283 283 284 283 282 283 283 282 282 281 282 282 282 284 286 283 283 282 282 279 279 279 278 278 278 272 276 277 277 276 268 268
293 289 288 286 287 287 287 287 285 284 284 283 283 282 282 280 280 281 282 283 282 282 283 283 283 284 284 284 283 282 281 280 279 279 277 278 277 271 273 274 274 271 270 268
291 289 289 288 286 286 285 285 283 283 283 283 278 271 270 271 278 279 281 282 283 281 282 284 282 283 281 283 282 278 274 274 275 275 278 277 276 277 277 269 271 272 272 268
289 288 287 287 286 284 283 282 283 282 277 275 273 274 273 274 279 282 282 282 282 281 282 283 283 282 281 280 278 274 271 270 273 277 277 274 276 276 272 274 272 273 272 271
288 288 286 285 285 283 282 283 278 281 283 278 271 270 275 277 281 283 282 282 281 281 284 282 283 282 281 279 280 280 275 272 272 273 277 274 276 270 270 269 270 271 269 269
284 285 283 283 281 279 277 278 275 279 282 275 273 277 276 276 281 284 282 281 281 278 280 281 280 282 282 282 281 279 278 274 273 272 274 278 275 275 274 272 272 273 274 270
284 281 278 277 278 281 281 281 282 279 278 277 274 271 279 280 279 281 281 280 282 277 284 284 283 283 283 281 282 281 280 276 275 272 271 273 277 274 271 267 267 270 272 270
283 283 283 278 277 282 283 281 279 278 278 277 274 279 280 282 281 281 280 281 282 285 285 284 285 285 283 283 284 282 279 277 276 274 272 273 277 277 273 270 270 270 270 274
284 284 284 284 280 279 280 284 283 283 279 278 279 282 283 277 276 278 280 282 282 281 285 285 284 285 284 284 281 281 281 279 277 277 276 274 278 279 274 273 271 272 272 273
283 283 283 280 281 283 283 284 283 282 280 280 280 281 280 280 277 279 278 279 282 283 284 285 285 285 285 284 282 281 280 280 280 279 279 279 280 278 277 275 274 273 272 273
283 283 283 284 283 284 283 281 280 279 277 276 275 276 275 277 281 281 278 278 277 282 282 283 283 285 284 284 284 283 282 282 281 281 280 281 280 279 277 275 274 273 274 274
283 279 282 283 283 282 281 280 277 278 277 275 276 275 276 276 278 281 275 276 276 274 277 280 280 281 282 283 284 284 284 284 283 282 282 281 280 279 277 275 275 276 275 273

GFSNGP_sfc_thetae_042.txt.gz
Theta_e
287 287 287 285 285 286 285 284 282 282 284 287 291 292 293 294 294 293 292 292 292 292 293 293 292 292 290 289 289 289 288 288 288 288 288 289 289 289 288 288 288 288 288 289
285 287 286 284 286 286 285 284 285 285 285 292 293 294 293 293 293 292 291 291 291 291 291 290 290 289 287 287 287 287 286 288 289 289 289 288 288 287 287 287 287 289 288 286
279 282 281 277 284 286 286 287 287 284 288 292 291 292 292 291 291 290 290 291 291 290 290 289 287 287 285 285 286 286 286 288 289 289 288 288 288 287 286 285 285 284 283 283
274 276 270 283 288 289 288 289 290 289 290 292 292 292 293 292 290 290 291 291 289 289 287 286 284 284 284 285 284 285 287 287 288 287 287 287 287 287 286 287 287 286 282 280
273 275 280 284 289 288 287 286 292 290 291 292 291 291 290 292 291 289 290 290 290 288 285 283 283 284 284 284 284 284 285 286 286 286 287 286 286 286 286 287 286 283 281 280
273 270 270 282 289 293 291 282 292 292 291 290 290 283 289 291 292 291 291 289 284 283 283 283 283 284 284 283 283 283 284 285 286 287 286 285 285 286 284 281 281 281 281 281
269 269 279 285 291 292 282 283 292 293 292 289 288 289 290 292 292 290 285 284 284 284 283 283 284 284 283 282 282 284 286 285 286 288 286 285 284 283 281 281 282 280 278 279
275 269 276 290 291 286 289 289 292 292 292 291 289 290 291 290 286 285 284 284 284 283 282 283 284 284 282 281 283 285 285 285 286 286 286 285 282 284 283 282 279 273 271 273
283 282 289 291 290 292 292 292 291 292 291 292 291 292 290 286 284 284 284 283 284 283 283 284 284 283 282 282 284 284 285 285 285 286 284 282 282 280 280 280 277 275 272 270
285 288 289 291 293 294 294 293 293 294 293 293 291 290 286 283 283 283 284 283 284 283 282 282 283 283 282 283 284 284 284 283 283 285 282 283 283 282 279 275 273 275 272 270
286 290 291 294 294 293 293 293 294 294 293 292 290 286 285 283 283 283 283 283 283 282 282 282 283 283 283 283 285 283 283 284 282 282 280 281 281 279 280 279 277 274 274 271
285 291 291 291 292 293 292 292 294 292 289 288 288 284 284 283 284 284 283 282 282 282 282 282 282 282 282 285 285 283 283 282 282 280 278 277 277 278 283 282 281 283 283 276
291 292 292 289 290 292 293 293 293 288 288 286 285 285 285 284 284 284 282 282 282 282 281 281 282 283 285 284 284 283 283 282 281 280 278 276 275 276 274 279 282 283 283 283
292 292 288 289 290 294 293 290 289 287 287 286 286 285 285 284 284 282 282 282 282 281 280 282 283 282 283 285 284 284 283 281 279 279 278 276 273 273 275 273 270 275 278 279
291 292 293 293 290 287 288 287 286 285 286 285 285 283 284 283 282 282 282 282 282 281 281 282 282 282 282 284 284 283 283 281 278 275 272 274 273 274 273 272 273 275 270 272
291 291 290 286 286 287 287 288 286 285 285 284 283 283 283 283 282 282 282 282 280 279 282 282 280 282 283 284 283 283 282 281 280 277 275 273 276 272 272 273 274 275 270 269
286 284 286 287 288 289 288 287 285 284 284 283 283 282 282 280 278 281 282 281 278 278 279 279 279 281 283 283 282 282 282 281 277 274 273 274 272 272 272 270 271 272 270 269
291 291 291 290 288 286 284 284 283 283 282 283 280 275 272 272 277 278 278 278 276 276 279 281 279 281 281 284 283 280 279 278 275 273 273 270 272 272 270 270 270 269 270 269
293 291 290 287 285 284 282 282 282 282 279 278 274 276 275 274 276 278 277 272 274 276 281 279 280 280 282 283 282 280 276 275 276 277 276 274 272 272 271 269 269 269 270 270
286 286 285 284 283 283 282 283 280 281 282 277 273 273 276 277 275 273 271 274 279 281 281 279 279 279 280 282 281 281 280 279 278 277 276 274 275 275 274 274 272 269 269 270
283 283 282 282 281 279 277 276 274 278 281 275 274 277 277 277 273 270 271 277 279 277 278 276 279 282 283 282 282 282 281 281 279 279 278 277 276 276 276 275 273 272 272 273
283 280 277 277 278 280 280 280 280 277 277 277 276 274 273 275 275 281 275 278 281 276 275 280 282 283 283 283 283 283 282 281 281 280 279 278 278 277 276 276 275 275 274 274
283 283 282 278 276 281 281 279 278 276 276 277 277 277 276 279 278 278 281 279 278 273 277 282 282 282 282 282 283 283 283 282 282 281 280 279 279 278 278 277 277 276 275 274
283 283 283 283 278 279 280 283 282 282 279 279 279 279 279 279 282 282 280 275 270 272 277 273 272 272 271 276 278 279 280 282 282 282 281 279 280 280 279 278 278 278 277 274
282 282 282 279 280 280 281 281 280 279 280 280 281 281 281 281 282 280 278 271 272 278 269 267 267 267 269 271 271 271 273 274 276 278 280 281 280 279 279 279 279 279 277 276
280 279 279 280 279 278 277 277 277 278 279 279 280 281 282 281 282 279 276 279 276 269 268 265 265 268 268 269 269 269 269 269 268 268 270 274 278 280 280 280 280 279 277 276
277 275 276 276 276 275 275 275 275 275 277 278 278 281 282 282 280 277 278 274 272 266 262 261 262 264 266 264 264 265 265 265 265 265 267 267 268 269 270 273 275 276 275 275

GFSNGP_sfc_thetae_045.txt.gz
Theta_e
290 290 290 289 289 290 289 289 288 289 288 292 296 297 297 298 297 296 296 296 295 295 296 296 295 294 293 293 293 293 293 293 295 295 295 295 295 295 295 294 294 294 293 291
288 289 288 288 289 289 289 288 289 288 288 294 296 298 297 297 296 295 295 295 295 295 294 293 292 291 291 291 292 292 292 292 294 295 294 294 294 294 294 293 292 292 290 289
284 285 284 284 288 290 289 290 291 288 293 296 295 296 297 297 296 295 294 294 293 294 292 292 291 290 290 290 291 291 291 292 293 293 292 292 293 293 292 292 291 290 290 289
283 280 279 289 292 291 291 291 292 293 294 296 297 297 299 299 297 295 294 294 294 293 292 290 290 290 290 290 290 290 290 290 291 291 291 292 292 292 292 292 292 291 290 287
283 281 284 287 289 291 290 290 295 294 294 294 295 296 296 297 297 296 295 295 294 292 290 289 289 289 289 289 289 288 288 288 289 290 291 291 290 290 291 290 289 288 287 286
280 281 278 287 291 296 295 288 294 296 294 293 295 293 297 297 296 294 295 294 290 289 288 289 288 289 288 288 287 287 288 289 290 291 290 289 289 289 290 288 286 287 285 285
277 282 284 289 293 296 286 289 295 297 296 294 295 297 295 296 294 295 291 288 288 289 288 288 288 289 287 287 286 287 289 289 290 291 290 290 289 288 288 286 286 285 284 284
279 280 282 292 295 291 296 295 296 297 296 296 294 293 294 293 290 287 287 287 288 288 287 288 288 288 287 286 287 288 289 288 287 287 286 288 288 287 286 286 285 282 282 283
287 288 294 294 296 297 296 296 297 297 297 296 294 293 292 288 286 286 287 287 287 287 286 287 288 288 286 287 287 287 287 286 287 287 287 287 286 286 285 285 284 283 282 282
289 293 292 294 296 298 299 297 298 297 297 297 295 293 288 286 285 286 287 287 287 286 285 286 286 287 287 287 287 286 284 286 287 286 286 286 286 285 285 284 283 282 281 282
290 293 293 295 297 297 297 297 296 297 297 295 292 288 287 285 285 287 286 286 286 285 285 285 286 286 287 287 287 285 284 283 284 285 285 285 285 285 284 284 284 282 282 282
289 294 294 294 295 296 296 295 296 294 290 291 290 287 286 285 287 286 286 285 285 285 285 285 285 285 285 287 286 284 283 283 284 283 285 284 284 283 284 284 282 283 283 283
295 297 296 295 295 296 296 295 292 291 289 287 287 287 287 286 286 286 285 285 285 285 285 285 284 285 286 286 286 285 283 284 284 282 284 283 283 282 281 283 283 283 283 283
295 296 295 295 294 293 291 290 289 288 288 288 288 287 287 286 286 285 285 286 285 285 284 284 284 285 286 287 286 285 284 283 284 284 284 284 282 283 282 281 280 281 283 281
293 295 293 290 289 288 288 289 289 289 289 287 287 286 286 285 285 285 286 286 285 285 285 285 285 285 287 286 285 284 284 284 284 284 284 282 283 282 281 281 280 281 282 281
288 289 288 288 288 290 290 290 289 289 288 286 286 285 286 286 286 285 286 285 283 284 286 283 282 285 286 286 285 285 284 284 284 283 283 283 282 282 281 281 280 280 280 281
287 286 288 288 289 289 289 290 289 286 286 286 285 285 285 283 282 283 285 285 283 281 282 282 283 286 285 285 285 285 284 284 283 283 282 282 282 281 281 281 280 280 281 282
291 291 291 291 289 288 286 286 285 285 284 285 282 280 278 278 281 282 282 282 281 280 282 284 284 284 284 285 285 285 285 284 284 283 283 282 281 281 281 281 280 280 281 281
292 291 290 288 287 286 284 284 284 284 281 281 280 281 280 279 280 282 282 279 278 280 284 284 283 283 283 284 283 284 283 282 281 281 282 281 281 281 281 281 280 280 280 280
286 286 286 285 285 284 283 284 281 283 284 281 279 278 280 281 281 279 278 279 283 285 285 284 283 282 283 284 283 283 283 282 282 283 282 282 282 282 282 281 281 281 281 280
285 285 283 283 283 281 279 279 278 282 283 278 278 279 280 281 281 278 278 279 285 283 283 280 282 284 284 284 283 284 284 283 283 283 283 283 282 282 281 282 282 282 281 281
285 282 280 279 280 282 283 283 282 279 279 279 278 277 278 280 281 281 281 282 286 283 282 283 284 283 283 283 283 283 283 283 283 284 283 283 283 282 282 282 281 281 281 281
284 284 283 280 280 282 282 282 280 281 279 280 279 280 281 282 283 281 282 287 283 282 281 282 283 281 274 279 280 280 279 279 280 281 282 283 283 283 283 282 282 282 282 281
284 283 282 282 280 279 278 279 279 280 279 279 280 280 280 280 281 284 285 284 283 281 281 281 277 273 272 276 275 275 275 275 276 276 277 278 280 282 283 283 282 283 282 282
280 280 279 278 277 276 276 276 277 277 278 278 279 280 280 282 281 283 284 284 282 279 281 273 272 271 273 273 272 272 271 271 269 270 270 271 272 272 273 277 282 283 283 282
278 277 277 277 276 275 274 273 273 274 274 273 274 277 278 279 281 282 284 282 281 278 276 273 272 271 270 269 268 268 268 268 267 267 267 268 269 269 270 271 272 274 278 280
275 274 274 274 273 272 271 270 270 270 271 271 271 273 274 276 278 279 280 279 275 272 271 270 269 268 268 267 267 266 266 266 264 264 265 265 266 267 267 268 269 270 270 271

GFSNGP_sfc_thetae_048.txt.gz
Theta_e
295 295 295 296 296 297 295 296 292 294 293 297 300 303 305 307 306 304 304 303 303 302 301 301 300 298 297 297 298 297 296 295 296 298 298 297 297 297 297 297 297 296 295 294
293 294 294 292 295 296 297 297 296 296 295 301 302 303 304 304 304 302 303 302 302 301 300 299 297 297 295 296 297 296 295 294 295 296 296 297 296 296 296 296 296 296 294 294
290 291 291 290 295 296 296 298 297 294 298 301 300 301 303 304 303 303 302 301 300 299 297 296 296 295 295 296 296 294 293 293 293 294 294 295 295 295 295 295 294 293 293 293
291 287 285 294 297 297 297 299 300 298 299 301 302 304 306 307 305 303 303 301 299 298 296 296 296 295 295 295 294 292 292 292 292 293 293 294 295 294 294 293 293 291 290 292
291 287 291 293 293 293 293 294 299 299 299 301 302 303 303 306 306 305 303 302 300 299 297 295 295 295 294 293 292 291 290 291 292 293 293 294 293 294 294 291 291 291 290 291
288 289 287 292 296 300 299 291 300 301 301 301 302 298 299 305 305 304 302 301 298 295 293 294 294 294 292 291 290 290 290 291 292 293 293 293 293 293 292 291 290 291 290 290
290 290 292 296 298 300 289 292 301 302 303 302 301 303 302 306 303 301 300 296 292 292 292 293 293 292 290 290 290 290 291 292 292 292 291 291 289 291 291 290 288 288 287 288
288 288 286 298 298 294 300 302 302 303 304 304 303 300 302 302 300 297 293 290 291 291 291 292 292 291 290 290 291 291 291 291 291 291 290 290 289 291 290 289 286 286 286 286
295 296 299 301 303 304 302 301 303 303 304 304 301 300 300 298 295 290 289 290 291 291 290 291 291 290 289 290 291 291 290 290 290 291 290 290 289 288 286 287 286 286 285 285
295 298 299 301 303 303 304 303 304 304 305 304 302 300 296 291 288 288 288 289 290 290 289 288 290 290 291 291 291 290 289 288 286 286 288 289 288 287 286 285 284 283 283 283
296 300 300 301 302 303 303 302 302 302 303 303 302 296 290 287 287 288 288 289 290 289 288 288 290 290 291 290 290 289 288 287 286 285 285 286 287 287 286 287 286 284 283 284
297 298 299 299 301 302 302 301 302 300 298 298 294 290 288 287 288 289 290 290 289 289 289 289 289 289 289 290 290 289 287 287 286 285 285 285 284 285 285 284 284 284 284 284
299 301 301 301 301 302 301 300 298 296 293 291 290 288 288 288 289 290 290 288 288 288 289 288 288 288 290 290 289 288 287 287 286 285 284 284 284 284 283 285 284 284 284 284
301 301 299 299 296 298 297 294 293 293 292 291 290 290 291 291 289 289 289 289 289 289 289 289 289 289 291 291 290 288 288 285 286 286 286 285 284 284 283 282 282 284 284 283
298 299 297 295 293 291 293 292 291 289 289 290 292 290 289 288 288 289 289 289 289 289 289 289 289 289 291 291 289 288 287 288 287 286 286 285 285 284 283 283 282 283 284 283
295 294 292 290 291 292 292 292 290 290 291 290 289 288 288 289 289 289 289 289 287 287 289 288 287 289 291 290 289 289 287 285 285 286 286 285 285 284 283 283 283 282 282 283
289 288 289 290 291 291 291 292 292 291 289 289 288 287 288 287 287 287 288 289 288 286 287 287 286 291 290 289 289 288 288 287 285 287 286 286 285 284 284 283 283 283 283 285
293 293 292 291 291 291 289 289 288 287 287 287 286 285 285 284 285 286 287 288 286 285 287 288 289 289 288 289 288 286 286 285 285 285 285 285 285 285 285 284 283 283 284 285
293 292 292 291 289 288 287 287 287 287 286 286 285 285 285 285 285 286 287 285 284 284 289 291 286 285 287 287 285 286 284 284 283 283 283 283 283 284 284 285 285 285 285 284
290 289 288 288 288 287 287 286 287 288 288 286 284 285 285 285 286 285 286 284 286 289 291 290 289 287 286 286 284 286 285 285 284 284 285 285 285 284 285 284 285 285 284 284
287 287 286 286 285 285 285 285 285 284 284 283 282 281 281 283 284 284 284 285 288 290 289 287 287 288 288 286 285 286 286 285 285 285 284 284 284 285 285 284 284 284 284 284
288 285 284 285 286 286 285 284 283 282 281 281 281 281 281 282 283 284 284 284 287 286 287 288 288 286 286 283 285 284 283 282 282 283 284 284 284 284 284 284 284 284 284 284
288 287 285 283 282 282 283 281 280 280 279 279 280 279 280 281 282 281 280 284 286 286 286 286 285 283 279 282 283 282 281 280 280 279 279 279 279 280 281 282 283 284 284 284
285 284 283 282 281 280 278 279 279 279 279 279 279 278 279 280 281 282 283 283 283 284 285 285 283 277 275 281 280 279 278 278 276 276 276 275 276 276 276 276 277 279 281 284
282 282 281 280 279 278 277 277 277 277 277 277 277 277 278 279 278 280 281 282 282 282 283 278 276 276 278 278 276 275 275 274 273 273 273 273 273 273 273 274 274 275 276 277
280 280 280 277 277 276 276 275 274 275 274 274 275 276 276 277 277 278 279 280 279 277 277 275 273 274 274 273 273 272 272 272 271 270 270 271 270 271 271 271 271 272 273 273
277 276 277 277 275 274 273 272 272 272 273 273 272 273 274 275 275 275 276 275 275 274 273 272 270 269 270 270 270 270 269 269 267 266 267 267 268 267 267 268 268 269 269 270

GFSNGP_sfc_thetae_051.txt.gz
Theta_e
300 300 299 299 299 299 298 298 295 296 296 299 301 304 305 307 309 310 310 309 309 309 308 307 305 303 303 301 300 300 298 297 297 298 298 298 298 298 298 298 298 297 297 296
297 300 299 297 299 299 299 299 298 298 297 304 305 305 304 306 308 308 308 309 309 308 307 305 304 301 301 300 299 299 296 296 296 296 296 296 297 297 297 297 297 297 295 294
291 295 295 291 297 298 299 300 299 296 301 304 302 302 303 306 307 307 308 308 307 306 305 304 302 301 298 298 298 296 295 294 294 294 294 295 295 296 296 296 296 295 294 293
293 289 284 296 300 299 298 300 302 301 302 303 303 305 306 308 308 308 308 308 307 306 304 302 300 297 298 297 296 294 293 293 293 294 293 294 295 295 296 296 295 293 293 293
290 290 294 296 297 296 295 295 300 300 301 302 305 305 305 308 309 309 309 308 307 305 302 300 297 297 297 295 294 293 292 292 293 293 293 294 294 295 295 294 293 291 292 292
292 289 286 296 299 302 301 292 301 301 301 302 304 299 303 308 309 309 309 307 305 303 300 296 296 296 294 293 292 291 292 292 293 294 293 293 293 293 293 293 292 291 290 291
293 290 295 300 301 302 291 295 303 303 303 303 302 305 307 309 308 309 307 304 301 297 295 296 296 294 292 292 291 292 292 293 293 294 293 293 292 292 292 292 291 290 288 289
295 287 286 301 300 295 302 304 304 305 305 305 306 305 305 307 305 304 302 296 295 294 294 295 294 293 291 290 292 293 292 292 292 293 293 292 292 292 291 290 288 288 287 286
298 297 303 304 303 307 306 304 305 305 306 306 306 303 304 304 302 298 294 293 295 295 294 294 293 291 289 291 292 292 292 292 291 291 291 291 291 291 289 287 286 286 287 286
298 300 301 303 304 305 306 305 306 306 306 306 305 305 302 301 295 293 293 293 294 292 292 291 291 291 291 292 292 291 291 291 291 290 288 288 290 289 288 287 286 286 285 285
299 301 302 303 305 306 306 306 305 305 306 306 306 303 298 294 293 292 291 293 294 292 291 290 291 291 291 292 292 291 291 291 290 290 287 286 286 287 288 289 287 286 286 285
298 302 302 303 304 305 305 304 304 303 302 303 301 295 294 292 291 291 291 293 292 291 290 290 290 290 291 292 292 290 290 290 290 289 287 286 285 286 287 286 285 284 284 284
302 304 304 304 304 305 303 302 301 299 298 294 294 293 292 291 292 291 293 292 290 290 290 290 290 290 292 292 292 291 289 289 289 287 286 286 285 285 284 287 286 285 284 284
304 304 301 302 299 300 298 297 297 296 294 293 292 293 293 293 293 293 291 291 291 291 290 291 291 291 293 293 293 291 290 286 288 288 287 287 286 286 286 284 283 285 286 285
301 302 300 298 298 297 296 295 292 291 292 292 293 293 293 291 290 290 291 291 291 291 291 291 291 291 293 294 292 291 290 290 290 289 288 287 287 286 285 285 284 284 285 285
299 298 297 295 293 294 294 292 290 291 292 292 292 291 291 290 290 290 290 291 289 289 290 288 288 292 294 293 292 291 290 287 286 289 288 288 287 286 286 285 285 285 285 285
295 291 292 291 292 292 292 293 293 292 291 290 289 289 289 288 288 289 290 290 290 288 290 289 289 292 292 293 292 291 290 290 286 287 288 287 287 286 286 286 285 285 286 286
295 294 294 293 292 292 290 289 289 289 288 288 287 286 286 285 286 287 289 290 288 287 289 290 291 292 292 293 292 291 289 287 286 285 285 284 285 286 286 285 285 285 286 287
294 293 293 292 290 289 289 288 288 289 287 286 285 285 286 286 287 286 286 285 285 286 289 292 288 288 291 291 289 290 289 287 285 284 285 285 285 285 285 285 286 285 286 285
291 291 290 289 289 289 287 288 290 288 288 285 284 284 282 283 283 284 284 284 286 288 288 288 288 289 289 289 287 287 286 286 285 285 286 285 285 285 285 285 285 285 285 285
289 289 288 287 287 286 286 285 284 283 283 282 281 280 281 282 283 283 282 282 285 286 285 285 287 287 288 287 288 288 287 285 284 285 284 284 284 285 284 285 285 285 285 285
288 286 286 287 287 286 284 283 283 282 281 280 280 280 279 280 281 282 284 283 285 283 284 285 287 286 286 284 286 285 285 284 283 281 281 281 280 280 281 282 282 283 283 284
289 288 285 283 284 283 283 281 281 281 279 279 279 278 278 279 280 279 279 281 282 282 283 284 283 283 283 284 284 284 282 281 280 279 278 278 278 277 277 277 277 278 279 280
287 286 285 284 282 281 280 280 280 280 280 279 279 278 278 277 278 279 280 280 280 280 281 279 278 278 279 282 281 280 279 278 277 277 276 276 276 276 275 275 274 275 276 276
284 283 282 281 281 280 279 278 279 279 278 278 278 278 278 278 277 278 279 279 278 277 277 276 274 274 276 275 275 275 275 274 273 273 273 274 273 272 273 273 272 272 273 274
284 283 281 279 279 278 278 277 277 277 276 277 276 277 277 277 277 276 276 276 275 275 274 274 273 271 272 272 272 271 271 271 270 269 270 270 270 270 270 269 269 270 270 270
279 279 280 280 278 277 276 275 275 275 276 274 273 276 276 276 275 275 274 274 274 273 273 272 272 270 269 269 269 269 269 269 268 267 268 268 268 268 267 267 267 268 269 269

GFSNGP_sfc_thetae_054.txt.gz
Theta_e
298 299 300 299 299 299 297 298 294 297 296 299 302 304 305 306 308 309 311 312 312 311 310 309 308 306 304 303 302 301 299 298 297 297 297 297 297 297 297 297 296 296 295 294
298 300 300 297 298 299 298 298 298 298 297 304 305 305 304 305 306 306 309 310 311 310 309 308 306 304 303 302 301 300 298 295 296 296 295 295 296 296 296 296 295 295 294 293
293 296 294 289 296 297 298 299 299 294 300 304 302 303 304 304 305 307 309 309 309 309 308 307 305 303 301 300 299 297 295 294 295 294 294 295 295 294 294 294 294 294 292 291
294 289 284 295 301 300 297 298 300 299 301 302 303 305 306 307 307 307 309 309 309 308 307 305 303 300 299 297 296 295 294 293 293 294 293 294 294 294 294 294 292 292 289 290
288 290 293 296 298 296 295 295 301 300 301 302 304 304 304 308 309 309 309 310 309 307 304 301 298 298 297 295 295 293 292 292 293 293 292 293 292 293 292 291 291 290 290 289
293 287 284 296 299 302 300 292 300 301 302 302 302 297 302 307 308 308 310 309 306 303 301 298 296 297 295 294 293 292 292 292 292 293 293 292 292 291 291 290 290 290 288 288
292 289 294 302 302 302 291 295 303 303 303 304 301 304 307 309 308 309 308 305 303 299 296 296 296 295 293 292 291 292 293 293 292 293 292 292 292 291 290 289 289 286 285 285
295 287 286 303 300 295 303 306 305 305 306 307 306 306 307 307 306 304 297 296 296 295 295 294 294 293 291 290 291 292 292 292 292 292 291 291 290 290 290 288 285 284 283 284
297 296 305 304 304 307 306 304 305 306 306 306 307 304 305 304 299 295 294 294 295 294 293 293 293 292 289 290 292 292 291 291 291 292 291 290 288 287 287 286 283 282 284 283
300 301 302 303 305 307 306 306 306 307 306 306 305 306 304 297 294 293 294 293 293 292 291 291 292 291 291 292 292 291 290 290 290 289 289 288 287 286 285 285 283 283 283 283
299 302 302 304 305 305 306 307 306 306 306 306 306 302 297 294 293 293 293 293 293 292 291 291 291 291 292 291 292 290 290 290 289 289 288 286 286 286 285 285 285 283 283 282
299 302 303 303 304 306 305 304 303 301 298 298 297 294 293 292 292 292 292 293 292 292 291 290 290 290 291 291 291 290 289 288 287 286 286 285 285 285 286 286 286 286 285 283
302 305 304 303 303 304 301 299 298 297 295 293 294 294 293 291 292 291 293 293 292 291 290 290 290 290 291 292 292 290 288 287 287 285 285 284 285 284 283 285 287 286 286 285
305 305 301 302 296 298 297 296 295 295 295 293 293 293 293 293 293 292 291 291 291 290 290 290 290 290 292 293 291 289 288 286 287 287 286 286 285 285 284 284 282 283 285 285
301 303 300 298 297 296 296 295 292 291 291 292 294 292 292 290 289 289 290 290 291 290 290 291 289 289 292 293 291 289 289 288 287 287 286 285 285 284 284 283 283 282 283 282
299 298 298 295 294 293 293 292 291 291 292 291 290 289 289 288 288 289 290 289 287 287 289 286 286 288 290 291 290 290 290 287 286 286 285 285 285 284 284 284 284 283 283 282
295 292 293 292 292 292 292 292 291 290 289 288 287 286 287 286 287 287 288 288 287 285 287 287 287 291 290 291 291 290 290 289 287 285 284 284 284 284 284 283 283 283 284 284
297 296 295 294 292 290 288 289 289 288 286 286 284 282 282 281 283 284 283 284 283 282 285 287 287 285 286 288 288 288 288 288 287 285 284 283 283 282 282 282 281 281 282 283
294 293 293 292 290 289 288 288 288 287 283 282 281 282 281 281 281 282 283 280 281 282 284 285 284 284 285 286 285 286 285 285 285 284 284 284 283 283 283 283 283 283 283 283
291 290 290 289 289 288 285 286 286 284 283 281 278 278 278 277 278 279 280 280 283 282 281 282 282 282 283 284 284 284 283 283 284 284 284 284 283 283 283 283 283 283 284 283
288 288 286 285 284 283 282 282 281 281 281 277 277 276 275 276 278 278 279 279 281 279 280 280 281 279 279 279 280 282 283 283 283 284 282 281 281 280 279 279 278 278 278 280
288 285 285 285 284 282 282 282 281 278 278 275 274 273 273 276 277 278 277 278 279 278 279 280 277 274 276 276 280 281 282 282 281 280 280 278 277 276 276 276 275 275 276 276
287 286 284 282 282 282 281 280 279 278 275 275 275 276 276 277 278 276 274 278 278 277 277 276 272 271 273 276 276 276 277 275 275 275 276 276 276 275 275 274 274 274 273 273
287 285 284 283 282 281 280 279 280 280 276 278 276 274 276 276 276 278 277 276 275 274 275 274 271 270 272 273 273 272 273 271 271 271 271 272 272 272 272 271 270 271 271 271
284 283 283 282 281 279 279 278 279 279 277 278 277 277 277 278 275 275 276 275 274 274 274 273 271 269 270 270 270 269 270 270 268 268 268 269 268 269 268 268 267 267 268 268
284 282 280 279 278 278 277 277 276 277 276 276 275 277 277 277 276 275 275 274 274 273 273 272 271 270 269 269 268 268 268 268 267 266 267 266 266 266 265 265 265 265 266 266
279 281 280 279 278 277 276 276 275 274 275 273 273 275 276 276 275 274 273 273 272 272 271 271 271 270 268 268 268 267 267 266 266 266 265 264 265 264 264 264 264 265 265 265

GFSNGP_sfc_thetae_057.txt.gz
Theta_e
294 296 297 296 296 296 295 293 287 291 293 296 296 298 298 300 302 304 305 307 308 307 306 305 302 301 300 299 299 301 298 295 294 293 293 292 293 293 294 294 294 294 293 292
291 297 296 292 295 295 295 295 293 293 292 297 298 299 298 299 301 302 306 307 307 306 305 303 302 299 299 298 298 295 293 293 294 293 292 292 292 293 293 293 293 293 291 291
286 291 290 283 291 293 294 295 294 289 294 298 296 298 297 298 300 301 305 305 305 305 304 303 301 300 297 295 294 292 293 293 292 293 292 292 293 293 292 292 291 290 290 289
283 283 276 291 298 296 294 294 294 294 296 298 298 298 300 300 300 302 304 304 303 302 300 298 296 294 293 293 293 293 292 292 292 293 292 292 292 292 291 290 289 288 288 288
281 281 289 292 295 293 291 291 296 294 297 298 299 299 299 302 303 302 303 302 300 298 295 293 293 293 292 291 291 291 290 290 291 292 292 292 290 290 289 288 288 287 287 286
282 278 275 290 295 299 297 284 297 297 296 297 296 289 295 300 303 302 301 299 296 293 292 291 291 292 290 289 289 290 291 291 292 292 292 291 290 289 289 288 288 288 287 286
278 278 285 298 298 300 284 286 298 299 300 299 296 297 300 298 294 295 294 293 293 292 290 290 291 291 290 289 288 291 292 292 292 292 290 290 288 288 287 287 285 283 283 283
284 283 280 301 297 289 296 298 299 300 301 300 300 300 299 294 292 292 291 291 291 290 290 290 290 290 289 289 291 291 291 291 291 291 290 289 287 286 286 284 282 282 282 282
289 288 298 301 299 300 300 299 300 299 301 301 301 300 292 291 290 291 290 290 291 290 290 291 291 291 289 289 290 290 290 289 290 290 289 288 285 283 281 281 279 280 279 278
293 297 297 300 302 303 302 300 301 302 301 302 300 293 291 290 290 290 291 290 292 291 291 290 291 291 289 290 291 289 288 288 288 286 286 285 284 283 281 277 278 281 282 282
294 297 300 300 300 302 302 303 297 295 296 298 294 291 290 290 290 291 291 292 292 290 290 289 289 289 289 289 289 288 287 287 286 285 284 283 283 282 282 282 283 283 280 281
287 298 298 297 300 301 297 296 294 292 291 292 291 290 291 291 291 291 291 292 291 290 288 288 289 288 288 289 288 287 286 285 283 282 282 281 281 282 285 285 284 286 286 285
298 301 298 296 296 297 294 293 293 292 292 290 291 291 291 290 291 291 292 291 290 289 289 287 287 287 288 288 288 286 284 284 283 283 282 282 281 281 281 283 286 286 286 286
302 299 294 294 291 293 293 293 293 292 291 290 290 291 292 292 291 290 288 287 288 287 287 287 287 287 288 288 287 285 284 284 283 283 283 283 282 282 282 281 280 281 283 285
297 298 295 295 294 293 292 291 289 288 289 289 289 287 287 286 285 286 287 288 287 287 287 287 285 285 288 288 287 286 285 285 285 285 286 286 285 283 281 282 280 281 281 280
295 295 294 292 292 290 290 289 288 288 286 285 285 285 285 286 286 286 286 284 282 281 283 279 281 285 286 286 286 285 285 284 286 287 286 285 284 283 282 282 283 283 282 282
291 289 290 290 289 289 288 288 287 286 285 283 282 282 282 282 282 281 281 282 280 277 280 280 281 282 282 283 282 282 283 283 283 283 283 284 283 281 282 280 276 276 278 276
295 294 293 292 287 286 286 286 284 283 282 282 280 277 276 275 277 278 279 280 276 276 279 280 280 280 280 281 280 279 280 282 281 280 282 283 283 282 281 277 275 276 279 279
294 293 291 288 288 287 285 284 281 280 279 278 276 275 274 272 277 278 279 272 274 275 277 279 279 279 277 277 277 276 276 277 279 280 280 282 283 281 279 276 279 280 280 279
289 289 288 286 285 284 283 282 280 279 279 276 273 271 272 270 269 269 271 274 276 276 278 278 276 275 274 275 275 277 277 278 279 280 279 280 280 278 277 277 277 276 275 275
286 284 282 281 280 280 279 278 278 278 278 272 271 267 267 269 269 267 271 274 276 275 276 274 272 272 273 272 274 274 274 273 273 275 275 275 275 275 274 274 273 273 273 273
285 282 281 280 280 279 280 279 278 274 273 270 266 265 265 273 269 271 268 273 276 270 273 272 271 267 270 269 271 270 271 269 269 270 270 271 271 271 272 271 270 270 270 270
284 283 282 280 278 278 279 277 273 272 271 269 266 268 269 273 275 271 269 275 274 270 273 269 264 266 266 268 268 267 268 266 266 267 267 268 268 269 268 267 267 267 267 268
282 281 280 281 279 278 276 277 277 276 270 272 268 266 272 267 265 273 274 269 265 264 264 265 263 264 262 263 265 264 265 265 264 264 265 266 266 267 266 265 265 265 265 265
282 281 281 279 278 276 276 277 277 276 275 274 273 275 274 274 266 268 266 266 267 266 265 267 265 262 258 257 259 258 259 262 263 262 263 263 263 264 263 264 263 263 264 264
279 278 277 277 276 275 275 275 273 273 272 267 267 264 264 267 268 268 265 265 266 266 263 261 263 263 259 257 257 257 259 261 260 263 260 260 261 261 261 261 261 262 262 262
279 278 277 275 276 275 273 272 268 268 268 263 263 262 270 266 263 264 261 260 262 264 260 259 259 260 261 258 257 259 256 257 257 262 258 252 256 257 258 259 260 260 260 261

GFSNGP_sfc_thetae_060.txt.gz
Theta_e
293 294 295 293 293 293 292 291 286 289 290 294 295 296 297 299 301 304 305 305 307 306 306 301 300 300 302 302 302 301 296 293 293 293 293 292 291 290 291 293 293 293 292 292
289 293 292 290 292 293 293 292 292 291 291 296 295 296 297 299 299 302 303 306 305 306 304 302 301 301 300 298 295 293 292 292 293 292 291 292 290 292 293 292 292 292 291 290
284 288 289 283 289 292 293 293 293 288 291 294 294 295 294 295 297 302 303 305 305 305 303 302 300 300 296 292 292 291 291 292 291 291 290 290 292 292 291 291 290 289 289 288
282 282 276 291 296 295 292 292 292 294 294 295 296 296 298 298 299 302 302 302 302 301 298 296 295 293 291 291 292 291 291 290 290 291 292 291 291 291 290 290 288 287 287 287
280 281 287 291 293 290 289 288 294 294 294 296 297 298 297 300 300 299 298 296 294 293 292 291 291 291 290 289 289 289 288 290 291 292 290 290 289 289 288 288 287 287 287 286
283 277 275 288 294 296 294 283 295 295 295 295 295 288 292 294 296 294 293 292 291 290 290 289 289 290 289 288 289 288 290 292 291 290 290 290 288 287 287 286 286 286 285 285
276 276 282 293 297 296 283 285 296 298 297 296 294 294 292 292 290 291 290 289 290 289 289 288 289 290 289 289 288 291 292 291 291 291 290 289 287 286 285 283 282 282 282 282
281 274 279 297 295 289 292 296 299 299 298 297 295 291 290 290 289 289 288 289 289 288 287 288 291 291 290 291 290 290 290 290 290 289 289 288 286 285 284 282 280 277 276 280
288 286 295 298 297 297 299 298 297 298 300 298 292 290 289 288 288 288 288 288 289 289 290 291 291 291 288 288 289 289 289 288 288 288 288 287 284 283 281 280 278 278 278 279
293 294 296 298 300 300 299 298 298 299 300 298 290 289 289 288 288 288 289 290 291 290 290 289 289 289 288 289 289 288 287 287 286 285 285 284 283 283 280 279 278 280 279 279
292 296 298 298 299 299 294 293 292 292 295 292 290 289 289 289 289 290 290 290 291 290 289 288 288 287 287 288 288 287 286 285 284 284 284 283 283 282 282 282 282 281 281 280
287 297 295 295 296 296 292 291 292 290 289 291 290 289 291 290 291 291 291 291 290 289 287 286 286 286 286 287 287 285 284 284 283 282 283 282 282 283 285 285 284 285 286 284
297 297 295 294 293 293 291 291 291 290 290 289 290 291 291 290 291 290 291 289 287 285 286 285 285 285 286 287 286 284 283 283 283 282 283 283 283 283 282 286 286 286 286 286
295 294 291 291 289 292 292 291 291 290 289 289 288 289 289 288 286 286 285 286 286 285 284 284 284 284 286 286 285 283 283 283 282 282 282 283 283 283 284 283 283 284 284 285
294 295 292 292 291 290 290 290 288 286 285 284 286 285 285 285 284 283 283 283 282 282 283 283 282 281 282 282 281 280 281 281 281 282 282 282 283 283 284 284 284 283 283 280
293 292 291 289 289 288 288 288 285 284 284 284 283 284 284 283 282 281 281 281 280 279 280 275 278 279 280 281 279 279 278 278 278 280 282 280 280 279 281 283 283 282 280 277
289 287 288 287 287 288 287 286 284 283 283 281 280 281 280 279 280 280 280 280 277 276 278 277 277 279 278 277 276 275 275 276 276 277 277 278 278 278 280 282 280 279 276 276
293 291 290 289 286 285 284 283 283 282 281 280 278 274 274 275 277 277 278 276 274 274 277 278 277 276 276 276 276 276 275 276 276 277 278 279 279 279 281 281 279 277 277 278
293 290 288 288 287 284 282 281 280 279 277 276 274 273 273 272 276 276 276 271 270 273 275 275 275 273 273 274 274 274 274 272 272 274 275 275 275 275 276 275 275 275 275 274
288 288 288 286 285 282 279 279 279 278 277 274 271 271 273 270 267 269 272 273 273 274 276 273 272 271 272 272 270 272 270 268 269 270 269 271 271 271 271 271 272 270 270 271
285 284 283 282 280 280 279 278 277 276 275 271 271 268 267 269 268 267 270 272 274 273 273 270 270 269 270 269 269 267 267 265 265 266 266 267 266 267 267 267 267 267 268 268
283 281 280 279 279 278 279 278 277 274 272 269 264 264 266 272 268 269 266 272 273 266 271 270 269 263 266 263 266 263 266 263 263 263 264 265 264 265 264 264 265 265 265 266
281 280 279 279 278 278 277 276 273 272 270 268 267 268 271 273 273 267 267 273 273 267 271 267 261 260 259 257 256 255 257 258 257 259 261 262 262 263 262 263 263 263 263 264
281 281 279 279 278 277 275 276 277 275 271 271 268 266 271 265 263 272 272 265 262 260 260 262 259 260 257 254 254 253 254 254 254 257 258 256 257 260 259 260 260 261 262 263
281 280 279 278 277 276 278 277 276 276 274 273 273 274 273 272 265 267 264 264 264 263 260 259 260 259 254 252 252 252 253 252 252 255 253 251 253 254 255 257 258 258 260 260
279 277 277 277 276 276 276 275 272 272 270 266 265 261 264 267 267 266 262 261 262 263 259 255 254 254 254 255 253 252 253 255 252 256 252 250 251 254 253 255 255 257 257 258
277 276 276 275 275 275 273 271 267 267 266 262 264 260 266 265 265 262 257 255 255 258 255 255 253 255 255 255 255 257 253 252 251 254 249 247 247 249 251 253 254 256 256 257

GFSNGP_sfc_thetae_066.txt.gz
Theta_e
289 290 290 290 290 289 288 288 285 287 286 291 293 293 295 295 295 300 304 303 305 305 304 301 300 300 301 301 302 303 302 302 300 297 294 293 292 292 292 293 292 292 290 290
287 289 290 288 291 290 290 290 288 288 288 294 294 292 293 293 294 296 301 304 301 304 302 302 300 300 302 301 302 303 301 297 295 294 292 291 291 291 292 291 291 289 288 288
284 286 287 283 287 290 291 291 291 286 290 291 291 292 292 294 294 297 299 301 302 302 300 300 301 301 300 299 300 298 294 293 292 292 291 290 292 291 290 289 290 288 288 287
282 281 275 288 292 292 290 291 290 290 291 291 292 293 291 291 294 299 300 300 299 298 298 298 297 295 294 293 291 292 291 290 291 291 291 291 290 290 289 288 288 287 286 285
282 280 284 288 291 290 288 288 291 290 292 293 294 294 292 289 289 289 291 291 291 292 291 290 289 289 289 289 290 290 290 290 291 292 290 290 288 288 287 286 286 285 284 283
279 277 277 287 292 292 291 284 292 293 293 293 292 285 287 286 287 286 287 287 287 287 287 287 287 288 288 289 290 289 291 291 291 290 290 289 288 287 286 284 283 283 283 283
276 276 284 292 293 292 283 285 291 294 294 292 289 288 286 287 286 286 286 286 287 287 286 287 288 289 287 288 289 291 291 291 290 290 288 288 286 284 284 283 282 281 281 282
278 276 281 294 292 287 290 292 294 293 294 292 287 286 286 286 285 285 285 285 287 287 287 288 289 290 289 288 289 290 289 288 289 288 287 286 284 284 283 282 281 280 278 280
288 288 295 294 293 293 294 295 296 295 294 290 287 286 286 284 284 284 285 286 289 288 287 288 289 288 287 286 287 287 287 286 285 285 284 283 282 282 281 281 280 280 280 281
290 293 293 295 296 295 297 296 297 296 292 291 287 287 285 284 284 285 286 287 288 287 286 285 285 286 286 287 286 285 283 283 282 282 282 282 282 282 280 279 279 281 281 281
289 294 295 296 296 295 294 295 295 292 291 289 288 286 285 285 285 286 287 287 287 285 284 284 285 285 285 284 283 282 281 281 280 281 280 280 281 281 281 281 281 281 282 282
289 296 295 294 295 294 293 292 292 289 288 288 288 286 286 286 287 287 286 285 285 284 284 284 282 281 281 282 280 279 279 279 278 279 278 278 278 278 282 283 283 284 284 282
296 298 294 293 291 292 290 289 290 289 289 287 287 288 288 287 286 286 285 285 284 283 283 280 278 278 279 280 279 279 277 277 277 276 276 276 276 276 275 278 281 281 282 283
294 294 291 291 290 290 289 289 290 289 289 288 287 286 285 284 284 283 282 283 283 281 279 278 278 278 279 278 277 276 276 275 274 274 274 275 275 276 276 276 275 277 280 280
291 292 292 290 289 287 288 288 286 285 285 284 285 284 283 282 281 281 282 281 279 278 278 278 276 275 276 277 276 276 275 274 274 273 276 276 276 275 274 273 273 273 274 274
291 290 290 287 286 286 286 285 284 283 284 283 282 281 281 281 281 280 280 280 278 276 276 272 274 275 276 275 275 275 275 273 272 273 273 273 273 272 272 271 272 271 271 271
287 286 286 285 285 285 285 285 284 283 283 281 280 280 280 279 278 277 277 277 275 275 274 273 273 275 275 274 274 273 272 271 269 271 270 270 269 269 269 268 268 267 268 269
292 290 290 288 286 283 283 283 283 282 281 280 279 278 278 278 277 276 275 275 274 273 273 273 273 274 273 272 272 271 268 267 268 267 267 266 265 267 265 264 265 264 264 266
290 289 288 286 285 284 282 282 280 279 278 277 277 276 276 276 276 275 274 271 271 272 271 272 273 271 271 270 269 268 265 261 263 265 263 262 261 262 261 259 262 261 262 263
288 287 286 284 284 282 279 279 279 278 277 276 275 275 274 273 273 272 272 272 273 272 272 270 270 269 269 268 265 267 262 258 262 260 258 259 255 256 258 258 260 259 257 259
284 283 282 281 279 279 278 278 277 276 276 276 274 273 273 272 271 270 271 271 272 272 271 269 268 268 268 265 265 260 256 254 254 254 254 252 251 254 254 253 254 254 255 257
281 279 279 278 277 277 277 277 276 274 273 272 272 272 271 271 270 270 268 271 272 268 269 269 268 261 264 261 263 255 259 256 254 251 251 250 249 249 251 250 252 255 255 255
280 279 279 278 277 276 275 275 274 273 272 272 271 272 272 273 272 269 268 272 271 267 269 266 261 258 256 252 252 251 251 250 249 250 248 246 246 246 248 250 252 251 252 253
279 278 278 277 276 275 274 275 275 274 273 273 272 272 272 269 266 271 271 264 261 259 260 260 257 258 254 251 250 249 249 248 247 246 249 248 244 244 247 247 249 251 251 252
278 278 278 277 276 275 276 275 274 274 274 274 273 273 272 271 267 268 264 263 263 262 260 257 258 257 251 249 248 248 249 251 248 245 246 245 244 244 246 247 247 248 250 251
278 277 277 277 276 276 276 275 273 273 271 269 268 265 265 267 267 267 264 263 262 260 258 254 254 253 251 250 249 249 250 256 252 248 246 246 244 246 245 247 246 248 248 249
276 276 275 274 273 273 272 272 271 270 268 265 265 264 267 266 265 265 260 257 254 253 253 251 253 254 254 250 249 249 250 252 253 251 246 244 243 242 244 245 245 247 248 249

GFSNGP_sfc_thetae_069.txt.gz
Theta_e
292 292 294 294 294 293 293 294 291 294 291 296 299 301 301 301 300 300 303 308 312 315 315 312 311 310 308 306 306 307 305 304 302 300 297 296 295 296 295 297 297 296 296 296
291 292 293 292 293 293 293 293 293 292 292 298 300 300 298 298 299 299 301 304 309 311 309 307 306 306 305 306 306 305 303 300 297 295 294 294 294 293 295 296 295 295 295 295
288 290 291 287 292 293 294 295 295 291 297 298 297 297 298 299 299 302 304 305 306 308 308 306 305 305 305 305 305 303 300 296 294 293 293 293 293 295 294 294 295 295 294 294
287 285 282 294 296 296 295 295 296 295 296 298 297 297 295 294 298 302 303 303 303 304 304 304 305 304 303 301 298 295 293 292 292 293 292 292 295 294 294 294 294 294 294 293
286 286 289 292 294 294 293 293 297 296 296 297 297 297 295 292 292 295 297 298 299 300 299 299 299 298 298 296 293 291 290 291 293 293 292 295 294 294 294 293 293 293 292 292
284 284 282 292 295 297 297 289 297 297 297 297 297 295 297 291 291 291 293 294 293 293 294 295 295 296 294 291 291 291 292 293 293 293 294 293 293 293 293 292 291 292 291 291
283 286 288 294 295 297 290 293 297 298 299 298 296 296 292 290 289 290 291 291 292 293 292 292 294 294 292 293 292 293 293 294 293 293 292 292 291 291 291 291 290 290 288 290
285 285 285 297 294 292 298 297 297 298 299 297 291 289 289 289 288 289 289 290 291 290 290 292 293 293 291 291 292 292 292 291 290 290 289 289 290 290 290 289 288 287 286 287
292 293 300 298 300 299 299 300 299 299 298 294 290 289 289 287 288 288 289 290 292 291 290 291 292 292 289 289 291 290 289 288 287 287 286 286 286 286 285 285 284 284 284 284
295 297 297 298 299 300 299 300 300 300 297 294 292 289 288 287 287 289 290 289 289 288 288 287 288 288 288 288 288 287 285 285 285 284 284 284 284 283 283 283 283 282 282 283
294 296 298 299 300 300 299 300 297 295 295 294 291 289 288 287 288 289 289 288 288 287 286 285 286 285 285 284 285 283 282 282 282 282 282 281 282 282 282 283 282 281 281 281
293 299 299 300 302 300 298 298 295 292 291 292 291 288 288 288 290 289 287 287 287 286 284 283 283 282 282 282 281 281 280 280 280 280 280 280 280 280 280 280 281 281 282 281
300 300 297 294 294 296 297 295 293 292 291 289 289 289 289 289 289 287 288 287 287 284 282 281 280 279 279 280 280 279 279 279 279 278 279 278 278 278 278 280 279 279 279 279
296 296 294 294 294 293 293 292 291 290 290 290 289 290 289 287 286 286 286 285 282 280 280 280 278 277 278 279 279 278 278 276 278 278 278 278 278 278 277 276 275 276 277 276
293 293 295 291 290 289 290 290 288 287 287 287 288 287 287 285 284 283 282 281 280 280 279 278 277 277 278 278 278 277 277 276 276 277 277 276 277 276 276 274 274 274 274 274
291 291 291 290 289 288 288 288 286 286 286 285 285 284 284 283 282 280 279 280 279 277 276 274 275 276 277 277 277 276 275 273 274 275 274 274 274 273 273 272 272 271 271 270
288 286 287 287 287 288 289 288 287 286 284 283 282 281 281 280 279 278 277 277 275 275 275 274 275 276 276 275 275 274 273 273 271 273 272 272 271 271 270 269 269 269 269 269
292 292 292 290 288 285 285 285 285 284 282 281 280 279 279 279 277 276 276 275 274 273 274 274 275 274 273 273 274 271 270 270 270 270 270 269 268 269 269 267 267 267 267 267
291 289 288 287 286 285 283 282 281 281 280 280 279 278 277 277 276 276 276 274 273 272 272 273 273 272 271 271 271 269 268 267 268 268 267 266 266 266 266 266 265 265 265 265
286 286 285 284 284 282 280 280 280 279 279 279 277 276 275 274 274 274 275 274 274 273 272 272 271 270 270 269 268 269 267 266 265 265 265 264 264 263 264 262 262 263 263 263
283 282 281 280 278 279 279 279 278 277 277 277 277 275 274 274 273 273 273 272 272 272 271 270 270 270 269 268 268 267 266 265 264 264 263 262 262 262 262 261 261 261 262 262
280 279 278 278 277 277 278 278 277 275 275 274 274 273 273 272 272 272 273 273 273 271 272 271 270 266 268 266 268 267 266 264 264 263 263 262 262 261 260 260 259 260 260 260
279 279 278 277 276 275 276 275 275 274 274 274 274 274 274 274 274 272 271 273 273 270 272 271 267 264 263 266 266 265 264 263 263 262 262 261 261 260 259 259 258 258 258 258
278 278 277 277 276 276 274 275 275 275 274 274 274 274 274 272 272 273 273 270 268 269 270 269 267 264 262 265 264 264 263 263 262 262 261 257 260 259 259 258 257 257 257 257
278 278 278 277 276 275 275 275 275 275 274 274 274 274 274 273 273 272 271 270 269 269 269 264 264 263 265 264 264 263 263 263 262 261 261 260 259 258 258 257 256 256 255 256
278 277 277 277 277 276 276 276 274 274 273 272 271 271 272 272 271 271 269 268 268 266 267 265 265 264 264 264 263 261 262 262 262 261 259 259 258 257 257 256 255 255 255 255
276 275 274 273 273 273 274 274 273 271 271 271 271 271 271 271 269 268 266 267 266 264 264 264 264 263 263 262 262 261 261 261 260 260 260 258 257 256 255 254 254 254 254 254

GFSNGP_sfc_thetae_072.txt.gz
Theta_e
298 298 298 297 297 298 297 297 294 297 297 300 304 306 308 309 308 307 308 310 314 319 322 324 324 324 323 318 314 312 310 307 306 305 303 299 298 298 300 300 298 299 301 300
296 298 298 296 298 298 299 299 299 299 298 305 307 308 307 307 306 306 306 308 310 316 321 320 320 319 314 311 311 311 310 307 306 301 298 296 296 298 297 296 298 300 301 302
291 296 296 291 297 298 299 301 301 296 301 305 304 305 306 307 306 307 308 310 311 315 317 317 317 315 312 310 311 308 305 303 300 297 295 296 296 296 296 298 301 302 300 299
292 290 286 297 302 303 301 302 303 303 304 305 304 306 305 304 306 308 309 310 311 314 314 315 315 314 313 312 309 306 303 300 297 295 294 295 298 297 299 302 300 299 298 298
292 291 295 296 296 299 298 298 304 303 304 304 304 303 304 302 303 306 307 309 310 312 312 312 311 311 308 304 302 300 297 294 294 295 296 299 297 300 299 298 297 296 296 296
291 292 288 296 302 305 303 295 305 305 304 304 303 299 304 302 302 303 304 305 305 306 307 307 307 306 302 299 297 295 294 295 298 299 295 298 298 297 298 296 295 295 294 295
293 293 296 301 300 303 293 297 305 305 305 305 303 304 304 302 301 302 302 302 304 305 304 304 305 303 299 297 294 296 298 295 295 297 297 296 295 296 296 295 295 294 292 293
295 290 289 301 299 297 305 305 306 305 306 306 304 299 300 300 299 299 299 300 301 301 301 301 301 299 297 296 296 296 296 296 295 294 292 293 294 295 294 293 290 289 288 289
297 298 307 304 307 307 308 307 306 307 307 307 300 298 298 298 298 299 299 299 299 299 298 298 298 297 295 296 296 295 294 293 292 291 290 290 291 290 289 288 288 287 286 286
299 304 304 306 307 305 305 305 306 307 307 304 301 299 297 297 297 297 298 297 297 296 295 294 295 295 295 294 295 293 291 289 289 287 287 287 288 287 288 287 286 284 284 284
302 304 303 305 307 308 306 307 306 305 306 304 301 299 297 296 296 297 296 295 296 294 293 292 292 291 291 291 291 289 287 286 286 286 286 286 285 286 285 285 283 283 283 283
299 306 305 307 309 309 307 306 306 303 302 303 301 298 297 296 296 295 294 294 293 293 291 290 288 287 287 287 287 286 284 284 284 285 285 284 285 285 281 280 280 280 279 279
305 304 305 303 301 301 305 307 306 304 303 300 299 297 297 295 295 292 293 293 291 290 288 286 284 283 284 285 285 284 283 283 282 282 283 283 284 283 282 282 280 279 278 277
303 302 303 301 302 300 301 301 300 300 299 298 297 296 296 294 292 293 292 292 290 287 284 283 282 281 283 284 283 282 281 278 282 283 283 283 283 282 281 280 279 280 279 276
302 302 302 299 297 297 298 297 295 294 294 294 295 294 293 292 292 291 289 287 285 284 281 281 281 280 282 282 281 281 280 280 281 282 281 280 281 280 280 278 278 278 278 277
300 299 297 297 296 296 296 296 294 292 293 292 292 292 292 291 288 285 284 283 281 279 279 278 278 279 280 280 280 280 278 275 277 280 279 279 278 277 277 276 276 276 276 275
296 294 294 295 295 295 295 295 294 292 291 290 289 287 284 281 281 279 278 278 277 276 277 277 277 278 278 279 278 278 279 277 273 277 277 276 276 275 276 275 274 274 274 274
298 298 296 296 294 293 291 289 287 287 284 284 282 281 280 279 278 277 276 276 275 275 275 276 276 275 275 276 276 275 275 275 275 275 274 275 273 274 274 273 272 272 272 272
296 294 294 293 292 290 288 286 285 283 281 281 281 280 279 279 279 277 276 275 274 273 273 275 274 274 273 273 274 274 274 273 273 273 272 270 272 271 271 271 270 270 270 270
290 290 288 286 286 285 283 283 282 281 281 281 280 278 277 277 277 277 278 275 276 274 274 274 273 272 272 271 271 273 272 272 271 271 271 269 270 269 269 268 268 268 269 269
282 282 281 281 280 281 281 282 281 281 281 280 279 277 276 276 276 276 275 273 273 274 273 273 273 273 272 272 272 273 272 271 270 269 269 269 268 268 268 268 268 267 267 267
280 279 279 279 279 280 280 280 279 279 278 277 276 276 275 275 274 274 276 275 274 274 274 274 273 270 271 269 272 272 271 270 269 269 268 268 268 267 267 266 266 266 265 266
279 279 279 278 278 278 278 278 278 277 276 276 276 276 276 276 277 276 274 275 275 273 275 275 270 268 266 272 271 270 269 268 268 268 268 267 267 266 265 265 265 264 264 264
280 279 279 279 279 278 277 277 277 276 276 276 276 276 277 276 276 276 276 274 273 274 274 273 271 267 267 270 270 269 268 268 268 268 267 265 266 266 265 264 263 264 263 262
281 280 280 279 278 277 277 277 277 277 277 276 276 276 276 277 277 276 276 274 272 272 273 268 267 266 270 270 269 268 268 268 267 266 266 266 265 265 264 264 263 262 261 261
280 279 279 279 279 279 279 278 277 277 277 276 276 277 277 276 276 275 274 272 272 270 271 271 270 269 269 269 268 267 267 267 266 266 265 265 265 264 263 262 261 261 261 261
278 278 277 276 277 277 277 277 276 275 275 276 274 275 275 275 274 273 271 272 271 270 270 270 269 268 267 267 267 267 266 266 265 264 263 263 263 263 262 261 260 260 259 259

GFSNGP_sfc_thetae_075.txt.gz
Theta_e
299 300 300 299 298 299 297 299 295 297 298 301 303 306 307 310 311 310 310 311 314 317 322 324 326 327 327 328 326 323 318 314 309 308 307 308 306 304 302 301 300 302 300 300
296 299 299 296 298 299 299 299 299 299 298 306 308 308 307 308 309 309 310 310 311 314 319 324 325 325 324 321 318 316 311 307 307 307 305 301 299 300 300 300 299 299 301 302
293 298 298 294 297 298 300 301 300 297 302 306 305 306 307 307 308 309 310 312 313 314 319 323 324 319 314 313 313 311 308 306 305 303 300 299 298 298 298 299 299 301 302 303
294 293 287 297 303 303 300 301 303 303 304 305 306 308 308 310 310 310 312 313 315 318 320 321 318 314 312 311 308 306 304 303 302 301 300 299 299 300 300 301 302 303 301 300
293 292 295 297 299 300 299 299 304 304 305 306 307 308 307 309 309 312 313 315 316 318 319 318 314 312 309 306 305 304 303 303 302 301 299 297 298 300 302 302 300 299 298 297
295 290 287 297 302 306 306 297 306 306 306 306 305 300 303 308 309 310 312 313 314 315 316 315 314 312 309 306 304 303 302 300 299 298 300 301 301 301 300 299 297 296 295 296
295 293 296 303 304 307 295 297 307 307 307 306 303 305 309 309 309 310 309 310 312 312 312 312 311 309 304 303 302 302 300 300 301 300 299 299 299 298 297 296 295 295 294 294
296 292 290 305 302 298 305 311 310 310 309 308 309 307 307 307 306 306 306 307 309 309 309 309 308 306 304 301 301 301 300 299 299 298 296 297 296 296 295 294 293 291 289 289
298 299 308 307 307 310 311 310 311 310 310 310 308 305 305 304 304 305 306 307 308 306 305 305 305 304 301 300 300 299 298 297 297 295 294 294 294 292 291 290 289 289 287 287
300 303 306 309 310 310 311 311 311 311 311 311 307 306 304 304 305 305 305 304 305 303 301 300 301 300 300 300 299 298 296 295 293 292 291 290 289 289 289 289 288 286 286 286
300 303 305 308 310 312 312 311 310 311 310 311 308 305 305 304 304 304 303 303 303 301 299 298 298 298 298 298 297 294 292 290 290 288 288 288 288 287 287 285 283 284 285 284
299 305 306 307 310 314 312 311 311 310 309 310 309 305 304 303 304 303 301 301 299 298 297 296 295 294 294 294 293 290 288 288 288 287 287 287 287 285 281 282 281 280 279 279
304 309 309 310 307 308 311 312 312 311 310 307 308 306 304 302 302 296 299 298 297 295 294 292 290 287 287 288 289 288 286 284 283 285 285 285 285 284 284 281 281 280 279 277
309 308 306 308 308 305 306 306 305 308 308 307 305 304 302 301 297 298 297 297 295 292 289 286 284 284 285 285 284 282 281 281 284 284 284 284 284 283 283 282 280 281 279 278
308 309 308 306 304 304 304 303 302 302 302 301 301 300 300 297 296 296 295 292 289 286 284 283 281 281 283 283 282 282 281 281 282 282 282 280 281 281 281 280 279 279 280 280
307 305 303 303 302 301 301 301 299 298 298 298 298 298 296 296 293 289 288 286 283 280 280 278 278 280 281 281 281 280 278 277 278 280 280 279 279 279 279 278 278 278 278 278
302 301 300 301 300 300 300 300 299 298 297 296 295 294 290 285 282 279 278 279 278 278 278 278 277 279 280 280 279 279 279 278 275 278 277 277 277 277 277 277 276 276 276 277
303 303 303 303 300 299 297 297 296 294 290 285 282 281 279 278 276 276 276 277 277 277 277 277 277 277 277 277 277 276 276 276 276 276 276 276 276 275 275 275 275 274 274 275
301 299 299 297 295 290 288 286 284 283 283 282 280 279 279 278 279 278 278 276 276 275 275 276 275 275 274 274 275 276 275 274 275 275 274 273 274 274 274 274 273 273 272 272
292 291 290 287 287 286 284 284 284 282 281 281 279 278 277 277 278 278 278 276 276 275 276 275 274 273 273 272 273 274 274 274 273 273 274 271 273 272 272 271 271 271 271 271
283 283 282 281 281 282 282 282 282 281 281 280 279 278 278 277 277 277 276 273 274 275 274 274 274 274 273 273 274 275 274 273 273 272 272 272 271 271 271 271 270 270 269 269
281 280 280 280 280 281 281 282 281 279 279 278 278 277 277 276 276 276 277 275 275 275 276 275 274 271 272 270 274 274 273 272 272 271 271 271 270 269 269 269 268 268 268 268
281 281 281 280 280 280 280 280 279 279 279 279 278 278 278 278 279 278 275 276 276 275 277 275 271 270 270 273 273 272 272 271 271 270 270 270 269 268 268 267 267 267 266 266
282 282 281 281 281 280 277 278 278 277 278 278 278 279 279 278 277 277 277 275 275 276 275 273 272 270 268 272 272 271 271 270 270 270 269 268 269 268 267 267 266 266 266 265
282 281 281 281 279 279 279 279 279 278 278 278 278 278 278 279 279 278 277 275 273 275 274 269 269 269 272 272 271 270 270 269 269 268 267 268 267 267 267 266 266 265 264 264
280 280 280 280 280 280 280 280 279 279 278 277 277 278 278 277 277 276 275 274 273 272 272 272 271 270 270 270 269 269 269 268 268 267 266 266 266 265 265 265 265 264 263 263
280 279 279 278 278 278 278 278 276 275 276 277 275 276 276 276 275 274 273 273 273 272 272 271 271 270 269 268 268 268 267 267 266 266 265 265 264 264 264 263 263 262 262 261

GFSNGP_sfc_thetae_078.txt.gz
Theta_e
298 299 299 298 298 298 297 298 294 297 297 301 304 304 308 309 310 311 310 310 311 313 318 321 323 325 327 324 322 321 317 314 309 307 307 307 306 305 305 304 303 302 302 302
296 298 298 296 299 299 298 298 297 298 298 304 306 307 307 307 307 307 310 311 312 312 317 322 324 324 322 320 316 314 309 306 307 307 305 305 304 303 301 300 300 301 301 301
291 297 296 290 297 298 298 300 299 295 301 305 304 305 306 308 309 308 309 311 313 314 315 324 320 317 313 312 311 308 306 306 306 303 301 300 300 300 299 298 298 298 299 299
291 292 285 297 303 302 300 300 302 302 303 304 305 307 308 310 310 310 312 313 315 316 321 318 315 313 312 311 308 305 305 303 302 301 300 299 298 298 297 298 297 298 300 299
290 290 294 297 300 300 298 298 304 302 304 305 306 308 307 310 310 312 313 314 316 319 318 316 312 311 307 306 305 303 302 302 301 299 298 298 298 299 299 300 300 298 298 296
292 287 285 297 303 307 305 293 305 305 305 306 307 301 304 308 311 313 314 315 316 317 314 312 311 308 306 303 302 301 302 302 302 301 299 298 298 300 301 300 299 297 294 294
290 290 295 302 303 305 292 295 307 308 308 309 305 307 309 309 310 311 312 313 315 316 313 312 310 308 305 304 302 304 303 301 299 298 298 300 300 299 297 295 294 289 288 288
293 288 287 305 303 297 303 310 311 310 311 312 310 309 309 309 308 309 309 310 312 312 311 311 310 308 305 303 303 301 299 299 300 300 299 298 296 294 294 293 289 287 285 285
296 296 308 307 306 309 311 312 311 313 313 312 309 308 308 307 307 307 308 308 310 309 307 307 307 306 303 300 301 300 299 298 296 296 296 295 294 292 289 288 286 285 284 284
299 301 303 307 308 311 311 310 313 315 313 312 309 308 306 306 306 306 306 307 307 305 303 302 303 303 301 301 300 298 296 295 294 292 291 290 289 288 287 286 285 284 283 282
299 302 303 305 308 311 312 314 312 312 311 311 311 308 307 305 305 305 306 305 304 303 301 299 300 300 300 299 298 296 294 291 289 288 288 286 283 283 283 281 282 283 282 282
299 305 305 306 310 316 312 310 311 311 310 310 311 308 307 305 306 305 303 303 302 301 299 297 297 296 296 296 294 291 289 287 286 286 285 285 283 281 283 281 281 280 279 280
303 309 310 311 309 308 308 312 312 312 312 310 311 309 306 305 305 299 302 300 298 297 295 293 289 286 287 287 288 286 283 283 283 284 283 283 284 284 280 280 281 280 279 279
306 306 307 308 306 306 307 306 307 309 309 309 308 307 305 303 300 300 299 298 295 291 287 285 284 283 284 284 283 282 282 283 283 283 282 282 282 281 282 281 279 279 280 279
309 309 308 306 306 304 304 305 303 303 304 303 304 302 300 298 297 296 294 290 287 284 283 282 281 280 282 283 281 281 280 280 281 281 279 279 281 280 280 280 279 278 279 278
305 308 305 304 303 302 302 302 300 299 300 299 299 297 296 291 287 285 285 284 281 279 279 278 278 280 282 282 279 278 277 278 279 279 279 279 279 278 278 278 277 277 276 276
303 301 302 302 301 301 301 300 299 298 296 291 286 284 282 281 279 279 278 279 278 277 278 277 278 279 279 279 279 278 278 276 276 278 277 277 277 276 276 276 275 275 274 272
304 303 304 304 301 296 291 289 289 286 283 282 281 280 278 277 276 276 276 277 277 276 276 277 277 277 276 276 276 276 276 276 276 276 275 275 273 273 274 274 273 273 273 273
300 297 295 293 291 288 285 283 283 282 281 280 278 276 277 276 277 277 277 276 275 274 274 275 275 274 274 274 276 276 275 274 275 274 274 273 273 274 273 272 272 270 270 270
288 287 286 285 285 284 281 281 281 279 280 279 278 277 276 277 277 276 276 274 275 275 275 275 274 273 273 273 274 275 274 274 273 273 273 272 271 272 270 270 271 270 269 269
282 282 282 281 281 281 281 281 280 279 279 279 278 276 276 277 276 276 274 272 274 275 275 275 275 274 273 273 274 275 274 273 272 272 271 271 270 270 270 269 269 268 267 267
280 280 279 279 279 279 279 279 279 278 278 277 277 277 276 276 275 275 276 274 274 275 276 275 272 271 271 270 274 273 272 272 271 270 270 270 269 268 267 267 267 266 266 265
280 280 280 279 278 278 279 279 279 279 278 278 278 278 278 278 279 276 273 276 276 276 274 272 270 270 268 271 273 272 271 270 270 269 269 268 268 267 267 267 266 266 265 265
281 280 280 280 280 278 277 277 278 278 277 277 276 278 279 276 276 276 276 274 274 273 271 270 269 268 264 271 271 270 269 269 269 269 267 264 267 267 266 266 265 265 265 264
281 281 280 280 279 278 279 279 278 278 277 277 277 277 277 277 276 276 275 274 272 273 271 266 267 266 270 270 269 268 268 268 268 266 267 266 265 265 265 265 264 264 263 262
280 279 280 280 279 279 279 279 278 277 276 275 276 276 276 277 276 275 274 272 272 270 272 272 270 269 269 268 266 267 267 267 266 266 265 264 264 264 263 263 262 262 261 261
279 278 277 276 277 277 276 275 274 274 276 275 273 274 275 275 274 274 272 272 271 270 270 270 269 268 267 267 267 266 265 265 265 264 263 263 262 262 261 261 260 260 260 260

GFSNGP_sfc_thetae_081.txt.gz
Theta_e
295 296 297 297 296 296 294 295 292 294 295 298 299 299 300 303 304 305 305 305 304 309 310 312 315 319 321 320 319 317 316 315 312 310 310 308 308 307 306 307 306 305 304 303
292 296 297 295 296 296 296 296 295 294 294 299 301 299 301 302 304 303 304 305 306 307 312 315 318 318 317 315 311 311 309 307 307 307 307 306 305 305 304 302 303 303 303 303
287 294 294 286 293 295 297 298 296 291 295 299 298 300 299 301 302 303 304 307 308 310 317 317 314 312 309 308 309 307 306 306 306 305 303 302 302 301 301 301 301 301 301 300
286 288 282 293 299 299 297 298 298 297 298 298 299 300 301 302 302 305 307 308 309 315 312 310 309 308 307 306 306 305 304 304 303 301 300 301 301 300 299 299 299 299 298 298
284 286 292 295 297 296 296 294 300 298 299 300 300 301 300 304 305 305 306 308 311 312 309 308 306 307 305 304 304 304 303 302 301 300 299 299 298 298 298 297 297 297 298 295
285 283 281 293 300 302 301 288 300 301 300 300 300 292 296 302 307 308 309 310 310 310 309 306 304 305 303 302 302 302 302 301 300 300 299 298 298 298 298 299 298 294 292 290
285 283 289 299 302 303 288 288 302 303 302 300 298 300 302 305 306 307 308 310 310 309 306 305 305 304 301 301 300 302 302 302 300 300 298 298 299 299 297 293 290 286 285 286
285 282 282 302 300 294 297 302 304 303 303 302 303 302 303 304 304 305 306 308 309 308 306 305 304 303 301 301 303 303 301 298 297 297 298 299 296 294 293 290 287 285 285 284
291 289 301 304 303 305 306 304 304 303 305 305 303 302 303 302 303 303 305 305 307 305 305 304 303 303 300 297 297 297 297 297 297 296 295 294 292 290 288 288 286 285 284 283
293 297 299 303 306 305 305 304 307 306 306 307 303 303 302 301 301 301 303 303 303 302 300 299 300 298 297 297 297 296 294 293 292 289 288 287 288 287 285 284 284 283 283 283
296 300 301 302 305 305 305 306 308 306 305 305 305 302 301 300 300 301 301 300 300 297 295 295 296 295 296 296 296 293 289 288 287 286 284 282 283 283 281 281 282 280 280 281
291 300 299 300 304 307 305 305 307 306 305 305 305 302 301 300 300 300 298 298 296 295 290 284 284 285 288 291 290 287 286 285 284 283 283 282 280 280 282 281 281 281 281 280
297 303 305 304 304 305 304 304 306 307 306 304 304 302 301 300 298 294 296 294 287 284 283 283 282 282 284 285 285 284 283 283 282 282 282 282 282 281 278 280 281 280 280 279
305 304 301 303 301 303 302 303 304 303 303 303 301 300 299 297 296 293 287 284 283 282 281 281 281 280 283 283 283 282 282 282 281 280 280 280 280 280 280 280 277 278 280 279
304 304 303 302 301 300 301 300 298 297 297 296 297 296 291 287 284 282 282 282 281 280 280 280 279 279 281 281 280 280 280 280 280 278 278 279 279 279 279 278 278 278 278 278
300 302 302 299 299 299 298 297 295 294 289 285 284 283 282 281 280 279 279 280 278 277 278 277 278 279 281 280 278 278 277 278 278 278 278 278 277 277 277 277 276 276 275 275
298 297 298 297 295 292 290 289 287 284 283 281 280 280 279 278 277 277 276 277 277 276 277 276 276 278 278 278 278 278 277 277 277 277 276 276 276 274 274 274 273 273 272 270
294 294 297 293 289 285 283 282 281 280 278 278 278 277 276 275 275 275 275 275 274 274 275 276 276 276 276 276 276 276 275 275 275 275 275 272 272 273 272 272 271 270 269 271
289 288 287 285 284 283 281 280 279 279 278 278 277 276 276 276 276 275 276 274 273 272 273 274 275 274 274 275 275 274 273 272 272 273 272 270 269 270 267 266 266 265 266 266
283 283 282 282 282 280 279 279 279 278 278 278 277 275 274 274 274 273 274 273 274 274 275 274 274 273 273 272 273 274 272 270 271 269 267 266 264 263 264 267 267 265 260 259
280 280 280 279 279 279 279 279 278 277 277 277 276 275 274 274 274 274 272 271 273 275 273 272 272 271 271 270 272 270 268 266 264 262 261 259 260 262 259 258 259 258 257 258
279 278 278 278 277 277 278 278 278 277 276 276 276 275 274 273 273 273 273 272 274 273 272 271 270 267 267 267 270 265 267 265 263 264 264 261 262 259 258 256 256 259 256 254
278 278 278 277 277 277 277 277 277 277 276 276 275 274 275 275 275 272 271 274 273 271 271 268 265 264 262 264 266 264 262 260 259 260 263 259 257 257 261 263 262 258 259 260
278 278 277 278 278 277 275 277 277 277 275 275 274 275 274 272 272 273 273 270 267 266 264 262 262 264 263 265 264 262 260 259 262 259 259 259 261 259 258 260 262 261 260 259
279 279 278 277 276 276 277 277 276 275 274 274 274 274 274 274 271 271 270 268 269 267 264 264 262 261 260 258 258 258 259 259 261 263 261 257 254 253 257 260 258 258 259 258
278 277 277 278 277 277 277 276 274 274 273 272 272 271 272 272 271 270 267 266 267 264 264 264 263 262 262 260 261 260 257 257 261 260 256 254 254 255 254 255 256 255 254 252
275 275 274 273 274 273 272 271 271 271 270 269 268 269 269 269 267 267 264 264 262 261 261 261 261 261 258 255 256 254 254 256 258 256 252 250 251 255 253 250 249 250 251 251

GFSNGP_sfc_thetae_084.txt.gz
Theta_e
292 294 295 294 294 295 294 294 289 292 292 296 299 300 300 301 302 302 303 303 302 306 307 313 314 316 317 318 319 320 320 317 316 315 317 315 313 313 310 309 308 308 306 306
289 293 295 293 295 295 295 295 294 295 293 300 303 300 299 301 301 301 302 302 303 306 308 310 314 314 315 313 314 316 315 312 309 308 309 309 308 307 307 306 306 305 304 304
283 292 293 286 291 294 295 297 295 290 295 297 297 297 298 299 300 302 302 303 304 307 310 315 314 313 312 310 310 310 308 307 307 306 304 304 304 304 303 303 303 303 303 302
282 286 282 291 298 299 297 298 297 296 296 298 298 298 298 299 300 302 304 306 313 311 308 307 307 308 309 309 308 307 306 305 305 304 302 302 302 302 301 302 301 301 300 300
284 282 289 293 295 295 294 293 298 296 298 299 298 298 298 302 301 303 304 307 310 308 306 305 306 306 306 306 306 306 304 304 304 303 301 301 300 299 300 300 300 299 299 296
284 280 279 289 297 301 300 289 299 300 299 299 298 291 295 302 306 305 308 310 307 306 305 304 303 304 305 304 304 303 303 302 301 301 301 299 299 299 299 298 296 294 291 290
284 283 286 296 300 302 289 289 300 301 301 298 296 298 300 305 306 307 309 308 307 306 303 302 303 303 300 300 300 303 302 301 301 301 300 300 299 298 297 293 289 288 286 286
283 280 280 299 299 293 296 301 302 302 301 300 301 301 304 305 305 307 306 306 306 304 302 302 302 301 298 297 300 301 301 299 300 299 298 298 296 294 292 289 286 285 284 283
286 286 297 302 303 303 304 303 303 303 303 303 301 301 302 302 303 304 305 305 306 303 302 302 301 300 298 300 300 298 296 296 296 295 294 293 292 291 289 288 286 285 283 282
291 296 298 301 305 305 304 303 304 304 304 303 301 301 301 301 301 301 302 302 304 302 299 296 296 295 295 296 295 293 291 288 287 287 286 286 286 286 285 284 284 284 283 281
292 297 300 301 302 302 304 305 305 305 304 305 303 301 300 299 300 299 298 297 296 290 286 286 289 292 293 292 289 287 286 285 284 284 283 282 281 282 281 282 283 282 281 281
290 298 298 299 303 304 303 302 304 306 304 304 304 301 300 299 298 297 294 287 285 284 283 283 284 285 287 288 287 285 284 283 283 283 282 281 281 280 282 282 282 282 281 280
297 300 301 303 303 304 303 303 304 305 305 304 303 301 299 296 294 286 285 284 283 282 282 282 282 282 284 285 284 283 282 282 282 282 282 282 282 281 279 281 281 281 280 280
301 303 299 301 300 301 302 300 299 299 299 299 299 296 292 286 284 283 282 281 281 280 280 280 281 281 283 284 283 283 282 281 281 280 280 280 280 280 279 279 278 278 280 280
302 303 302 300 300 298 298 297 292 288 289 288 288 285 283 281 280 280 280 280 280 280 280 280 279 279 281 281 280 280 280 279 279 279 279 279 279 278 278 277 277 277 277 277
301 300 299 298 297 296 293 289 286 284 283 281 280 280 280 279 279 279 279 280 278 276 277 276 277 279 280 279 278 278 278 278 278 278 278 277 277 276 275 275 274 274 273 273
296 294 294 291 288 287 285 284 283 281 280 279 279 278 278 277 276 275 275 276 275 275 275 276 276 277 278 278 277 277 277 276 276 276 275 274 273 273 273 272 272 271 270 269
291 291 291 288 284 282 280 280 280 279 277 278 277 276 275 274 273 273 274 274 273 273 274 275 276 276 276 276 275 275 274 274 273 272 272 270 271 271 270 269 269 268 267 269
287 285 284 283 282 281 280 279 278 278 277 277 276 275 275 274 274 274 274 273 272 271 272 274 275 273 274 275 274 272 271 270 270 270 270 267 266 267 265 265 266 265 265 265
282 282 281 280 280 280 278 278 278 277 277 276 275 274 273 273 273 273 273 272 273 273 273 272 272 272 272 272 272 271 269 267 268 266 264 263 260 259 260 263 262 260 258 259
280 279 279 278 278 278 277 278 277 276 276 276 274 273 272 273 273 273 272 270 271 272 271 270 270 270 271 270 269 267 265 263 262 261 261 260 257 258 258 257 258 258 258 259
278 277 277 277 276 276 277 277 277 276 275 274 274 273 272 272 272 272 272 270 271 270 270 269 268 265 268 267 266 264 264 262 260 258 258 259 258 257 257 258 261 261 259 257
277 277 277 276 276 276 276 276 275 275 274 274 274 274 273 273 273 270 268 271 270 268 268 266 264 264 263 262 262 260 259 258 259 259 258 257 253 253 254 254 254 255 257 258
277 277 277 277 277 276 274 275 276 275 274 274 273 273 272 270 269 270 269 266 264 264 264 263 263 261 258 258 257 256 256 255 253 252 254 254 249 249 251 252 256 256 253 252
278 277 277 276 275 274 275 275 274 274 273 272 272 272 272 271 268 268 268 268 267 265 264 261 260 258 256 254 253 251 251 251 253 251 249 248 248 250 250 249 248 248 249 249
277 276 276 277 276 275 274 274 271 272 271 269 269 269 269 269 267 266 265 264 264 262 260 257 256 254 253 253 251 252 253 254 251 250 248 248 248 248 247 247 247 248 247 248
274 274 273 272 272 273 273 271 269 268 268 267 266 267 266 265 264 263 260 260 258 257 253 251 251 253 252 252 251 250 250 250 249 248 246 247 247 245 244 244 245 246 247 247

GFSNGP_sfc_thetae_087.txt.gz
Theta_e
291 291 292 293 292 293 291 291 289 291 292 296 297 298 299 301 301 299 300 300 303 306 309 311 311 313 315 317 317 317 316 315 316 317 317 316 316 317 317 318 317 313 311 309
287 291 292 291 293 294 294 293 292 292 292 298 299 300 298 299 300 299 300 301 301 304 305 308 310 311 313 314 315 316 316 316 312 312 314 314 313 313 310 309 309 310 309 307
283 290 290 285 291 293 294 294 292 289 294 298 297 297 298 299 299 299 301 301 301 300 305 307 309 310 309 309 310 311 311 309 308 309 307 306 307 307 306 306 306 306 305 305
283 285 280 289 296 297 295 297 297 296 297 298 298 299 298 298 298 300 300 301 307 309 308 307 310 309 309 310 308 308 307 306 306 306 305 305 304 304 303 304 303 303 302 303
283 282 286 290 293 294 293 292 299 297 298 297 297 297 296 299 299 300 302 304 308 306 305 307 307 308 307 307 307 307 306 306 305 304 303 302 301 300 301 301 300 300 300 297
285 281 278 286 296 300 300 289 299 299 300 297 297 292 295 300 302 303 307 307 304 303 305 305 306 308 307 305 305 304 304 303 303 302 302 300 300 300 301 300 297 294 291 291
284 282 284 293 297 301 288 288 299 300 299 298 295 298 299 303 304 306 306 304 304 303 303 303 304 305 303 303 302 303 302 302 301 301 300 300 299 298 294 292 289 286 285 285
284 280 278 296 299 290 294 301 302 300 302 299 300 299 302 304 305 306 305 304 303 302 301 300 300 300 300 300 301 301 301 300 299 298 298 297 294 292 290 288 285 284 283 282
287 285 293 297 301 303 303 302 302 302 304 302 300 300 303 302 305 305 305 304 303 302 300 299 299 299 298 300 300 297 293 290 290 290 290 291 290 289 287 287 285 283 282 280
290 293 294 297 300 304 304 302 304 304 305 303 301 301 301 302 303 302 303 302 301 296 292 292 293 294 296 294 291 290 288 287 286 285 285 285 285 285 284 284 284 284 282 280
290 294 295 298 300 302 304 305 304 304 305 304 303 302 301 301 299 298 294 291 290 288 287 287 289 288 289 289 288 286 285 284 283 282 281 281 281 282 281 282 284 283 282 281
287 295 294 296 300 303 302 303 304 304 304 304 304 300 300 297 294 289 286 286 285 284 284 284 284 284 285 286 286 284 283 282 282 282 282 282 281 280 283 282 282 282 281 280
294 298 298 300 302 303 303 301 303 304 304 301 301 299 294 286 285 284 283 283 282 282 282 282 282 282 283 284 284 283 283 283 283 283 282 282 281 281 279 281 282 282 281 281
297 299 298 300 299 299 298 295 295 293 294 294 290 288 286 283 282 281 280 281 281 281 281 281 281 281 283 283 282 281 280 280 280 279 279 279 279 279 279 278 277 278 281 281
296 297 300 300 298 296 293 290 286 285 284 284 285 283 283 280 279 279 280 280 280 279 279 279 278 278 280 280 279 279 279 278 278 278 278 278 278 277 276 276 275 275 276 275
299 297 297 295 294 291 289 286 282 281 282 281 280 279 279 278 277 277 277 278 276 275 276 276 276 277 278 278 277 277 277 277 277 277 276 275 274 273 273 272 272 271 271 270
294 292 291 288 286 284 283 282 281 279 279 278 278 278 277 276 275 274 274 274 274 274 275 275 275 276 277 277 276 276 275 275 274 273 272 271 271 270 270 269 269 269 268 268
288 291 291 287 283 280 280 280 279 279 277 277 277 276 275 274 272 272 272 273 272 272 273 274 275 275 275 275 274 273 272 272 271 270 270 268 269 268 266 266 266 266 266 267
284 283 282 281 281 280 279 278 278 278 277 277 275 274 274 273 273 273 273 272 270 270 271 274 275 273 273 273 271 270 269 268 268 267 267 264 264 264 263 262 261 258 260 261
281 281 281 280 280 279 278 278 277 276 276 275 274 273 272 272 272 271 271 269 270 271 272 272 272 271 270 270 269 268 267 265 265 263 261 261 258 257 258 259 260 260 257 259
279 279 278 278 277 277 277 277 276 274 274 274 273 272 271 272 272 271 269 267 269 271 270 270 270 269 268 267 267 264 263 262 260 259 258 254 254 254 253 253 254 255 256 256
277 276 276 276 276 275 276 276 275 274 273 272 272 272 271 270 269 269 269 268 269 269 269 267 266 265 265 265 264 262 261 260 258 257 255 253 252 250 250 252 253 254 254 256
277 277 276 275 275 274 275 275 274 274 273 273 273 272 272 272 271 267 265 268 268 266 266 264 262 261 260 259 258 257 256 255 253 252 250 248 247 247 247 249 251 250 249 249
276 276 276 276 276 275 273 273 274 273 272 272 271 271 270 267 266 268 267 265 264 263 262 261 260 259 256 255 254 253 253 251 249 247 249 247 244 245 247 246 247 246 247 248
276 276 276 275 274 273 273 273 272 272 271 270 270 270 270 270 266 267 266 265 264 261 259 257 257 254 252 251 252 251 248 247 246 245 244 244 244 244 244 244 244 244 245 245
276 275 275 275 274 274 273 272 270 270 269 267 267 267 266 266 266 264 263 262 261 258 257 253 250 251 249 249 247 247 248 250 246 246 245 245 244 245 243 245 243 244 244 245
273 273 273 272 272 272 271 270 268 267 268 266 264 264 264 262 261 260 258 257 255 253 251 249 249 250 248 247 248 247 248 247 246 246 244 244 243 242 242 243 243 244 245 245

GFSNGP_sfc_thetae_090.txt.gz
Theta_e
288 290 289 289 290 290 289 290 286 288 290 294 296 297 299 300 299 299 299 300 303 305 307 310 311 312 313 314 314 312 311 310 311 312 313 313 315 315 315 317 318 318 317 315
284 289 291 288 291 291 291 290 289 290 289 296 299 297 297 299 300 300 299 299 300 303 306 307 310 311 312 313 313 314 313 311 312 312 312 311 313 314 316 317 316 316 311 311
282 288 287 283 288 290 290 293 292 287 292 295 296 296 297 300 299 299 300 300 300 300 303 304 306 307 307 308 310 311 312 310 309 309 311 312 312 312 312 312 310 309 309 309
282 284 279 288 294 294 292 293 294 294 295 296 297 299 299 299 299 299 299 299 300 302 304 306 308 308 309 310 309 309 308 308 308 308 307 307 308 308 305 305 305 303 303 302
282 282 285 289 292 292 291 291 296 295 296 298 298 295 296 299 298 299 299 301 305 305 307 307 307 308 308 307 307 307 306 306 307 306 304 303 303 301 302 301 300 298 297 295
284 279 277 288 294 297 298 286 297 297 296 297 297 291 295 298 300 303 306 305 304 306 306 306 307 308 307 306 305 304 304 303 304 303 302 300 300 300 300 298 294 292 290 289
282 282 284 293 297 298 285 287 298 298 298 298 296 299 300 302 304 305 304 303 303 304 303 304 306 306 303 302 300 302 302 301 301 301 300 299 296 295 292 289 287 285 283 284
285 282 280 295 296 291 293 298 300 300 299 299 299 299 300 304 304 304 304 303 303 302 302 302 304 303 300 298 300 299 296 295 294 295 295 293 291 290 288 286 284 283 282 281
287 286 295 296 296 299 303 300 300 300 301 301 300 301 302 304 303 303 303 302 303 301 299 299 300 300 297 295 293 292 291 290 290 290 290 290 289 288 286 285 284 282 281 280
288 292 294 295 298 299 301 301 303 303 304 302 300 301 302 303 303 301 300 297 296 294 293 292 294 293 292 292 292 289 287 286 285 284 284 285 285 285 285 285 283 282 281 279
289 294 296 296 298 298 300 304 303 305 304 304 302 300 302 299 293 291 290 289 288 287 286 285 286 286 288 288 286 283 282 281 282 283 283 282 282 282 282 282 284 282 281 281
285 294 292 293 297 301 299 300 300 301 303 304 302 297 290 287 288 287 286 286 284 283 282 282 283 283 284 285 284 283 283 283 283 283 283 281 281 281 283 283 283 283 282 281
292 295 294 296 299 299 300 296 292 291 295 300 296 291 287 284 283 283 283 283 282 282 282 282 282 282 283 284 284 283 282 282 281 281 281 280 280 280 278 280 282 282 282 281
294 294 292 295 295 294 294 293 292 289 288 286 286 285 283 282 282 281 281 281 281 281 280 280 280 280 281 282 281 280 279 278 278 278 277 277 276 277 277 276 275 276 277 278
293 294 295 295 293 291 290 289 286 284 284 283 283 282 282 280 279 279 280 280 279 278 278 278 277 277 279 279 278 277 277 276 276 275 274 274 274 274 274 273 272 272 272 272
296 297 296 292 290 289 288 286 283 281 281 280 279 278 278 277 277 276 277 278 276 274 275 275 275 276 277 277 276 275 274 274 273 273 272 271 271 270 270 270 269 268 267 267
291 291 289 287 284 282 281 282 281 279 279 278 277 277 276 275 274 273 273 274 274 273 274 274 274 275 276 275 274 274 273 272 271 271 270 269 268 267 267 266 266 266 265 264
288 286 289 286 281 280 279 280 279 279 277 277 276 274 273 272 271 271 271 272 272 272 273 273 274 273 273 273 272 271 270 270 269 267 266 265 265 265 263 262 262 262 262 263
283 282 281 281 280 279 278 278 277 277 276 275 274 272 272 272 271 271 272 271 270 270 270 272 273 271 271 271 270 269 267 265 265 264 264 261 260 261 259 258 259 257 258 259
281 280 280 279 279 279 277 277 276 275 275 274 273 271 270 269 269 269 270 269 270 271 272 270 270 269 268 267 267 266 264 263 263 260 259 258 255 253 255 256 257 255 253 255
279 279 278 277 276 276 276 276 275 273 273 273 271 270 269 269 269 269 268 267 269 270 269 268 268 267 266 265 264 262 260 259 258 255 254 251 252 253 251 248 250 249 249 249
277 276 275 275 275 274 274 274 274 273 272 271 270 269 268 267 267 267 268 267 267 267 266 265 264 262 262 262 261 259 259 257 255 255 252 251 248 246 245 246 246 247 247 247
276 275 274 273 273 273 274 274 273 273 271 271 270 270 269 269 268 265 263 266 266 264 264 262 260 259 257 257 256 254 254 252 250 248 245 244 244 243 245 246 246 244 245 247
275 274 274 274 274 273 271 272 272 271 270 270 269 269 268 265 265 266 265 262 261 261 260 259 257 256 253 254 253 251 249 247 245 243 246 244 242 243 244 243 244 244 244 245
275 275 275 273 272 271 271 271 270 270 270 269 269 269 268 268 264 264 263 262 262 259 256 254 254 253 251 250 249 247 245 244 243 243 243 243 243 242 241 242 241 242 243 243
275 273 273 274 273 272 271 270 268 268 267 265 265 265 265 265 264 263 261 260 259 256 254 251 248 249 248 248 245 245 246 248 245 245 243 243 242 243 241 243 242 242 243 243
273 272 271 270 271 271 270 269 267 266 266 264 262 263 262 261 260 259 257 256 253 252 249 247 247 249 247 245 246 245 246 245 244 245 242 241 241 240 239 240 241 242 243 243

GFSNGP_sfc_thetae_093.txt.gz
Theta_e
287 288 288 288 287 289 288 290 287 290 292 296 300 302 305 307 306 304 304 303 308 311 313 315 315 316 317 317 317 317 316 316 316 317 318 318 319 319 320 321 321 322 322 321
284 288 288 286 289 291 291 292 292 292 293 300 303 303 302 304 304 304 306 305 306 309 312 313 315 316 316 317 317 317 315 315 316 316 316 317 318 319 320 321 322 321 319 318
281 288 288 284 288 291 293 294 294 290 296 300 299 300 302 304 305 304 305 305 305 305 309 312 314 315 316 316 318 317 315 315 315 315 315 316 317 318 318 319 320 318 317 315
281 284 278 289 295 296 293 294 297 297 299 300 302 304 304 305 305 305 305 305 305 304 307 310 311 312 313 314 316 316 316 314 314 314 313 313 315 315 312 308 306 304 301 300
279 281 286 287 293 293 291 292 298 296 299 301 303 300 301 303 304 304 305 304 307 308 310 310 310 311 311 311 310 310 310 310 310 310 308 306 305 303 302 300 297 295 294 292
282 278 277 288 296 299 298 289 300 300 300 300 302 296 300 303 304 307 307 307 307 308 308 309 309 311 309 307 305 303 303 303 304 304 302 301 300 298 295 293 290 289 287 287
280 280 285 294 297 301 286 290 300 302 302 301 299 302 304 306 304 303 303 304 306 307 306 307 308 307 303 302 300 301 301 301 300 299 297 296 295 293 290 288 286 285 283 284
282 280 278 297 298 291 295 299 301 303 303 303 303 303 306 306 304 303 302 303 304 303 303 304 303 302 299 296 297 296 296 294 294 293 293 293 291 289 288 286 284 283 281 281
286 284 296 298 297 300 303 299 302 303 305 304 302 303 304 302 302 301 300 300 300 299 297 298 300 299 294 293 293 292 290 289 288 288 288 289 288 287 285 285 283 282 281 280
289 292 294 297 299 300 301 301 303 306 305 305 303 304 302 301 297 295 296 295 293 291 289 288 290 292 291 291 290 289 288 287 286 286 285 286 285 285 285 284 283 282 281 279
289 292 295 297 298 299 300 303 304 305 306 304 303 296 294 292 291 289 289 289 289 287 286 285 286 287 288 288 289 287 287 286 285 284 283 282 282 283 282 282 283 283 283 283
286 293 294 295 298 299 301 298 297 301 305 304 299 293 289 287 287 287 286 286 285 285 285 284 285 286 287 288 288 287 285 285 284 284 283 282 282 281 283 282 282 282 282 282
291 295 297 297 298 299 299 296 294 294 295 293 292 290 287 285 285 284 284 284 283 282 283 283 282 282 283 285 285 284 283 282 282 282 282 281 282 281 278 279 279 280 280 279
296 296 294 295 295 297 296 293 291 290 289 288 287 286 285 283 283 282 281 281 281 280 280 280 279 279 281 281 281 280 279 279 280 279 280 279 279 279 279 277 275 275 275 275
295 296 296 297 295 292 292 292 289 287 286 285 285 283 282 281 280 279 279 279 279 278 277 278 277 277 279 279 279 279 278 277 277 277 276 276 276 275 275 274 273 272 272 272
296 296 298 295 293 291 290 288 284 283 282 280 280 279 279 279 277 277 277 278 275 274 275 275 275 276 277 277 276 275 275 274 274 274 273 273 273 272 272 271 270 269 269 268
293 294 293 291 287 285 286 285 284 282 280 279 278 277 276 275 274 273 273 274 273 273 274 274 274 276 276 276 275 274 273 272 271 271 271 270 270 270 269 269 268 268 267 265
289 288 289 292 285 282 281 281 281 280 278 277 276 275 274 272 271 271 272 272 272 271 272 273 274 273 273 273 273 272 271 270 269 268 268 268 268 268 267 266 266 266 266 265
284 284 284 283 283 282 280 279 279 277 276 275 274 272 272 272 272 271 272 271 270 269 270 272 272 271 271 270 270 269 268 268 267 267 266 265 265 265 265 265 264 263 264 263
281 281 281 280 281 280 278 278 277 275 274 273 272 271 270 270 271 271 271 269 270 270 270 270 269 268 268 267 268 268 267 266 265 264 264 263 263 263 263 261 262 262 262 262
280 279 278 277 276 276 276 275 274 272 272 272 270 269 269 270 270 270 269 267 268 269 269 268 268 267 267 266 266 265 264 263 263 262 262 261 261 261 260 260 260 260 259 259
277 276 275 275 274 274 274 274 273 272 270 269 269 269 268 267 267 267 268 267 267 267 267 266 265 264 264 264 264 263 263 262 262 261 261 260 260 259 259 259 258 258 258 258
275 274 274 273 272 272 272 272 271 270 269 270 269 269 269 269 269 266 264 266 266 265 265 263 261 260 260 262 261 261 260 260 260 259 259 259 258 258 258 257 257 257 256 256
274 274 273 273 273 272 270 271 271 270 269 269 268 268 267 265 265 266 265 263 262 263 263 262 260 259 260 260 260 259 260 259 259 259 258 255 257 257 257 256 255 256 255 255
274 274 273 272 271 270 270 270 270 269 269 268 268 268 268 267 265 265 264 263 263 262 261 258 258 257 260 260 259 259 259 259 258 258 257 257 256 256 256 255 254 255 254 254
274 273 273 273 272 271 270 270 268 267 266 265 265 265 265 265 264 264 262 261 261 260 260 259 259 259 259 259 259 258 259 258 258 257 256 256 255 255 254 254 254 254 254 254
272 272 271 270 271 271 270 268 267 266 266 265 263 264 263 263 262 261 260 259 259 258 258 259 259 259 259 259 258 257 257 257 254 256 256 255 254 254 253 253 253 253 253 253

GFSNGP_sfc_thetae_096.txt.gz
Theta_e
288 289 289 288 289 290 291 292 289 293 294 297 300 302 304 308 310 310 312 311 313 317 319 320 321 322 322 323 323 323 322 321 321 322 323 322 322 322 322 322 322 321 322 322
286 290 289 287 289 291 291 293 294 294 294 302 304 305 305 306 307 308 310 312 313 314 317 320 321 321 322 323 323 323 322 321 322 322 322 322 322 322 322 322 323 323 323 324
282 289 289 285 289 291 292 295 296 293 298 303 302 303 305 307 309 309 310 312 313 313 314 318 320 321 322 323 324 323 322 322 322 322 321 321 321 321 320 321 322 320 318 315
282 285 278 290 297 296 294 297 300 300 301 302 304 306 308 309 309 310 311 311 312 314 313 314 320 322 323 323 323 322 322 321 321 320 320 320 320 319 317 310 306 301 297 295
280 281 285 289 293 295 295 294 301 302 303 303 305 306 306 309 310 309 309 310 312 313 314 316 316 319 320 320 321 320 316 317 318 318 314 309 305 304 301 297 292 290 290 289
283 278 276 287 297 301 300 289 303 303 303 305 306 299 303 309 310 311 311 312 313 314 315 315 315 316 312 310 308 305 305 304 304 303 301 298 295 293 292 290 288 287 286 287
282 280 284 292 297 302 288 291 301 303 302 305 304 307 310 310 306 309 309 309 310 310 309 310 311 307 303 302 300 300 299 298 296 296 294 293 291 290 288 286 285 284 283 284
282 280 278 296 297 290 295 301 302 302 302 304 308 308 310 305 304 304 304 304 306 304 304 306 306 302 297 295 295 295 293 292 292 292 291 290 289 288 286 285 284 283 282 281
288 286 295 298 297 299 300 300 301 301 302 306 308 308 303 302 301 300 299 297 295 294 295 296 298 296 292 292 293 292 292 291 290 289 289 289 288 287 286 285 284 282 281 280
290 292 295 296 297 299 300 302 304 306 306 308 305 306 302 301 299 297 295 293 293 291 290 290 292 292 292 293 293 292 290 290 290 288 287 287 286 285 285 285 283 283 282 281
290 293 294 296 298 299 300 304 303 303 307 308 304 302 299 296 295 294 291 291 291 290 289 289 291 292 294 295 294 291 289 289 288 286 285 283 283 284 283 283 285 284 283 283
288 295 294 294 298 300 300 303 302 302 308 307 303 298 295 291 290 289 288 288 288 288 288 288 290 291 292 294 293 290 288 288 288 287 286 284 282 280 281 281 281 281 281 281
295 298 298 299 300 301 302 300 299 300 304 298 295 293 289 286 285 285 286 286 285 285 285 285 286 286 288 291 288 287 285 285 286 286 286 284 282 281 277 278 278 278 278 278
298 298 296 298 297 301 300 298 296 295 295 293 290 288 286 285 284 281 281 282 282 282 281 282 281 280 282 284 283 283 283 283 284 283 283 283 282 281 281 279 276 275 274 274
298 300 299 300 300 299 299 299 294 291 291 288 287 284 283 281 279 279 279 279 278 278 277 277 276 277 281 282 283 283 282 281 281 281 280 280 280 279 278 277 276 275 275 274
299 299 299 299 300 298 296 295 292 287 285 284 282 280 279 279 278 277 278 278 276 274 276 276 277 279 280 280 279 279 278 277 278 278 278 277 277 276 275 275 274 273 271 271
296 296 297 298 296 294 294 293 290 284 282 280 279 278 277 275 274 273 273 274 275 275 276 277 277 279 279 279 278 277 276 275 275 275 275 274 274 274 273 273 272 271 269 268
295 296 296 296 296 291 289 289 287 283 280 278 277 276 275 273 271 271 272 272 272 273 274 274 275 276 275 276 276 275 274 274 273 273 273 272 272 272 271 271 270 270 270 268
290 290 290 291 293 290 287 285 282 279 277 276 274 273 273 272 272 271 272 272 271 270 271 273 274 273 273 273 274 274 273 272 271 270 270 269 270 270 270 269 269 268 268 268
284 286 287 287 287 286 281 279 278 276 276 274 273 272 272 272 272 272 273 271 272 271 272 272 272 271 271 272 272 272 272 271 269 269 269 269 269 268 267 265 267 267 267 267
281 282 281 281 279 279 278 277 275 274 274 273 271 270 270 271 272 272 271 269 270 271 271 271 270 270 270 270 270 271 270 269 268 268 268 267 267 267 267 266 266 266 266 265
277 276 276 276 275 275 275 275 274 273 272 271 270 270 269 269 269 269 270 269 270 269 270 269 269 268 268 268 269 269 268 268 267 267 267 267 266 266 265 265 264 264 264 264
275 275 274 273 272 272 272 272 271 271 270 271 271 271 270 270 270 268 266 268 269 268 268 266 264 265 266 268 268 267 266 266 265 265 265 265 265 265 264 263 264 264 263 262
275 275 274 274 274 273 271 271 271 271 270 270 269 270 269 267 267 268 267 266 266 267 266 265 264 264 265 267 266 266 266 266 265 265 264 262 264 264 263 262 262 263 262 261
275 274 274 273 272 271 271 271 270 269 269 269 268 269 269 269 267 267 267 266 266 266 264 262 263 264 266 266 265 265 265 265 264 264 264 263 263 263 263 262 261 261 260 261
275 274 274 273 272 272 271 271 269 268 268 266 267 267 267 267 266 266 266 265 265 265 265 265 265 265 265 265 264 264 264 264 264 263 262 263 262 262 261 260 260 260 260 260
273 272 272 271 272 271 270 270 268 267 268 267 266 267 267 266 266 265 265 265 265 264 264 265 265 264 265 264 264 263 264 263 259 261 262 262 261 261 260 259 260 259 259 259

GFSNGP_sfc_thetae_099.txt.gz
Theta_e
289 290 290 289 290 291 291 293 290 294 294 299 302 303 305 307 307 309 311 313 316 319 321 323 324 324 324 325 324 323 322 322 322 324 325 325 324 325 324 324 324 324 323 323
286 290 290 288 290 291 291 292 293 295 295 302 304 305 305 306 307 307 309 311 314 317 319 321 322 324 324 325 325 325 323 323 323 324 324 324 324 324 323 323 323 323 322 322
283 288 288 285 289 290 291 292 293 290 296 302 302 303 304 305 306 306 310 311 313 315 317 320 323 323 324 325 326 325 324 324 324 324 323 323 323 322 322 322 321 307 301 298
283 286 278 290 297 296 295 295 295 295 296 301 303 306 307 308 307 308 311 312 314 315 316 318 323 324 325 325 325 324 324 323 324 324 323 323 321 312 303 299 295 293 291 290
281 282 286 288 292 294 294 294 300 300 302 304 308 308 307 310 310 311 312 314 314 316 316 317 319 323 324 324 324 324 323 323 323 323 316 307 301 296 293 291 289 288 289 288
283 279 277 288 297 300 301 290 302 302 301 304 306 301 304 310 312 313 314 315 316 317 318 318 320 322 323 321 316 307 306 304 304 302 298 294 291 289 289 287 287 286 286 286
283 281 286 293 295 299 288 291 301 301 302 302 302 305 310 314 311 313 313 313 315 316 316 315 314 310 304 301 298 298 297 295 294 293 291 290 288 287 286 285 284 283 283 284
284 281 280 296 296 290 296 301 301 302 303 304 304 305 311 308 306 307 307 308 309 309 307 305 304 301 296 294 295 294 293 292 291 290 290 289 287 286 286 285 283 282 282 281
288 288 295 297 298 300 301 298 301 301 304 304 303 304 305 302 301 300 299 298 299 298 296 297 297 295 292 292 293 291 290 289 289 289 289 289 287 286 285 285 283 283 282 282
291 293 295 297 300 297 299 299 301 304 304 306 303 306 303 301 298 296 295 294 294 293 291 291 292 293 293 293 292 291 289 288 288 287 286 286 286 287 287 286 285 284 283 282
291 294 296 296 298 299 299 301 301 304 303 306 307 306 303 298 295 293 292 292 292 290 290 291 293 293 293 293 292 289 288 288 286 285 283 283 283 283 281 282 285 282 282 282
289 295 295 296 299 300 299 300 302 302 306 306 305 301 296 291 291 290 289 290 289 289 290 292 292 292 293 294 293 291 289 288 286 285 283 281 280 279 280 280 279 280 280 279
294 298 298 299 300 301 300 302 301 302 303 298 295 293 289 286 285 285 285 286 286 286 287 289 289 289 291 292 291 289 287 287 286 285 284 282 280 278 275 276 278 277 277 276
299 299 297 299 298 301 302 302 299 299 297 292 288 287 286 284 282 280 279 279 280 281 282 282 282 283 285 286 286 285 285 285 286 285 285 284 283 282 281 278 276 274 274 274
298 300 300 301 301 300 301 301 298 295 291 286 285 282 281 279 278 278 278 278 278 277 277 278 279 280 283 283 283 283 283 282 282 282 282 282 282 281 280 279 276 276 275 275
299 300 300 300 300 301 300 300 298 292 287 284 282 281 279 278 277 277 278 279 277 276 277 277 278 279 280 281 281 281 280 280 280 280 280 279 278 277 276 276 274 273 271 271
296 295 297 300 299 299 298 298 297 291 285 282 280 278 276 275 274 274 275 276 276 277 278 278 278 280 281 280 280 279 278 277 278 277 277 276 276 276 275 275 273 271 269 268
297 297 298 298 298 298 296 294 290 286 282 279 277 276 275 274 272 272 273 274 274 274 275 275 277 277 277 277 277 278 277 276 276 275 275 274 274 274 273 273 272 272 271 269
292 292 294 294 297 297 294 291 285 281 278 277 275 273 273 273 273 273 274 273 272 271 272 275 275 275 275 275 276 275 275 274 273 273 273 272 273 273 272 272 271 271 271 270
286 287 288 290 291 291 286 283 280 278 277 275 273 273 272 273 273 272 272 271 272 272 273 273 273 273 273 274 275 274 274 273 273 272 272 272 271 270 269 268 270 270 270 269
282 282 282 281 281 281 280 279 277 275 275 275 272 271 271 272 272 272 271 269 271 273 273 273 273 273 273 273 274 274 273 272 272 271 271 270 270 270 270 270 269 269 268 268
280 278 278 277 276 276 277 276 275 274 273 272 272 271 270 269 270 270 271 269 270 271 271 271 271 271 272 272 273 272 272 271 271 271 270 270 270 269 269 268 268 267 267 267
278 276 275 273 272 272 273 273 272 272 271 271 271 271 271 271 271 269 267 270 270 269 269 268 268 269 270 272 271 271 270 269 269 269 269 269 268 268 267 266 267 267 266 265
276 275 274 274 274 272 271 271 272 272 271 271 271 271 270 268 268 269 269 268 268 268 268 267 268 268 269 271 270 270 269 269 269 268 267 267 267 267 266 265 265 266 265 264
276 276 275 274 272 272 271 271 271 271 270 270 270 270 270 270 268 268 268 267 266 266 266 266 267 268 269 270 269 269 268 268 268 268 267 266 266 266 266 265 264 263 263 264
277 276 276 275 274 273 273 272 270 270 269 267 268 269 269 269 269 268 267 267 267 267 268 268 268 268 268 268 268 267 267 267 266 265 265 266 265 265 264 263 263 263 263 263
275 275 274 273 273 273 272 271 270 269 269 268 267 268 268 267 267 267 267 267 267 267 267 268 268 267 268 267 267 267 266 265 261 264 265 265 265 265 263 263 263 262 262 262

GFSNGP_sfc_thetae_102.txt.gz
Theta_e
286 287 288 287 288 289 288 291 288 291 292 297 300 301 304 306 307 307 307 309 313 318 320 322 322 323 323 323 322 322 321 321 321 322 323 323 322 322 322 322 321 321 321 321
283 287 288 285 288 289 289 290 290 291 291 298 301 302 302 303 305 305 307 308 310 316 319 321 323 323 323 323 321 322 320 320 322 323 323 322 322 322 322 321 322 321 318 308
280 286 286 282 286 288 289 292 291 288 293 297 298 300 302 303 305 306 306 307 309 313 316 320 322 324 323 324 323 321 320 321 321 322 322 321 322 321 320 315 303 297 295 293
281 284 276 288 293 293 292 293 294 294 295 296 297 301 306 309 306 307 307 308 310 314 315 317 322 323 324 324 324 322 322 322 322 322 321 322 316 301 297 294 292 290 289 289
279 280 285 287 291 293 293 293 299 298 301 303 305 306 307 310 312 313 312 313 314 315 316 316 319 323 323 322 323 322 321 321 321 322 306 299 295 292 291 289 288 287 287 287
282 277 275 286 294 298 296 287 300 299 298 299 302 297 302 307 312 311 313 315 315 317 318 317 316 321 321 319 316 306 305 303 300 298 295 291 290 288 288 287 286 285 285 285
282 280 284 292 294 297 284 287 298 300 299 300 299 302 306 308 309 310 310 310 314 312 311 309 307 305 301 299 297 296 295 294 292 291 289 290 288 287 286 284 284 283 282 283
283 280 278 296 295 289 295 298 299 300 300 301 302 305 305 308 304 303 302 302 305 304 302 303 303 298 294 292 293 293 292 290 290 289 288 287 286 285 284 284 282 282 281 281
287 287 296 298 298 301 300 298 299 299 301 302 302 304 304 304 299 297 297 297 297 295 294 295 296 295 291 291 291 291 289 290 288 288 287 287 285 285 284 284 283 282 282 281
289 293 295 297 299 299 299 298 299 300 301 302 302 304 304 300 297 294 294 293 293 292 291 291 292 292 291 290 290 288 286 286 285 284 284 284 285 286 285 284 283 281 280 278
291 294 296 297 298 299 299 299 300 301 303 304 305 302 300 295 292 291 291 291 292 291 290 290 291 290 290 289 288 285 284 283 282 281 280 279 279 280 279 280 281 278 278 278
288 295 294 295 299 300 299 299 301 301 303 300 299 295 292 288 288 289 288 289 290 291 290 290 291 290 290 290 288 286 284 282 281 280 279 278 277 276 279 279 279 279 278 276
294 297 297 298 299 300 299 301 301 300 297 294 291 289 286 284 283 282 281 283 283 283 285 286 288 289 290 289 288 285 283 282 281 280 278 277 276 274 273 275 277 277 276 276
298 298 296 298 298 301 301 300 298 294 291 289 287 286 283 280 279 278 277 278 279 280 281 281 282 282 285 285 285 285 284 284 283 282 280 278 277 276 276 273 271 272 275 275
298 299 299 300 301 300 302 301 298 291 288 284 283 281 280 278 277 277 278 279 279 279 279 279 279 279 282 282 282 282 282 281 282 281 281 280 280 278 277 275 273 273 273 274
296 298 299 297 299 300 300 300 296 289 285 282 280 279 278 278 277 277 278 278 277 276 277 278 278 279 280 280 280 280 280 280 279 279 278 277 276 275 274 272 270 269 268 269
295 294 296 295 296 298 299 299 296 288 284 281 278 277 277 276 275 274 274 276 276 276 277 277 277 279 279 278 278 277 277 277 277 277 276 275 275 274 273 271 268 267 267 266
295 295 295 295 295 295 297 292 289 285 281 279 276 276 275 273 272 273 273 274 274 273 275 275 276 277 277 277 277 276 276 275 274 274 274 273 273 273 272 271 270 269 268 268
291 290 291 293 293 294 291 287 283 280 277 276 274 273 273 273 273 273 273 272 272 271 273 275 276 275 275 276 275 275 274 273 273 273 272 272 271 271 271 270 269 269 268 268
286 286 286 284 284 284 281 281 279 277 275 274 273 273 272 272 272 271 271 270 272 272 274 274 274 274 274 274 275 274 273 272 272 271 270 269 268 267 267 267 268 268 267 266
281 281 280 279 279 279 279 278 275 274 275 274 272 271 271 271 271 271 270 269 271 273 273 273 273 273 274 274 273 273 272 271 270 270 269 269 269 268 268 268 267 267 266 265
279 277 277 276 276 275 276 276 275 273 273 272 272 271 270 269 269 269 270 270 271 271 271 271 272 272 273 273 272 272 271 271 270 270 269 269 268 267 266 266 265 265 265 264
276 275 274 273 273 273 273 273 272 272 271 271 271 271 270 270 270 268 266 269 270 269 270 270 271 271 271 271 270 270 269 269 268 268 267 267 267 266 264 263 265 264 263 261
275 274 274 274 274 273 271 272 272 272 271 270 270 270 269 267 267 268 269 268 268 268 268 269 270 270 270 270 270 269 268 267 267 266 266 266 266 265 264 262 262 264 261 260
276 275 274 273 272 271 271 271 270 270 270 269 269 270 270 270 267 266 266 267 268 267 268 268 269 269 269 269 268 267 266 266 267 266 266 265 265 264 264 263 261 260 261 261
276 276 275 274 273 273 273 272 270 270 269 267 267 268 268 268 268 267 267 267 268 268 268 268 268 268 268 268 267 266 266 266 264 264 264 264 263 264 262 261 261 261 260 259
275 275 274 274 274 273 272 271 269 268 268 268 266 268 268 267 267 267 267 267 267 267 267 267 267 268 268 267 267 266 264 262 260 264 263 263 263 263 261 260 260 259 259 258

GFSNGP_sfc_thetae_105.txt.gz
Theta_e
284 285 285 284 284 285 284 287 285 288 287 294 298 300 302 304 304 302 304 303 306 310 313 317 318 318 319 319 318 319 318 317 317 317 316 317 316 316 318 318 318 318 317 319
280 283 283 282 284 285 286 287 287 288 288 296 296 299 299 302 302 302 303 305 305 305 312 316 318 318 319 319 319 319 318 318 318 318 318 317 316 316 316 316 317 312 301 300
277 282 282 278 283 285 286 288 288 284 289 294 293 295 301 305 307 307 309 310 309 306 307 313 319 320 319 319 320 318 318 318 319 319 318 318 318 318 317 304 298 295 292 291
277 280 272 283 290 290 288 289 292 296 297 298 299 302 306 308 306 307 308 309 310 311 311 312 320 320 319 320 318 318 317 318 319 319 319 318 310 299 295 293 291 289 288 288
277 277 281 285 289 291 290 290 297 295 297 299 299 302 301 306 308 306 307 308 310 309 308 307 311 320 320 319 318 317 316 317 318 319 302 298 294 292 291 289 287 287 287 286
278 275 271 284 292 294 293 284 296 297 296 297 298 291 297 304 306 305 306 305 307 306 305 303 301 314 316 314 309 301 298 298 299 297 294 291 289 288 287 286 285 285 285 286
277 275 281 290 294 296 281 284 296 297 297 297 293 296 301 305 303 303 301 300 302 299 297 299 299 299 296 295 294 296 296 295 292 291 289 288 287 287 285 284 283 282 282 283
278 273 274 294 294 287 292 294 295 296 297 297 298 300 303 303 299 298 296 297 297 294 294 296 295 296 294 292 293 294 293 292 291 289 288 287 286 285 284 283 282 281 281 281
280 280 293 296 294 298 296 294 294 294 296 297 297 302 303 297 295 294 294 294 294 293 293 293 293 293 292 292 293 293 291 290 289 288 287 286 285 284 283 283 282 281 281 279
287 291 292 296 298 298 295 294 295 297 297 300 300 301 298 294 293 291 291 291 292 291 290 289 290 290 289 290 290 288 287 286 285 285 284 285 285 284 283 281 280 279 277 275
288 292 295 296 297 297 297 296 296 301 300 299 298 294 293 290 289 289 290 291 291 290 289 288 289 288 289 288 286 284 283 282 281 280 280 279 279 279 278 279 279 277 276 276
286 293 292 294 296 298 296 298 300 300 294 293 293 291 288 286 285 285 284 285 287 289 288 288 288 287 287 286 285 283 281 280 279 278 277 277 276 276 279 278 278 278 278 277
291 297 296 296 298 299 299 297 295 293 292 289 287 286 284 281 281 281 281 281 282 282 283 284 286 285 285 285 283 281 279 279 278 277 276 275 274 273 272 275 278 277 278 278
295 295 294 296 295 299 296 293 291 288 288 286 284 283 281 279 278 278 278 280 280 280 281 281 282 283 285 284 283 281 280 279 277 276 275 274 273 273 273 271 271 272 276 276
293 297 297 297 298 299 297 293 288 285 283 281 281 280 279 277 277 277 278 279 279 279 279 279 279 280 282 283 282 281 281 280 280 279 278 277 275 274 273 272 272 272 273 273
296 296 296 296 295 297 297 292 286 283 281 279 278 278 278 278 277 277 278 279 277 276 277 277 277 278 279 279 279 279 278 278 277 277 276 275 273 272 270 269 269 268 268 268
289 289 291 291 292 293 293 293 286 282 280 278 277 277 276 275 274 274 274 275 275 275 276 276 276 278 278 278 278 277 277 276 276 276 275 273 272 269 268 268 267 267 267 268
288 289 289 288 288 290 288 285 282 280 278 277 276 275 274 273 272 272 273 274 274 273 275 276 276 276 277 277 276 275 275 274 274 273 273 272 272 271 269 268 267 267 266 267
285 285 285 284 286 284 282 279 278 277 276 275 274 273 273 272 272 272 273 272 272 271 273 275 276 275 275 275 274 274 273 272 272 271 271 270 269 269 268 267 266 265 265 265
281 281 281 281 282 281 279 278 277 275 275 274 274 272 271 271 271 271 271 270 271 272 274 274 274 274 274 274 274 273 272 270 269 268 268 267 266 266 266 265 265 263 261 260
278 278 278 277 277 277 276 276 274 273 274 273 271 270 270 270 271 271 269 269 272 273 274 274 273 273 273 273 272 271 270 269 268 268 267 267 266 265 264 262 263 261 259 259
274 271 272 274 274 273 274 274 274 273 272 271 271 270 269 268 268 268 269 269 270 271 272 272 272 272 272 272 271 270 270 269 269 268 266 266 264 262 261 261 260 259 256 254
268 270 269 269 271 271 272 272 272 271 270 270 269 269 269 269 269 267 265 269 270 270 271 270 270 270 270 270 269 268 268 267 266 266 265 264 262 260 259 258 257 256 253 253
268 269 271 272 271 271 269 270 270 270 269 269 268 268 268 266 266 268 268 268 269 269 270 270 270 270 269 268 268 267 266 265 265 264 263 260 259 257 257 256 256 252 251 254
273 272 271 271 269 268 269 269 269 268 268 268 268 268 268 268 265 266 267 268 269 268 268 269 269 267 266 265 264 263 264 265 264 263 262 261 260 257 254 252 251 251 253 251
273 273 272 271 271 271 271 270 267 267 266 265 266 266 266 267 267 267 267 267 268 268 267 267 267 267 266 265 265 264 263 263 262 262 260 259 257 256 252 251 251 251 249 249
272 273 272 271 271 270 269 268 267 266 267 266 265 266 267 267 266 266 266 266 266 266 265 266 267 267 266 265 263 262 261 260 260 260 258 256 255 251 250 250 250 250 249 249

GFSNGP_sfc_thetae_108.txt.gz
Theta_e
282 283 282 281 281 282 281 283 281 284 285 289 293 297 301 303 302 303 303 307 308 312 314 316 316 316 316 316 316 316 316 316 317 316 315 313 314 314 315 316 317 318 317 316
279 283 282 280 282 282 283 283 283 285 286 293 298 298 300 302 305 306 307 309 309 310 312 317 318 317 317 317 316 317 316 315 316 317 316 314 313 313 313 314 315 310 306 300
276 282 281 277 281 282 283 285 285 281 288 297 297 300 302 304 305 305 305 306 308 308 307 307 318 319 318 317 317 317 316 316 316 316 315 315 315 314 311 301 297 294 293 292
276 279 270 280 288 288 285 287 290 293 295 297 297 302 303 305 304 304 304 304 306 305 304 303 304 318 319 319 318 317 316 316 317 316 315 315 309 299 296 294 291 289 288 288
271 274 279 281 287 288 286 286 295 294 295 297 298 300 299 305 306 304 302 303 303 302 301 300 301 308 319 318 318 317 316 316 317 317 306 299 295 292 291 289 288 287 287 286
275 272 272 283 290 294 292 283 295 296 295 295 296 289 292 303 304 301 300 299 299 298 298 297 298 301 313 312 315 305 302 302 305 301 297 293 290 289 288 287 286 286 285 286
276 271 278 288 291 293 281 284 296 295 296 294 292 294 298 303 299 298 296 296 296 295 294 295 297 298 296 296 295 299 298 297 296 295 291 289 288 287 286 285 284 284 283 284
278 271 273 293 293 286 290 293 294 293 294 294 296 300 300 297 295 294 292 293 293 292 292 293 296 296 293 293 295 296 294 292 290 289 289 288 286 285 284 283 282 281 281 281
278 279 290 294 293 296 295 293 293 292 293 296 298 299 296 293 291 291 291 291 292 291 290 290 292 293 292 293 293 292 291 289 288 287 286 286 284 284 283 283 281 280 279 278
285 288 290 294 297 298 297 292 293 295 298 299 296 297 293 290 290 290 291 291 291 290 288 287 288 289 289 290 290 288 287 286 286 286 285 284 284 283 282 280 279 278 277 276
287 288 291 294 297 297 296 295 295 297 296 296 295 291 290 288 287 287 286 290 290 288 287 286 286 286 286 286 286 284 283 282 281 280 279 279 279 279 278 279 278 276 276 276
283 291 291 292 296 297 295 296 298 294 290 289 289 287 285 283 283 283 284 285 285 287 286 286 285 284 284 285 283 281 280 279 278 278 277 277 276 276 280 279 280 279 279 278
289 294 294 295 297 298 294 293 291 290 289 286 285 284 282 280 280 281 281 282 282 283 284 284 283 282 282 282 281 279 278 277 277 276 276 275 275 274 273 277 279 279 279 279
295 294 294 295 294 294 292 288 288 286 285 284 282 281 280 279 277 278 278 280 281 282 282 282 281 280 281 281 279 278 277 276 275 274 274 274 273 273 273 272 272 273 277 278
294 296 296 296 297 294 293 289 285 282 281 280 280 279 279 277 276 277 278 278 278 278 278 279 279 280 282 281 279 278 277 276 275 275 274 274 273 273 273 273 272 271 271 272
292 291 292 292 292 295 292 288 283 281 279 279 278 278 277 277 276 276 276 277 276 274 276 276 277 278 279 279 278 278 277 277 276 275 274 273 272 271 271 270 270 270 268 267
285 284 285 285 288 290 287 287 283 280 279 278 278 277 276 275 274 273 274 275 275 275 275 276 276 278 278 278 278 277 276 276 275 274 272 271 270 270 269 269 268 268 267 267
283 285 284 284 284 286 282 281 280 279 278 277 276 275 274 273 272 272 272 273 273 273 274 275 276 276 276 276 276 276 275 274 273 272 270 269 269 269 268 268 267 266 265 265
282 281 281 281 283 282 281 279 279 278 276 275 274 272 272 272 272 272 273 272 272 271 273 275 276 275 275 275 275 274 273 272 271 271 270 270 269 268 266 265 265 265 264 263
278 278 278 279 279 280 278 278 277 275 275 274 273 272 271 271 271 271 271 270 272 273 274 274 274 274 274 274 273 272 271 270 269 269 268 267 266 265 264 264 263 261 260 260
274 275 275 275 275 276 275 275 274 274 273 273 271 270 270 270 271 271 269 269 272 274 274 273 273 272 272 272 272 271 270 269 268 267 267 266 265 264 263 261 260 259 260 260
268 266 267 269 271 272 273 274 273 272 271 271 270 270 268 268 268 268 269 269 271 272 272 272 272 272 271 271 271 269 269 268 267 266 265 264 263 262 261 260 259 259 258 256
263 264 265 266 267 269 271 271 271 271 270 269 269 269 268 268 269 267 266 270 271 270 270 270 270 270 269 269 268 268 267 266 265 265 264 262 262 261 260 257 256 256 254 253
265 268 267 268 268 268 266 267 268 268 268 268 268 268 267 266 266 268 269 270 270 270 269 269 269 269 268 267 267 266 265 265 264 262 261 260 259 259 259 257 256 251 253 254
268 268 266 266 267 267 267 268 268 267 267 266 266 267 267 268 267 268 269 269 269 268 267 266 266 266 266 265 265 265 265 264 263 262 262 261 259 257 255 255 254 253 250 249
270 270 267 267 268 269 269 268 266 266 266 264 265 266 266 267 267 267 268 267 267 267 266 266 265 265 265 264 264 264 264 263 262 262 261 259 258 255 255 254 250 248 247 247
270 271 270 269 269 269 268 267 266 265 266 265 264 266 266 266 266 266 266 265 265 265 266 266 266 265 264 263 263 262 262 262 260 260 258 257 255 252 250 249 248 247 246 246

GFSNGP_sfc_thetae_111.txt.gz
Theta_e
280 281 281 280 280 280 279 281 277 279 281 285 289 291 295 301 302 302 304 308 308 308 313 315 316 316 316 315 313 314 314 314 314 316 315 315 314 315 316 315 315 315 315 315
278 281 281 279 281 281 281 281 281 281 280 288 292 296 298 301 302 302 303 305 307 306 307 308 311 316 316 315 314 314 313 315 315 315 313 313 313 313 315 315 314 313 309 305
274 280 280 276 279 281 281 283 282 278 283 291 295 297 300 301 302 303 304 304 305 304 304 304 305 308 317 317 317 314 314 314 316 314 312 311 312 312 311 304 301 297 295 294
275 278 269 279 285 285 283 285 288 285 289 295 296 300 302 304 303 302 302 302 303 301 301 301 302 305 313 318 316 316 314 314 314 314 312 312 309 302 296 295 293 291 289 289
269 273 276 279 282 285 286 285 292 289 294 295 297 300 298 304 304 302 300 300 300 299 299 299 299 302 313 317 317 316 315 315 315 314 308 301 296 293 292 290 289 287 287 287
274 270 267 279 289 292 291 281 293 294 293 294 296 291 293 301 300 298 297 296 296 296 296 297 298 303 305 311 313 312 314 314 312 305 300 295 292 290 289 288 286 286 285 285
275 269 276 285 288 293 277 283 293 294 294 293 291 294 298 298 295 295 294 293 294 293 292 294 297 299 300 300 297 296 298 301 300 299 296 292 290 289 288 286 285 285 284 285
277 270 271 290 291 285 290 294 295 295 294 293 297 300 297 293 292 291 291 291 292 292 290 291 294 295 295 296 296 294 293 292 291 291 290 289 287 286 286 285 283 282 282 282
279 277 288 292 293 297 297 293 292 291 292 296 296 297 294 292 291 290 291 291 291 290 289 289 290 292 290 291 294 291 289 287 286 286 286 287 286 284 283 283 282 281 281 280
283 287 289 292 295 297 298 295 293 295 297 296 295 295 291 290 289 288 289 290 289 288 287 286 287 287 288 289 289 288 286 285 285 284 283 283 283 283 282 280 279 279 278 277
287 287 289 292 293 294 295 296 294 292 291 292 291 289 288 286 285 285 286 287 288 286 285 284 285 284 285 285 284 282 281 280 280 279 279 279 279 278 278 279 279 277 278 278
282 289 288 290 294 296 294 292 293 291 288 286 287 285 284 282 282 283 283 284 286 285 284 284 283 283 283 283 282 280 279 278 278 278 278 278 277 277 280 280 280 281 281 280
289 294 294 296 294 293 290 288 287 286 286 284 283 282 281 280 280 281 281 281 282 283 283 282 281 280 281 281 280 279 277 277 277 277 277 276 277 276 274 278 281 281 280 280
292 294 293 294 291 291 289 287 286 284 283 282 281 281 280 278 273 274 276 278 279 280 281 280 279 278 279 280 279 277 277 277 276 276 276 276 276 275 276 274 273 274 278 278
289 291 291 292 294 293 291 287 284 281 280 279 279 279 279 277 276 275 275 276 276 277 277 278 278 278 279 278 277 276 275 274 274 274 274 274 274 274 274 273 272 272 272 273
286 287 287 286 287 289 290 287 282 279 279 278 277 277 277 276 275 275 274 275 274 274 275 276 276 278 278 278 277 275 275 275 274 274 273 273 273 272 271 270 269 268 267 266
281 281 282 282 282 285 284 282 281 279 279 278 277 277 276 275 274 273 273 273 273 273 275 275 275 277 278 278 276 275 274 273 273 272 272 271 271 270 270 269 268 267 266 266
282 281 282 281 282 282 281 281 280 280 278 277 276 275 273 273 271 272 272 273 273 273 274 275 276 276 276 276 276 275 274 272 272 271 271 270 270 269 268 267 267 265 264 264
279 278 279 279 280 281 280 279 278 277 276 275 273 272 272 272 272 272 272 272 272 271 273 275 276 275 275 275 274 274 272 271 270 270 270 269 268 268 266 266 265 264 263 262
275 276 277 277 277 277 277 277 277 275 275 274 273 271 271 271 271 271 271 270 271 272 274 274 274 273 273 273 273 272 271 270 269 269 268 267 266 265 264 264 262 262 261 260
272 273 272 273 272 272 272 273 273 273 273 273 271 270 270 271 271 271 270 269 272 273 273 273 272 272 272 271 271 270 269 268 268 267 266 265 264 264 262 262 261 261 260 259
267 265 265 266 268 268 271 271 271 270 270 270 270 269 268 268 268 269 270 269 271 272 272 271 271 271 271 271 270 268 268 267 266 265 264 263 262 261 261 260 259 259 258 255
262 263 264 264 265 266 267 268 268 269 268 268 268 268 268 269 269 267 266 270 271 270 270 269 269 269 268 268 267 267 266 266 265 263 263 262 261 260 260 258 258 257 256 255
263 264 263 263 265 266 264 265 267 267 267 267 267 268 268 266 267 269 270 269 269 269 268 268 268 268 267 266 266 265 265 263 263 262 261 260 259 259 258 258 257 255 255 255
264 264 264 264 264 265 265 266 266 266 266 266 266 267 268 269 267 268 268 268 268 266 265 266 266 266 265 265 264 264 263 263 262 261 261 260 259 258 257 257 255 255 253 250
266 265 264 266 265 267 267 266 265 265 265 264 265 266 267 268 268 268 267 267 266 266 265 265 264 264 264 263 263 263 263 262 261 260 260 259 258 256 256 255 255 251 249 249
267 267 266 267 268 268 267 266 265 264 265 265 264 266 266 266 266 266 266 266 266 265 265 265 264 263 263 262 262 262 261 261 260 259 258 256 255 255 255 254 252 250 249 247

GFSNGP_sfc_thetae_117.txt.gz
Theta_e
281 282 282 281 281 282 280 281 278 281 280 284 286 288 289 291 292 293 302 304 305 306 307 307 306 305 306 314 316 316 316 318 319 319 319 318 317 318 318 318 318 318 317 316
279 282 281 279 282 282 282 282 282 282 281 289 289 290 290 291 293 299 303 305 306 306 305 302 302 303 303 305 315 316 316 318 319 318 318 317 316 316 316 316 316 315 313 311
274 279 280 275 280 281 282 284 283 279 284 288 287 289 290 294 299 302 303 303 302 301 301 300 299 300 301 303 308 315 315 317 317 317 316 316 316 316 314 309 306 302 300 300
275 277 269 279 285 284 282 284 285 285 287 289 290 292 294 303 303 301 300 298 298 297 298 299 299 299 300 302 306 314 314 315 316 316 315 315 315 306 301 300 298 295 292 292
274 274 277 279 282 282 281 282 289 288 291 292 295 295 297 302 301 298 297 296 295 296 297 296 297 296 298 302 308 313 313 314 314 316 313 310 303 298 295 293 291 289 289 288
276 271 269 279 287 291 290 278 290 290 289 293 296 289 294 298 296 295 295 294 294 295 295 294 293 294 297 297 301 312 313 314 315 315 309 303 297 293 292 289 287 286 286 286
276 274 278 284 289 291 276 281 292 291 289 294 292 296 297 295 294 294 293 293 293 293 290 290 290 292 292 292 290 293 301 310 309 308 302 297 293 291 288 287 286 285 284 284
278 275 273 290 290 283 289 292 291 294 293 293 297 296 294 293 291 290 290 291 291 289 288 288 288 289 288 288 290 291 292 295 294 294 293 292 289 288 287 286 284 283 283 282
281 280 288 291 290 295 296 292 292 294 296 297 296 293 291 290 289 288 288 289 289 287 286 286 286 286 284 286 287 287 288 287 288 288 288 288 287 286 285 285 284 282 282 281
283 287 289 290 293 295 295 293 294 292 292 293 290 290 288 288 286 286 286 287 287 286 284 283 284 284 284 284 284 284 283 284 285 285 285 285 285 285 284 283 282 281 280 278
284 286 287 291 290 292 291 291 289 288 288 288 288 286 285 284 284 284 284 284 285 284 282 282 282 282 283 283 283 283 282 282 282 282 281 281 281 281 281 282 282 279 279 279
281 284 285 285 286 288 288 288 287 288 287 285 285 283 283 281 282 281 281 281 282 282 281 280 280 280 281 282 282 281 280 280 280 280 281 281 280 280 283 282 282 281 281 279
283 286 288 288 290 289 287 286 285 285 284 284 283 282 281 280 279 279 279 279 279 279 280 279 278 278 280 281 281 281 280 280 280 280 280 279 279 278 277 280 282 282 281 281
284 286 284 286 286 288 287 286 285 284 283 283 282 282 281 279 278 277 276 276 276 277 278 277 277 276 278 279 279 279 278 279 279 279 279 279 278 278 278 277 276 277 280 280
282 285 283 285 286 286 286 286 283 282 281 281 281 279 278 277 276 275 276 276 276 275 275 275 275 275 277 277 276 276 276 276 277 277 277 277 276 276 276 275 275 275 276 277
281 282 282 281 282 283 283 283 282 281 280 280 279 278 277 276 276 275 275 274 274 274 275 275 275 276 277 277 276 276 275 275 275 274 274 273 273 272 272 272 271 271 271 270
277 277 278 278 278 279 281 282 281 281 280 278 277 277 276 275 275 274 274 275 275 274 275 276 275 276 276 276 276 275 275 275 275 275 274 274 273 272 271 270 269 269 268 269
277 277 278 278 277 277 279 279 279 278 277 277 276 275 274 273 273 273 273 275 274 274 275 276 276 276 276 276 276 275 275 274 274 273 273 272 271 270 269 269 268 267 266 266
276 275 275 277 276 276 277 277 277 277 275 275 273 272 273 273 273 273 273 273 273 273 273 276 276 276 275 275 275 274 274 273 272 272 271 270 270 269 268 267 267 267 266 266
274 274 274 274 274 273 273 274 275 274 274 274 272 272 272 272 272 272 272 271 272 273 275 275 274 274 274 274 274 273 272 272 271 270 270 269 268 267 267 266 266 266 265 265
271 271 270 270 270 269 269 270 271 271 271 272 272 270 270 271 271 271 271 271 272 273 273 273 274 273 273 273 273 273 272 270 270 269 268 267 267 266 266 266 265 265 264 264
268 266 265 266 267 266 267 268 270 269 269 269 269 269 269 269 270 270 270 271 272 271 272 272 272 271 271 271 271 271 270 270 269 269 268 267 266 265 265 265 264 264 264 263
267 266 266 265 265 266 266 266 266 268 268 268 269 269 270 271 272 271 269 271 271 270 271 271 269 268 269 270 270 269 269 268 268 267 267 267 266 266 265 264 264 264 263 263
267 267 266 266 265 267 265 266 267 268 267 268 268 269 270 270 269 270 270 269 268 269 269 269 268 268 268 269 268 268 267 267 267 266 266 265 265 265 264 264 263 263 262 262
267 267 267 266 267 267 266 267 267 267 267 268 269 270 270 271 270 269 269 268 268 268 268 266 266 267 268 268 267 267 267 267 266 266 266 265 265 264 264 263 263 263 262 262
269 269 268 267 268 268 268 268 267 267 268 267 268 269 269 269 269 269 268 267 267 267 267 267 267 267 267 266 266 266 266 265 265 265 264 264 264 264 263 263 262 262 262 261
269 268 269 268 268 268 268 267 267 266 267 267 267 268 268 268 268 268 267 267 267 266 266 266 266 266 266 266 265 265 265 265 264 264 264 264 263 263 262 262 262 261 261 260

GFSNGP_sfc_thetae_120.txt.gz
Theta_e
283 284 284 283 283 284 282 283 281 285 285 288 291 292 293 294 295 296 298 300 306 309 311 311 309 309 307 304 306 311 317 318 320 322 324 324 325 322 322 322 321 320 321 320
280 283 284 282 283 284 284 285 285 286 285 292 293 293 293 294 295 296 300 305 308 308 308 307 306 304 302 303 304 305 316 317 320 321 322 323 323 321 320 319 319 318 318 313
276 281 281 277 282 283 284 286 286 282 288 291 290 291 293 294 296 300 303 305 305 305 305 305 305 302 299 301 303 304 311 317 319 321 321 322 321 320 318 314 310 304 302 300
277 279 271 282 288 286 284 286 288 288 289 291 292 295 298 300 299 302 303 302 303 303 302 303 303 303 299 299 301 304 307 316 318 319 319 321 319 316 308 305 301 297 294 293
276 276 280 282 285 284 283 283 289 288 291 293 296 299 299 302 303 301 301 301 301 301 300 300 299 297 297 299 299 300 306 315 317 318 317 318 311 306 300 296 294 292 291 290
279 273 271 281 287 291 291 281 293 293 292 290 292 291 296 298 299 298 297 298 297 297 297 295 293 293 295 294 293 293 295 307 316 316 315 308 301 297 295 292 289 289 288 288
278 277 280 287 290 293 279 284 294 292 289 286 290 292 294 295 294 294 294 294 294 294 292 290 290 290 290 290 289 291 293 295 313 313 307 300 295 293 290 288 287 286 286 286
281 278 274 291 290 284 291 296 293 291 292 294 296 295 293 293 292 291 291 291 291 290 289 288 287 287 287 285 287 289 291 291 300 301 297 294 291 290 288 287 285 284 283 283
283 283 292 293 292 296 296 294 293 292 293 294 292 292 291 290 289 289 289 289 289 288 287 286 285 285 284 285 286 288 288 288 287 291 292 291 289 287 286 286 285 283 282 280
283 285 286 287 289 291 293 291 290 291 292 292 289 289 288 287 286 286 287 287 288 287 286 283 283 283 283 284 285 285 285 285 286 285 285 286 286 287 286 285 283 282 281 280
284 285 286 288 288 286 288 289 289 290 291 289 289 288 286 284 283 284 285 285 286 285 285 283 281 281 282 283 285 283 284 284 284 284 283 282 284 283 283 283 283 280 279 279
281 284 284 286 286 288 287 288 288 289 289 289 288 287 286 284 284 283 282 283 283 283 283 283 280 279 281 282 283 282 282 282 282 283 282 281 280 280 283 282 282 282 281 279
283 287 288 288 290 289 289 288 288 288 287 286 286 285 284 283 281 281 280 280 280 280 280 281 280 278 279 281 282 282 281 281 281 281 280 280 279 279 278 280 281 281 281 280
286 287 285 285 284 288 288 288 288 287 286 284 283 283 282 281 280 279 278 278 279 279 278 278 278 278 279 279 279 280 280 280 280 280 279 279 279 278 278 277 276 277 280 280
285 286 285 286 286 286 287 288 287 286 284 283 282 281 280 279 278 277 278 279 279 278 277 277 277 278 280 279 277 277 277 277 277 278 278 278 278 277 277 277 276 276 276 277
284 284 284 283 283 283 284 284 283 283 284 282 281 280 279 279 279 278 278 277 277 276 277 277 276 278 280 279 279 277 276 276 276 275 275 274 274 275 275 276 276 275 274 273
280 279 280 281 280 281 281 282 282 281 282 281 280 280 279 278 278 277 277 278 278 277 278 277 277 278 279 279 279 279 278 277 277 276 275 274 274 273 274 274 273 273 273 274
280 280 280 280 279 279 280 281 281 280 279 279 277 277 276 276 276 276 276 277 277 276 277 278 278 278 278 279 279 279 278 278 277 276 276 275 274 274 273 272 271 270 270 271
279 278 278 278 278 278 278 278 278 278 277 277 276 275 275 275 276 276 277 277 277 276 276 278 278 278 278 278 279 278 277 276 276 275 275 274 274 273 273 272 271 270 270 271
277 277 277 276 276 275 274 275 275 276 276 276 275 275 275 274 275 275 276 274 275 276 277 277 278 277 277 277 278 278 277 276 275 275 274 273 273 272 271 270 270 270 270 270
274 275 273 273 273 272 271 272 273 273 274 274 275 273 273 274 274 276 277 276 275 276 277 276 277 277 277 277 277 277 276 276 275 274 273 271 271 270 270 270 270 269 269 269
273 271 270 270 270 271 270 271 272 272 272 272 272 272 273 274 274 273 273 275 276 275 276 276 275 274 275 277 277 277 276 276 275 274 272 272 271 271 270 270 269 269 269 269
273 272 272 269 269 270 270 270 270 271 271 272 272 273 274 275 276 276 275 275 275 274 275 274 271 272 274 277 276 276 275 274 274 273 273 272 272 271 270 270 269 269 269 269
273 273 272 271 270 271 270 271 271 272 271 272 272 272 274 275 274 275 274 272 272 273 273 272 271 272 273 275 274 274 274 274 273 273 272 271 271 270 270 269 269 269 268 268
272 272 272 271 273 273 272 272 272 272 271 272 272 273 273 274 274 273 273 272 272 273 272 270 271 272 274 274 273 273 273 273 272 272 271 271 270 269 269 269 268 268 268 267
274 275 274 271 272 273 273 273 272 272 272 273 273 273 273 273 273 273 272 271 272 272 272 272 272 273 272 272 272 271 271 271 271 271 270 270 270 269 268 268 267 267 267 267
275 272 274 273 273 272 272 271 272 271 272 273 271 272 273 272 272 272 271 272 272 272 272 272 272 271 271 271 271 270 270 270 269 270 269 269 269 268 268 267 267 267 265 264

GFSNGP_sfc_thetae_123.txt.gz
Theta_e
284 285 284 284 283 285 283 284 281 286 286 290 294 294 295 296 296 297 297 300 303 306 310 312 312 312 311 309 311 311 308 310 319 322 323 322 323 323 324 324 324 324 323 322
281 284 285 282 284 285 285 285 285 287 287 294 295 296 294 295 296 296 297 300 305 308 309 309 309 309 309 308 305 308 306 306 316 321 321 322 322 322 322 323 322 321 320 316
277 283 283 279 283 284 285 287 286 282 288 293 292 292 294 296 297 298 298 305 306 306 306 307 307 306 305 305 305 304 305 307 309 319 320 323 322 321 321 320 316 308 304 303
278 281 272 283 288 288 286 287 288 289 290 292 293 296 298 299 299 300 304 304 304 305 305 305 305 302 301 302 303 302 301 303 307 318 320 322 320 318 315 311 303 298 295 295
276 276 281 283 287 287 286 285 290 290 291 294 296 296 297 303 304 303 301 302 302 303 302 302 299 298 298 298 299 299 296 298 299 316 320 321 316 308 303 299 296 293 292 291
280 275 273 282 288 292 292 282 294 295 294 294 293 286 292 295 297 296 297 298 297 299 298 296 294 294 294 294 293 293 291 293 295 298 318 315 305 300 298 294 291 290 289 289
280 278 281 289 292 294 280 284 295 294 291 289 286 290 293 294 294 294 295 294 295 296 293 291 291 290 290 291 289 288 290 292 294 297 311 306 299 295 292 289 288 287 286 287
281 279 276 290 292 285 290 295 293 293 289 286 291 293 293 292 291 292 291 292 294 293 292 291 288 286 286 287 287 288 290 290 290 297 302 298 294 291 289 288 286 285 284 283
282 282 289 289 287 289 291 292 291 290 290 292 291 290 290 289 288 289 290 291 292 292 291 291 288 284 283 284 286 286 287 287 287 288 293 294 291 288 287 287 285 283 282 281
283 285 285 287 288 288 288 287 289 291 292 292 289 290 289 288 289 289 289 289 290 289 288 288 287 284 282 284 285 285 284 285 285 285 285 287 288 288 287 285 284 282 281 279
285 286 287 289 288 288 289 289 290 292 292 290 289 288 288 287 287 287 286 287 287 286 285 285 285 283 281 283 284 284 283 284 285 284 283 282 282 283 283 284 284 282 280 280
282 286 284 287 287 290 288 288 289 289 289 290 288 287 287 285 285 284 283 283 282 282 282 282 283 282 280 281 283 283 282 282 283 283 282 281 280 280 283 282 282 282 281 280
285 288 288 289 290 289 288 288 289 288 288 286 287 286 285 283 282 281 281 280 280 279 279 280 281 280 280 280 282 281 281 281 281 281 280 279 279 278 276 280 282 281 281 280
288 288 286 287 285 287 288 289 290 289 288 286 285 285 284 282 281 279 278 280 280 279 278 279 279 279 280 279 279 279 279 279 280 280 279 279 278 278 277 276 275 276 280 279
287 288 287 288 288 288 288 288 287 286 285 285 285 284 282 280 279 278 279 280 281 279 278 278 278 279 281 279 278 276 277 277 278 279 279 279 278 277 277 276 275 275 276 277
287 288 287 286 286 286 286 285 283 283 283 283 282 282 282 281 280 280 279 279 278 277 278 278 277 279 281 281 279 278 277 277 277 276 277 278 277 276 275 274 273 273 273 274
283 282 283 283 283 283 284 284 283 281 281 280 280 280 280 280 280 279 279 279 278 278 279 278 278 280 281 281 281 280 279 277 276 276 275 275 276 275 275 275 275 275 277 277
283 283 283 282 281 281 282 282 281 280 279 279 279 278 278 278 277 278 279 280 280 278 279 279 280 280 280 280 281 280 280 279 278 276 276 275 274 274 273 273 273 273 274 275
281 281 280 280 280 279 279 278 278 278 278 278 277 277 277 277 277 278 279 278 278 277 277 279 279 279 279 280 280 280 279 277 277 277 276 275 275 273 273 273 273 273 273 274
279 279 278 278 278 276 275 275 276 276 276 276 277 277 277 276 277 278 278 276 276 277 279 279 279 279 279 280 280 279 279 278 277 277 276 275 274 273 273 273 274 273 273 273
277 277 275 274 274 274 273 274 274 274 274 275 275 275 275 276 276 276 279 277 276 278 279 278 279 279 279 280 280 280 279 278 277 276 275 274 274 274 273 273 273 273 272 272
277 274 274 272 272 273 273 274 274 273 274 274 274 275 276 277 276 275 275 276 277 278 278 277 277 277 279 280 280 279 278 277 276 276 275 275 274 273 273 272 271 272 271 271
277 276 275 273 272 273 275 274 273 273 272 273 273 274 276 276 276 276 275 276 277 277 276 275 275 277 278 280 279 279 278 277 276 276 275 275 274 273 273 272 272 271 271 271
277 276 275 275 275 275 274 275 274 274 273 275 274 274 275 278 276 277 275 274 273 273 273 274 275 276 277 278 277 277 277 276 276 276 275 274 274 273 272 272 272 271 271 270
275 276 277 275 275 275 275 275 275 275 275 275 275 276 275 276 276 275 276 275 275 275 274 273 274 276 277 277 276 276 276 276 275 275 274 273 273 272 272 271 271 270 270 269
276 276 276 275 274 274 274 274 273 275 274 275 275 276 276 276 275 275 274 274 275 274 274 275 275 275 275 275 274 274 274 274 274 274 273 273 272 272 271 270 270 270 270 270
277 273 275 276 276 275 274 273 273 273 274 274 273 275 275 275 274 274 274 275 275 274 274 274 274 274 274 274 273 273 273 273 273 273 272 272 271 271 270 270 270 269 268 266

GFSNGP_sfc_thetae_126.txt.gz
Theta_e
283 284 284 283 282 283 282 284 280 283 284 287 288 292 297 298 295 295 296 298 299 301 308 309 309 309 310 309 309 308 306 307 309 311 321 323 323 323 323 323 322 323 323 323
281 284 284 282 284 284 284 285 285 285 284 292 295 294 294 294 295 296 297 298 300 307 306 306 306 306 306 305 304 306 305 305 308 308 316 321 321 321 321 321 321 320 320 317
277 282 282 278 282 284 284 286 285 281 286 291 290 293 295 296 297 297 298 302 304 304 304 304 304 304 301 301 302 303 303 303 304 304 310 319 320 320 319 318 314 308 305 302
278 280 272 282 288 289 285 286 288 287 289 292 293 295 297 300 299 300 301 301 302 301 301 302 302 299 298 299 299 299 299 300 299 299 303 315 320 319 314 309 304 299 296 295
276 276 280 283 287 286 285 284 292 291 291 291 293 294 294 296 297 296 297 297 297 298 299 298 296 294 294 295 296 296 294 294 295 295 296 302 311 311 305 299 296 293 292 291
280 275 272 281 285 291 292 281 292 292 289 288 289 285 290 293 294 294 295 295 295 296 296 294 292 291 290 291 292 291 290 290 293 294 294 298 306 304 300 295 291 290 289 289
280 278 281 284 288 291 280 280 291 291 289 288 286 288 291 293 292 293 293 293 294 294 293 293 291 288 287 287 288 288 289 290 291 293 293 296 303 298 293 290 288 287 286 287
279 276 273 286 287 280 283 288 288 289 289 289 291 290 290 290 289 290 290 291 292 292 291 292 290 287 284 284 286 287 287 288 290 291 292 301 296 294 291 288 286 285 284 283
281 280 287 287 286 288 288 287 287 289 291 291 289 288 289 289 289 289 289 289 289 289 289 289 288 286 282 282 284 285 286 286 287 289 288 290 292 290 288 287 286 284 283 282
282 285 285 286 288 289 289 288 289 291 290 289 288 288 287 287 286 286 286 285 286 285 284 284 285 284 283 282 283 284 284 284 285 285 285 285 286 288 288 286 285 283 281 280
284 286 286 288 288 288 289 289 288 289 289 288 288 286 286 285 284 284 284 283 283 282 281 281 282 282 282 281 282 282 283 283 283 283 283 282 281 282 284 285 285 283 281 280
281 286 284 286 288 289 288 287 288 287 287 287 287 285 285 283 282 282 281 281 280 280 279 280 280 280 281 281 281 281 281 282 281 281 281 281 280 279 283 283 283 283 282 281
285 288 289 289 289 289 287 288 289 287 287 285 285 284 284 281 281 280 279 280 279 278 278 278 279 279 280 280 280 280 279 281 280 280 279 279 279 278 277 280 282 281 281 280
289 288 285 287 286 288 288 288 289 287 286 285 284 284 282 281 280 279 278 278 280 279 278 278 278 278 280 279 279 278 278 279 279 279 278 278 277 277 277 276 275 276 280 280
287 289 287 288 288 287 288 287 285 283 283 283 283 282 282 280 279 278 279 279 280 279 278 277 277 278 281 279 278 277 277 277 278 278 277 277 277 276 276 276 275 275 277 278
286 287 286 285 284 284 285 284 282 281 281 281 280 280 280 281 280 279 279 279 277 276 277 277 277 278 281 281 279 277 277 277 277 277 276 275 275 274 273 273 273 274 274 275
282 281 282 281 281 281 282 282 281 279 279 278 278 279 279 279 280 279 279 280 277 278 278 278 278 279 280 281 280 278 277 276 276 275 275 275 275 274 275 275 275 274 275 276
283 282 282 281 279 279 279 279 278 278 277 277 278 278 277 277 276 277 278 280 279 277 278 278 279 280 280 280 279 279 277 276 275 274 274 273 273 274 273 273 273 273 274 274
282 280 279 279 278 277 277 276 275 277 276 276 276 277 276 277 277 278 277 275 275 275 277 280 279 280 280 280 280 278 277 276 275 274 274 273 273 273 272 272 272 272 272 272
279 279 278 276 276 276 274 274 275 275 275 275 274 275 276 274 275 275 278 275 276 277 279 279 280 279 279 280 279 279 278 276 275 274 273 273 273 272 272 272 272 272 271 271
277 276 275 274 273 274 272 274 273 273 273 274 273 273 274 276 274 274 277 275 276 278 278 277 278 279 280 280 280 279 278 276 275 274 274 273 273 272 272 271 271 271 270 270
278 275 275 272 272 273 274 274 273 274 272 273 273 274 275 277 276 275 274 275 277 277 276 276 277 279 280 280 279 278 277 276 275 275 274 273 272 272 271 271 271 271 270 270
278 277 276 273 272 274 275 275 271 274 271 273 271 272 274 276 275 274 273 274 275 275 275 275 276 278 278 279 278 277 276 275 275 274 274 273 273 272 271 271 271 270 270 270
277 276 276 276 276 276 274 275 275 275 272 275 274 272 275 275 275 276 276 274 272 273 273 275 276 277 277 277 277 276 276 275 274 274 273 272 272 271 271 271 270 270 269 269
277 277 278 275 274 274 275 275 275 275 274 276 275 276 275 275 274 274 276 275 275 274 274 274 275 276 276 276 276 275 275 274 274 273 273 272 272 271 270 270 269 268 268 268
276 276 276 276 275 275 274 274 273 274 274 274 274 275 276 276 275 275 274 274 274 273 274 274 275 275 274 274 273 273 273 273 273 272 272 271 271 270 269 269 269 268 268 266
278 276 276 276 275 275 274 274 273 272 273 272 274 275 275 275 274 274 274 274 274 273 273 273 273 273 273 273 273 272 272 272 272 272 271 270 270 270 269 269 268 266 265 264

GFSNGP_sfc_thetae_129.txt.gz
Theta_e
281 282 283 282 282 283 281 281 278 282 283 287 290 291 292 295 297 298 297 298 302 303 303 303 303 303 303 302 301 302 302 302 303 305 306 307 311 321 324 324 324 324 323 322
278 283 283 280 282 282 282 283 281 284 284 290 293 294 293 294 298 298 299 300 301 301 301 301 299 299 298 297 298 299 300 300 302 303 302 302 308 315 322 323 321 320 321 321
275 281 280 276 281 283 284 284 284 280 286 291 291 292 293 293 295 295 296 295 295 296 297 296 295 294 293 294 296 297 298 297 298 298 297 298 300 303 320 320 318 313 310 308
276 278 270 282 286 286 285 285 287 287 287 289 290 293 293 293 292 292 294 294 293 294 294 293 292 291 291 292 293 294 295 293 292 292 293 295 297 301 312 313 310 304 299 297
271 274 278 279 282 282 283 282 287 288 287 289 290 292 290 292 293 292 292 293 293 293 293 291 290 289 289 289 290 291 290 288 290 290 291 293 294 297 302 303 302 296 294 291
278 273 271 278 284 287 285 278 285 289 287 286 288 283 286 291 291 290 292 292 292 293 292 289 287 287 286 285 286 286 286 286 288 289 291 291 292 295 301 300 294 291 289 289
277 275 277 282 285 287 276 275 287 288 287 287 285 287 289 290 289 291 290 289 289 289 288 287 286 285 283 283 282 284 284 286 287 289 290 291 292 294 295 293 290 288 287 287
274 266 267 286 284 277 282 286 287 287 287 286 287 289 289 288 287 288 285 285 285 284 284 285 284 283 281 280 281 282 283 285 286 288 289 290 292 295 292 290 288 286 285 284
280 279 285 287 285 287 287 286 286 287 287 287 286 286 287 286 285 285 283 283 283 282 282 282 282 282 279 280 281 281 283 284 285 286 286 287 289 289 288 288 287 285 284 282
281 284 284 286 288 288 289 288 288 288 288 287 285 285 285 284 283 282 282 281 281 280 279 279 280 280 279 280 280 280 281 283 283 283 283 282 284 286 286 285 285 285 283 281
281 284 285 286 287 287 287 289 288 288 287 285 285 283 283 282 280 280 280 280 280 279 278 278 279 279 279 279 279 279 280 282 281 281 281 281 281 282 284 284 285 284 284 281
278 285 284 285 287 289 286 286 287 286 285 285 284 282 282 281 280 279 278 279 279 278 277 277 278 279 279 279 279 278 279 280 280 280 279 280 279 280 283 283 283 283 283 282
284 288 288 287 289 288 287 286 286 285 285 283 283 282 281 280 279 279 278 276 278 276 277 277 277 278 279 278 279 278 278 279 279 278 278 276 277 277 276 280 282 282 282 282
288 287 285 286 284 286 286 285 285 284 284 283 281 281 282 280 279 277 276 275 277 275 275 276 276 277 279 278 277 277 277 278 277 277 277 276 276 276 277 276 276 277 281 280
285 286 284 285 284 284 284 283 281 280 280 280 280 279 279 279 274 276 271 274 274 273 274 276 276 277 280 278 277 276 276 277 276 275 275 275 275 275 276 276 277 277 278 280
285 283 283 281 281 281 281 280 278 277 278 278 278 278 278 279 278 276 275 275 272 274 274 275 276 278 279 278 277 276 276 276 276 275 274 274 274 274 274 274 274 274 274 275
279 278 278 277 277 278 278 277 276 276 277 276 276 277 277 277 276 274 273 278 271 274 275 275 276 278 279 279 277 277 276 275 275 274 274 274 274 274 274 274 273 273 273 274
280 279 278 277 276 275 275 275 275 275 275 275 273 272 272 268 272 273 271 272 273 273 275 276 277 278 278 278 278 276 275 274 274 273 273 273 273 273 273 273 273 272 272 273
279 277 276 276 275 275 274 273 273 274 272 272 269 271 272 266 269 270 272 269 272 272 274 277 279 278 278 279 278 277 276 274 273 273 273 273 272 272 272 272 271 271 271 271
277 277 275 274 275 274 273 273 272 272 270 272 267 267 268 270 270 272 272 268 272 276 277 277 277 277 278 277 277 276 274 273 273 273 272 272 272 271 271 271 271 271 270 270
275 275 274 273 272 270 267 266 265 267 266 268 265 268 270 273 270 269 271 272 274 276 275 275 276 278 278 277 276 275 274 273 273 272 272 271 271 270 270 270 270 270 269 269
275 269 269 267 267 266 266 268 267 264 262 263 263 265 269 271 271 269 271 271 274 273 274 274 275 277 277 277 276 274 274 273 273 272 271 271 271 270 270 270 269 269 269 268
269 268 267 266 265 269 270 270 265 265 262 264 263 264 270 273 268 269 268 271 273 273 274 274 275 276 276 276 275 274 272 272 272 271 271 271 270 270 269 269 269 268 268 268
268 267 269 271 266 267 266 267 267 271 264 271 264 264 269 270 269 271 272 271 271 272 273 275 275 274 272 273 274 273 272 272 271 270 270 269 269 269 269 268 268 268 267 266
268 269 269 267 269 266 267 266 269 269 268 273 266 270 270 270 267 268 271 272 274 273 273 273 272 272 272 272 271 272 271 270 268 268 268 269 268 267 267 267 266 266 266 265
269 270 268 273 269 267 266 267 266 265 266 267 267 264 264 267 271 271 268 270 271 272 272 272 271 271 271 271 271 270 270 269 269 269 268 268 266 266 265 265 265 265 263 262
274 271 270 269 268 268 267 265 266 265 263 261 269 264 269 270 268 269 270 268 268 269 270 271 271 270 269 268 268 268 269 269 268 268 266 265 266 266 265 263 262 261 260 259

GFSNGP_sfc_thetae_132.txt.gz
Theta_e
281 282 282 282 281 281 279 280 277 280 280 285 289 290 292 294 297 296 296 296 296 297 297 295 295 295 295 295 296 298 298 297 297 299 300 299 299 301 303 308 320 324 323 321
277 281 282 279 281 282 282 282 281 282 283 290 293 294 294 293 294 293 294 294 294 294 294 293 292 291 292 292 293 296 295 295 295 294 294 295 296 297 300 305 311 323 322 320
275 279 279 276 279 282 283 284 284 280 284 288 288 292 290 291 292 291 291 291 291 292 292 291 290 289 288 289 291 291 293 292 291 291 291 292 293 295 297 300 303 315 319 320
276 278 269 279 284 285 283 282 284 285 286 287 288 291 291 291 290 290 290 290 290 290 290 289 288 287 288 288 287 289 289 288 288 289 289 290 292 293 294 296 300 311 311 308
272 275 278 280 281 281 280 280 284 283 285 287 289 291 289 290 290 289 288 287 287 288 288 286 285 285 285 285 285 285 284 285 286 287 288 289 290 291 292 294 296 302 301 298
276 272 269 278 283 286 285 276 284 286 285 286 287 282 285 289 289 287 286 285 284 285 285 284 283 284 283 282 282 281 282 283 285 287 288 288 289 290 292 293 296 293 290 293
272 271 276 282 284 286 274 273 285 287 286 286 284 286 288 288 286 285 284 283 283 283 282 282 282 282 280 280 279 281 282 282 284 286 287 288 289 290 291 293 291 288 286 287
272 264 266 285 284 277 282 286 286 286 286 285 286 286 286 285 283 283 281 281 282 280 280 281 281 280 278 278 280 280 281 282 283 285 286 286 285 287 291 290 287 286 285 285
278 278 285 287 285 287 287 285 286 286 287 286 285 283 284 282 281 281 280 280 281 279 279 279 279 279 277 278 279 280 280 280 282 283 284 284 283 284 287 288 286 285 285 284
278 282 284 285 287 287 288 287 288 287 286 284 283 282 282 282 280 280 279 279 281 278 277 277 278 279 279 279 279 278 278 279 280 279 280 282 282 282 284 285 285 285 285 283
278 283 285 287 286 287 287 288 287 286 285 284 283 282 281 281 279 278 278 278 280 277 277 276 277 278 279 278 278 277 277 277 277 277 279 280 280 281 282 284 286 285 285 283
273 283 283 284 286 289 285 285 284 283 283 284 282 281 281 280 280 278 278 277 277 277 276 276 276 277 279 278 278 277 276 276 276 276 277 277 276 278 282 283 284 284 284 282
282 287 287 287 286 286 284 284 283 282 282 280 280 280 280 280 279 278 275 275 275 275 275 276 276 276 278 278 277 276 275 276 276 276 276 275 273 275 274 279 283 284 284 283
288 286 284 282 281 283 283 282 282 281 280 279 279 279 279 278 275 270 271 271 270 272 273 273 274 275 278 277 276 275 276 275 274 274 274 274 274 275 275 275 276 277 282 282
283 283 282 282 281 281 281 280 278 277 277 277 278 278 278 276 275 273 273 272 269 268 272 273 274 275 278 276 275 275 275 275 275 275 275 275 275 274 274 275 276 277 278 280
281 281 280 278 278 278 277 276 275 275 276 275 275 276 277 276 276 274 273 273 269 271 273 273 274 276 277 276 276 276 275 275 274 275 274 274 275 273 273 273 273 273 273 274
278 276 277 276 276 276 275 275 274 274 275 274 274 274 275 275 274 270 268 270 271 269 273 274 275 277 277 277 275 275 274 274 274 273 273 274 274 273 273 273 272 272 272 274
277 277 276 276 274 274 274 274 273 273 272 272 271 269 270 268 269 270 270 267 271 271 273 275 276 277 276 275 276 275 274 274 273 273 273 272 272 273 272 272 271 271 271 272
276 275 275 275 275 274 273 272 272 273 270 269 268 266 268 269 270 271 269 269 270 272 273 275 277 277 277 277 275 274 273 273 273 273 273 272 271 271 271 271 270 270 270 270
276 275 274 274 274 274 273 273 270 269 268 266 264 265 268 270 269 269 269 269 271 273 275 275 276 277 277 275 273 273 272 272 272 272 271 271 271 270 270 270 270 269 269 269
275 275 274 273 271 269 265 267 263 266 265 261 260 262 266 268 266 265 268 270 272 273 274 274 275 277 276 275 273 271 270 271 271 271 271 270 270 270 269 269 269 268 268 268
270 268 267 265 265 265 265 265 267 262 261 261 261 261 266 268 267 266 265 268 271 271 273 274 275 275 275 274 273 271 272 271 271 270 270 270 270 269 268 268 268 268 267 267
267 267 265 263 263 264 263 264 264 261 260 263 261 263 264 269 267 265 264 269 271 273 273 274 274 274 273 273 272 271 269 269 270 270 269 269 269 269 268 268 268 267 267 267
266 265 266 265 263 266 265 263 263 265 262 266 264 262 264 264 264 270 271 269 268 271 272 273 272 272 271 271 271 271 270 268 267 269 268 268 268 267 267 267 266 266 265 265
267 266 267 267 266 264 263 263 265 264 265 266 264 266 268 269 265 267 264 268 270 269 270 272 272 271 271 270 269 269 268 267 266 266 265 264 263 265 264 264 264 264 263 263
269 267 267 266 265 264 264 264 263 260 261 263 264 263 261 263 266 268 267 265 267 267 269 270 270 270 269 269 269 269 268 267 266 265 264 263 263 262 261 261 261 260 260 260
271 268 267 266 266 265 264 262 262 261 260 259 263 260 262 263 264 265 261 260 261 266 267 268 269 268 267 266 267 267 267 267 265 265 264 263 263 261 259 259 258 258 257 258